[[{"header":{"parameterUnit":"m.s-1","parameterCategory":1,"la1":30.6,"la2":29.2853,"lo1":-89.7004,"lo2":-87.6739,"dy":0.0162,"dx":0.0183,"nx":112,"ny":82,"refTime":"2024-06-10T00:00:00:Z","depth":0,"parameterNumber":2,"parameterNumberName":"U-component_of_WINDS"},"data":[0.0,0.0,0.0,0.0,0.0,0.0,0.0,0.0,0.0,0.0,0.0,0.0,0.0,0.0,0.0,0.0,0.0,0.0,0.0,0.0,0.0,0.0,0.0,0.0,0.0,0.0,0.0,0.0,0.0,0.0,0.0,0.0,0.0,0.0,0.0,0.0,0.0,0.0,0.0,0.0,0.0,0.0,0.0,0.0,0.0,0.0,0.0,0.0,0.0,0.0,0.0,0.0,0.0,0.0,0.0,0.0,0.0,0.0,0.0,0.0,0.0,0.0,0.0,0.0,0.0,0.0,0.0,0.0,0.0,0.0,0.0,0.0,0.0,0.0,0.0,0.0,0.0,0.0,0.0,0.0,0.0,0.0,0.0,0.0,0.0,0.0,0.0,0.0,0.0,0.0,0.0,2.2244,2.4277,2.5379,2.519,2.4426,2.3145,2.1286,0.0,0.0,0.0,0.0,0.0,0.0,0.0,0.0,0.0,0.0,0.0,0.0,0.0,0.0,0.0,0.0,0.0,0.0,0.0,0.0,0.0,0.0,0.0,0.0,0.0,0.0,0.0,0.0,0.0,0.0,0.0,0.0,0.0,0.0,0.0,0.0,0.0,0.0,0.0,0.0,0.0,0.0,0.0,0.0,0.0,0.0,0.0,0.0,0.0,0.0,0.0,0.0,0.0,0.0,0.0,0.0,0.0,0.0,0.0,0.0,0.0,0.0,0.0,0.0,0.0,0.0,0.0,0.0,0.0,0.0,0.0,0.0,0.0,0.0,0.0,0.0,0.0,0.0,0.0,0.0,0.0,0.0,0.0,0.0,0.0,0.0,0.0,0.0,0.0,0.0,0.0,0.0,0.0,0.0,0.0,0.0,0.0,0.0,0.0,0.0,0.0,0.0,0.0,0.0,2.1603,2.5377,2.5958,2.6046,2.6023,2.5139,2.3539,2.1182,0.0,0.0,0.0,0.0,0.0,0.0,0.0,0.0,0.0,0.0,0.0,0.0,0.0,0.0,0.0,0.0,0.0,0.0,0.0,0.0,0.0,0.0,0.0,0.0,0.0,0.0,0.0,0.0,0.0,0.0,0.0,0.0,0.0,0.0,0.0,0.0,0.0,0.0,0.0,0.0,0.0,0.0,0.0,0.0,0.0,0.0,0.0,0.0,0.0,0.0,0.0,0.0,0.0,0.0,0.0,0.0,0.0,0.0,0.0,0.0,0.0,0.0,0.0,0.0,0.0,0.0,0.0,0.0,0.0,0.0,0.0,0.0,0.0,0.0,0.0,0.0,0.0,0.0,0.0,0.0,0.0,0.0,0.0,0.0,0.0,0.0,0.0,0.0,0.0,0.0,0.0,0.0,0.0,0.0,0.0,0.0,0.0,0.0,0.0,0.0,0.0,0.0,0.0,2.0179,2.2428,2.5958,2.5823,2.5636,2.6015,2.4778,2.3104,2.1017,1.8667,0.0,0.0,0.0,0.0,0.0,0.0,0.0,0.0,0.0,0.0,0.0,0.0,0.0,0.0,0.0,0.0,0.0,0.0,0.0,0.0,0.0,0.0,0.0,0.0,0.0,0.0,0.0,0.0,0.0,0.0,0.0,0.0,0.0,0.0,0.0,0.0,0.0,0.0,0.0,0.0,0.0,0.0,0.0,0.0,0.0,0.0,0.0,0.0,0.0,0.0,0.0,0.0,0.0,0.0,0.0,0.0,0.0,0.0,0.0,0.0,0.0,0.0,0.0,0.0,0.0,0.0,0.0,0.0,0.0,0.0,0.0,0.0,0.0,0.0,0.0,0.0,0.0,0.0,0.0,0.0,0.0,0.0,0.0,0.0,0.0,0.0,0.0,0.0,0.0,0.0,0.0,0.0,0.0,0.0,0.0,0.0,0.0,0.0,0.0,0.0,0.0,0.0,2.126,2.2752,2.5855,2.5378,2.5094,2.5775,2.4129,2.2399,2.085,1.8313,0.0,0.0,0.0,0.0,0.0,0.0,0.0,0.0,0.0,0.0,0.0,0.0,0.0,0.0,0.0,0.0,0.0,0.0,0.0,0.0,0.0,0.0,0.0,0.0,0.0,0.0,0.0,0.0,0.0,0.0,0.0,0.0,0.0,0.0,0.0,0.0,0.0,0.0,0.0,0.0,0.0,0.0,0.0,0.0,0.0,0.0,0.0,0.0,0.0,0.0,0.0,0.0,0.0,0.0,0.0,0.0,0.0,0.0,0.0,0.0,0.0,0.0,0.0,0.0,0.0,0.0,0.0,0.0,0.0,0.0,0.0,0.0,0.0,0.0,0.0,0.0,0.0,0.0,0.0,0.0,0.0,0.0,0.0,0.0,0.0,0.0,0.0,0.0,0.0,0.0,0.0,0.0,0.0,0.0,0.0,0.0,0.0,0.0,0.0,0.0,0.0,0.0,2.1553,2.2692,2.5786,2.5231,2.4899,2.5551,2.3386,2.161,2.068,1.7708,0.0,0.0,0.0,0.0,0.0,0.0,0.0,0.0,0.0,0.0,0.0,0.0,0.0,0.0,0.0,0.0,0.0,0.0,0.0,0.0,0.0,0.0,0.0,0.0,0.0,0.0,0.0,0.0,0.0,0.0,0.0,0.0,0.0,0.0,0.0,0.0,0.0,0.0,0.0,0.0,0.0,0.0,0.0,0.0,0.0,0.0,0.0,0.0,0.0,0.0,0.0,0.0,0.0,0.0,0.0,0.0,0.0,0.0,0.0,0.0,0.0,0.0,0.0,0.0,0.0,0.0,0.0,0.0,0.0,0.0,0.0,0.0,0.0,0.0,0.0,0.0,0.0,0.0,0.0,0.0,0.0,0.0,0.0,0.0,0.0,0.0,0.0,0.0,0.0,0.0,0.0,0.0,0.0,0.0,0.0,0.0,0.0,0.0,0.0,0.0,0.0,0.0,2.1515,2.2589,0.0,2.4597,2.4151,2.5269,2.2691,2.0848,2.0442,0.0,0.0,0.0,0.0,0.0,0.0,0.0,0.0,0.0,0.0,0.0,0.0,0.0,0.0,0.0,0.0,0.0,0.0,0.0,0.0,0.0,0.0,0.0,0.0,0.0,0.0,0.0,0.0,0.0,0.0,0.0,0.0,0.0,0.0,0.0,0.0,0.0,0.0,0.0,0.0,0.0,0.0,0.0,0.0,0.0,0.0,0.0,0.0,0.0,0.0,0.0,0.0,0.0,0.0,0.0,0.0,0.0,0.0,0.0,0.0,0.0,0.0,0.0,0.0,0.0,0.0,0.0,0.0,0.0,0.0,0.0,0.0,0.0,0.0,0.0,0.0,0.0,0.0,0.0,0.0,0.0,0.0,0.0,0.0,0.0,0.0,0.0,0.0,0.0,0.0,0.0,0.0,0.0,0.0,0.0,0.0,0.0,0.0,0.0,0.0,0.0,0.0,2.1152,2.144,2.2485,0.0,2.4159,2.3657,2.5032,2.2228,2.0388,2.0264,0.0,0.0,0.0,0.0,0.0,0.0,0.0,0.0,0.0,0.0,0.0,0.0,0.0,0.0,0.0,0.0,0.0,0.0,0.0,0.0,0.0,0.0,0.0,0.0,0.0,0.0,0.0,0.0,0.0,0.0,0.0,0.0,0.0,0.0,0.0,0.0,0.0,0.0,0.0,0.0,0.0,0.0,0.0,0.0,0.0,0.0,0.0,0.0,0.0,0.0,0.0,0.0,0.0,0.0,0.0,0.0,0.0,0.0,0.0,0.0,0.0,0.0,0.0,0.0,0.0,0.0,0.0,0.0,0.0,0.0,0.0,0.0,0.0,0.0,0.0,0.0,0.0,0.0,0.0,0.0,0.0,0.0,0.0,0.0,0.0,0.0,0.0,0.0,0.0,0.0,0.0,0.0,0.0,0.0,0.0,0.0,0.0,0.0,0.0,0.0,0.0,0.0,2.1006,2.1344,2.24,2.5277,2.3963,2.3476,2.4873,2.2039,2.0208,0.0,0.0,0.0,0.0,0.0,0.0,0.0,0.0,0.0,0.0,0.0,0.0,0.0,0.0,0.0,0.0,0.0,0.0,0.0,0.0,0.0,0.0,0.0,0.0,0.0,0.0,0.0,0.0,0.0,0.0,0.0,0.0,0.0,0.0,0.0,0.0,0.0,0.0,0.0,0.0,0.0,0.0,0.0,0.0,0.0,0.0,0.0,0.0,0.0,0.0,0.0,0.0,0.0,0.0,0.0,0.0,0.0,0.0,0.0,0.0,0.0,0.0,0.0,0.0,0.0,0.0,0.0,0.0,0.0,0.0,0.0,0.0,0.0,0.0,0.0,0.0,0.0,0.0,0.0,0.0,0.0,0.0,0.0,0.0,0.0,0.0,0.0,0.0,0.0,0.0,0.0,0.0,0.0,0.0,0.0,0.0,0.0,0.0,0.0,0.0,0.0,0.0,0.0,2.1006,2.1287,2.2121,2.4441,2.3597,2.3197,2.3933,2.1678,2.0144,2.006,0.0,0.0,0.0,0.0,0.0,0.0,0.0,0.0,0.0,0.0,0.0,0.0,0.0,0.0,0.0,0.0,0.0,0.0,0.0,0.0,0.0,0.0,0.0,0.0,0.0,0.0,0.0,0.0,0.0,0.0,0.0,0.0,0.0,0.0,0.0,0.0,0.0,0.0,0.0,0.0,0.0,0.0,0.0,0.0,0.0,0.0,0.0,0.0,0.0,0.0,0.0,0.0,0.0,0.0,0.0,0.0,0.0,0.0,0.0,0.0,0.0,0.0,0.0,0.0,0.0,0.0,0.0,0.0,0.0,0.0,0.0,0.0,0.0,0.0,0.0,0.0,0.0,0.0,0.0,0.0,0.0,0.0,0.0,0.0,0.0,0.0,0.0,0.0,0.0,0.0,0.0,0.0,0.0,0.0,0.0,0.0,0.0,0.0,0.0,0.0,0.0,0.0,2.0931,2.1187,2.1883,2.3997,2.3371,2.3005,2.354,2.1462,2.0094,2.0002,0.0,0.0,0.0,0.0,0.0,0.0,0.0,0.0,0.0,0.0,0.0,0.0,0.0,0.0,0.0,0.0,0.0,0.0,0.0,0.0,0.0,0.0,0.0,0.0,0.0,0.0,0.0,0.0,0.0,0.0,0.0,0.0,0.0,0.0,0.0,0.0,0.0,0.0,0.0,0.0,0.0,0.0,0.0,0.0,0.0,0.0,0.0,0.0,0.0,0.0,0.0,0.0,0.0,0.0,0.0,0.0,0.0,0.0,0.0,0.0,0.0,0.0,0.0,0.0,0.0,0.0,0.0,0.0,0.0,0.0,0.0,0.0,0.0,0.0,0.0,0.0,0.0,0.0,0.0,0.0,0.0,0.0,0.0,0.0,0.0,0.0,0.0,0.0,0.0,0.0,0.0,0.0,0.0,0.0,0.0,0.0,0.0,0.0,0.0,0.0,0.0,0.0,2.0829,2.1164,2.1849,2.3781,2.3231,2.2911,2.3454,2.1426,2.0069,2.0002,0.0,0.0,0.0,0.0,0.0,0.0,0.0,0.0,0.0,0.0,0.0,0.0,0.0,0.0,0.0,0.0,0.0,0.0,0.0,0.0,0.0,0.0,0.0,0.0,0.0,0.0,0.0,0.0,0.0,0.0,0.0,0.0,0.0,0.0,0.0,0.0,0.0,0.0,0.0,0.0,0.0,0.0,0.0,0.0,0.0,0.0,0.0,0.0,0.0,0.0,0.0,0.0,0.0,0.0,0.0,0.0,0.0,0.0,0.0,0.0,1.8702,0.0,0.0,0.0,0.0,0.0,0.0,0.0,0.0,0.0,0.0,0.0,0.0,0.0,0.0,0.0,0.0,0.0,0.0,0.0,0.0,0.0,0.0,0.0,0.0,0.0,0.0,0.0,0.0,0.0,0.0,0.0,0.0,0.0,0.0,0.0,0.0,0.0,0.0,0.0,0.0,0.0,2.0894,2.2043,2.2834,2.3119,2.3333,2.3254,2.2705,2.1603,2.067,2.0035,0.0,0.0,0.0,0.0,0.0,0.0,0.0,0.0,0.0,0.0,0.0,0.0,0.0,0.0,0.0,0.0,0.0,0.0,0.0,0.0,0.0,0.0,0.0,0.0,0.0,0.0,0.0,0.0,0.0,0.0,0.0,0.0,0.0,0.0,0.0,0.0,0.0,0.0,0.0,0.0,0.0,0.0,0.0,0.0,0.0,0.0,0.0,0.0,0.0,0.0,0.0,0.0,0.0,0.0,0.0,0.0,0.0,0.0,0.0,0.0,0.0,2.0097,0.0,0.0,0.0,0.0,0.0,0.0,0.0,0.0,0.0,0.0,0.0,0.0,0.0,0.0,0.0,0.0,0.0,0.0,0.0,0.0,0.0,0.0,0.0,0.0,0.0,0.0,0.0,0.0,0.0,0.0,0.0,0.0,0.0,0.0,0.0,0.0,0.0,0.0,0.0,0.0,2.0827,2.2166,2.296,2.2816,2.3275,2.3289,2.2473,2.1671,2.1008,2.0602,1.8843,0.0,0.0,0.0,0.0,0.0,0.0,0.0,0.0,0.0,0.0,0.0,0.0,0.0,0.0,0.0,0.0,0.0,0.0,0.0,0.0,0.0,0.0,0.0,0.0,0.0,0.0,0.0,0.0,0.0,0.0,0.0,0.0,0.0,0.0,0.0,0.0,0.0,0.0,0.0,0.0,0.0,0.0,0.0,0.0,0.0,0.0,0.0,0.0,0.0,0.0,0.0,0.0,0.0,2.3566,2.3988,2.4612,2.4612,2.5052,2.5715,2.3713,2.2978,2.3052,0.0,0.0,0.0,0.0,0.0,0.0,0.0,0.0,0.0,0.0,0.0,0.0,0.0,0.0,0.0,0.0,0.0,0.0,0.0,0.0,0.0,0.0,0.0,0.0,0.0,2.2537,2.2208,0.0,0.0,0.0,0.0,0.0,0.0,0.0,0.0,0.0,0.0,0.0,0.0,2.1127,2.2401,2.3145,2.2892,2.3352,2.334,2.2462,2.1762,2.1329,2.1221,1.9435,1.8217,0.0,0.0,0.0,0.0,0.0,0.0,0.0,0.0,0.0,0.0,0.0,0.0,0.0,0.0,0.0,0.0,0.0,0.0,0.0,0.0,0.0,0.0,0.0,0.0,0.0,0.0,0.0,0.0,0.0,0.0,0.0,0.0,1.6363,1.7165,0.0,0.0,0.0,0.0,0.0,0.0,0.0,0.0,0.0,0.0,0.0,0.0,0.0,0.0,2.3694,2.441,2.487,2.509,2.5786,2.619,2.6282,2.6282,2.6722,2.7457,2.7145,0.0,2.4025,2.3694,0.0,0.0,0.0,0.0,0.0,0.0,0.0,0.0,0.0,0.0,0.0,0.0,0.0,0.0,0.0,0.0,0.0,0.0,0.0,0.0,0.0,0.0,2.4944,2.4944,2.5456,2.5713,0.0,2.2868,2.1288,2.1161,1.9968,0.0,0.0,0.0,0.0,0.0,0.0,0.0,2.2729,2.4069,2.4549,2.3663,2.4091,2.3871,2.2429,2.2226,2.187,2.1254,2.0933,1.9858,1.7873,1.7439,0.0,0.0,0.0,0.0,0.0,0.0,0.0,0.0,0.0,0.0,0.0,0.0,0.0,0.0,0.0,0.0,0.0,0.0,0.0,0.0,0.0,0.0,0.0,0.0,0.0,0.0,0.0,0.0,0.0,1.6471,1.8195,1.8572,1.9541,1.9989,0.0,0.0,0.0,0.0,0.0,0.0,0.0,0.0,0.0,2.3805,2.4593,2.5199,2.5548,2.6337,2.6979,2.7438,2.8246,2.887,2.9292,2.9292,2.9494,2.9806,2.9806,2.8962,2.7475,2.6117,2.4869,2.3786,0.0,0.0,0.0,0.0,2.3144,2.3144,2.3144,2.318,0.0,0.0,0.0,0.0,0.0,0.0,0.0,0.0,0.0,0.0,0.0,0.0,0.0,2.6062,2.6337,2.6502,2.6153,2.5236,2.4098,0.0,2.1877,2.1311,2.1114,0.0,0.0,0.0,0.0,0.0,2.3063,2.4624,2.5345,2.4367,2.4424,2.4113,2.3004,2.2547,2.2175,2.1837,2.1414,2.0737,1.9739,1.8488,1.7376,0.0,0.0,0.0,0.0,0.0,0.0,0.0,0.0,0.0,0.0,0.0,0.0,0.0,0.0,0.0,0.0,0.0,0.0,0.0,0.0,0.0,0.0,0.0,0.0,0.0,0.0,0.0,0.0,1.8059,1.9517,1.9785,2.1165,2.1767,0.0,0.0,0.0,0.0,0.0,0.0,2.3566,2.4373,2.5273,2.6282,2.6906,2.742,2.7824,2.8411,2.9017,2.9622,3.0228,3.0815,3.1384,3.1384,3.1513,3.1715,3.1715,3.1366,3.065,2.8429,2.7053,2.6245,2.5658,2.5438,2.5438,2.5438,2.5438,2.5438,2.5438,2.5823,2.6153,2.5162,0.0,2.6355,2.4961,0.0,0.0,0.0,0.0,2.6759,2.7365,2.7677,2.7824,2.7824,2.7824,2.7824,2.7824,2.7824,2.7053,0.0,2.3749,2.3381,2.2647,0.0,0.0,0.0,0.0,2.3774,2.397,2.5229,2.5824,2.5107,2.4717,2.4188,2.346,2.2733,2.231,2.231,2.1786,2.1397,2.1221,1.9367,1.82,1.789,0.0,0.0,0.0,0.0,0.0,0.0,0.0,0.0,0.0,0.0,0.0,0.0,0.0,0.0,0.0,0.0,0.0,0.0,0.0,0.0,0.0,0.0,0.0,0.0,0.0,0.0,0.0,0.0,0.0,2.113,2.2245,0.0,0.0,0.0,0.0,2.2832,2.3621,2.4428,2.5237,2.6043,2.72,2.8755,2.8847,2.9622,3.1127,3.1201,3.1237,3.1274,3.1311,3.1347,3.1384,3.1384,3.1825,3.254,3.254,3.2522,3.2357,3.0705,2.9549,2.881,2.8755,2.8755,2.8755,2.8755,2.8755,2.8755,2.8755,2.8773,2.892,2.9622,2.9898,2.9806,2.8962,2.8718,0.0,0.0,2.8778,2.9971,3.0008,3.0577,3.1146,3.1146,3.1146,3.1146,3.1146,3.1146,3.021,0.0,2.5805,2.5234,2.5056,0.0,2.4042,2.4563,2.4587,2.4999,2.6272,2.6219,2.6031,2.5843,2.504,2.4188,2.346,2.2733,2.231,2.231,2.2276,2.1921,2.1237,2.0365,1.9224,1.7845,1.6387,0.0,0.0,0.0,0.0,0.0,0.0,0.0,0.0,0.0,0.0,0.0,0.0,0.0,0.0,0.0,0.0,0.0,0.0,0.0,0.0,0.0,0.0,0.0,0.0,0.0,0.0,0.0,0.0,2.3009,2.3947,0.0,0.0,2.4887,2.5016,2.5309,2.5585,2.6319,2.7658,2.7989,2.8888,3.0485,3.054,3.0815,3.1384,3.1916,3.2173,3.2173,3.2706,3.2944,3.2944,3.2944,3.3091,3.3366,3.3366,3.3366,3.333,3.2761,3.1733,3.054,3.054,3.054,3.054,3.054,3.054,3.054,3.054,3.054,3.0595,3.087,3.0962,3.0907,3.0632,3.054,3.0485,3.0191,3.0522,3.0962,3.0962,3.1182,3.1384,3.1384,3.1384,3.1384,3.1384,3.1384,3.1054,2.9898,2.8613,2.7361,2.6231,2.575,2.5594,2.5687,2.5991,2.6328,2.6674,2.69,2.6926,2.6771,2.5422,2.4465,2.4194,2.3016,2.231,2.231,2.231,2.2192,2.1921,2.1177,2.0281,1.9241,1.7883,1.6846,0.0,0.0,0.0,0.0,0.0,0.0,0.0,0.0,0.0,0.0,0.0,0.0,0.0,0.0,0.0,0.0,0.0,0.0,0.0,0.0,0.0,0.0,0.0,0.0,0.0,0.0,2.3231,2.3842,2.5045,2.5855,2.5987,2.6365,2.675,2.715,2.7336,2.805,2.9521,2.9734,3.043,3.1751,3.1806,3.1935,3.221,3.2742,3.2999,3.3018,3.355,3.3807,3.3807,3.3807,3.3807,3.3807,3.3807,3.3807,3.3807,3.3807,3.3164,3.221,3.221,3.221,3.221,3.221,3.221,3.221,3.221,3.221,3.221,3.221,3.221,3.2155,3.188,3.199,3.2137,3.188,3.199,3.221,3.221,3.221,3.221,3.221,3.221,3.221,3.221,3.221,3.2118,3.1861,3.0522,2.9049,2.7922,2.7456,2.7205,2.7042,2.7324,2.7486,2.7289,2.7432,2.7509,2.7324,2.5983,2.4992,2.4722,2.3505,2.2604,2.2355,2.231,2.231,2.2338,2.1637,2.0993,2.0493,1.8893,1.7618,1.6718,0.0,0.0,0.0,0.0,0.0,0.0,0.0,0.0,0.0,0.0,0.0,0.0,0.0,0.0,0.0,0.0,0.0,0.0,0.0,0.0,0.0,0.0,0.0,2.2214,2.3088,2.3616,2.3607,2.5368,2.6151,2.4995,2.5994,2.7132,2.8252,2.8779,2.9575,3.0746,3.119,3.1763,3.2588,3.2625,3.2991,3.3762,3.3788,3.3788,3.3762,3.3788,3.3807,3.3807,3.3807,3.3807,3.3807,3.3807,3.3807,3.3807,3.3807,3.3807,3.3807,3.3807,3.3807,3.3807,3.3807,3.3807,3.3807,3.3807,3.3807,3.3807,3.3807,3.3807,3.3642,3.2871,3.3183,3.3642,3.2871,3.3201,3.3807,3.3807,3.3807,3.3807,3.3807,3.3807,3.3807,3.3807,3.3807,3.3568,3.2797,3.1366,3.0241,3.0119,2.9436,2.8852,2.8637,2.8562,0.0,2.8154,2.7864,2.7642,2.7526,2.6662,2.5781,2.4986,2.4122,2.3266,2.2456,2.2338,2.2338,2.2377,2.1735,2.1361,2.1396,1.9349,1.7626,1.6343,0.0,0.0,0.0,0.0,0.0,0.0,0.0,0.0,0.0,0.0,0.0,0.0,0.0,0.0,0.0,0.0,0.0,0.0,0.0,0.0,0.0,0.0,2.2218,2.2674,2.365,2.4694,2.5701,2.632,2.6782,2.7014,2.7825,2.8477,2.8792,2.9419,3.0214,3.1102,3.1278,3.1846,3.2987,3.3052,3.3143,3.3361,3.3634,3.3634,3.3361,3.3652,3.3807,3.3807,3.3807,3.3807,3.3807,3.3807,3.3807,3.3807,3.3807,3.3807,3.3807,3.3807,3.3807,3.3807,3.3807,3.3807,3.3807,3.3807,3.3807,3.3807,3.3807,3.3807,3.3752,3.3532,3.3623,3.3752,3.3532,3.3623,3.3807,3.3807,3.3807,3.3807,3.3807,3.3807,3.3807,3.3807,3.3807,3.3733,3.3513,3.2651,3.1543,3.0369,2.996,2.9564,2.8907,2.8718,0.0,2.8484,2.8045,2.7789,2.7858,2.6877,2.5895,2.504,2.432,2.3433,2.2372,2.231,2.231,2.2338,2.2339,2.2107,2.1621,2.0312,1.9613,0.0,0.0,0.0,0.0,0.0,0.0,0.0,0.0,0.0,0.0,0.0,0.0,0.0,0.0,0.0,0.0,0.0,0.0,0.0,0.0,0.0,0.0,2.1721,2.2917,2.388,2.4741,2.5543,2.6363,2.6891,2.7441,2.804,2.8664,2.9175,2.9621,3.0254,3.0853,3.1494,3.1696,3.2136,3.2872,3.2921,3.2921,3.2921,3.3136,3.3225,3.3214,3.3437,3.3652,3.3807,3.3807,3.3807,0.0,3.3807,3.3807,3.3807,3.3807,3.4009,0.0,0.0,0.0,0.0,0.0,3.4541,3.4853,3.4853,3.4853,3.4798,3.4431,3.4302,3.4247,3.3899,3.3807,3.3807,3.3807,3.3807,3.3807,3.3807,3.3807,3.3807,3.3807,3.3807,3.3807,3.3807,3.3807,3.3807,3.3807,3.3421,0.0,3.1421,3.0607,2.9978,2.9496,2.9059,2.8743,2.8644,2.8362,2.8156,2.8192,2.7573,2.6767,2.5732,2.4965,0.0,0.0,0.0,2.231,2.2338,2.2517,0.0,0.0,0.0,0.0,0.0,0.0,0.0,0.0,1.992,2.0501,0.0,0.0,0.0,0.0,0.0,0.0,0.0,0.0,0.0,0.0,0.0,0.0,0.0,0.0,0.0,0.0,2.2884,2.3702,2.5353,2.5959,2.6226,2.6165,2.7098,2.7905,2.8313,2.8722,2.9432,3.0473,3.0992,3.1409,3.1718,0.0,0.0,0.0,0.0,3.2417,3.2417,3.2484,3.2681,3.3045,3.3136,3.339,3.3753,3.3872,3.3935,3.3935,3.4045,3.4082,3.4082,3.4082,3.4504,3.5064,3.4357,3.4082,3.4174,3.4862,3.5642,3.6303,3.6303,0.0,0.0,3.5404,3.5137,3.5018,3.4192,3.3935,3.3917,3.3825,3.3807,3.3807,3.3807,3.3807,3.3807,3.3807,3.3807,3.3807,3.3807,3.3807,3.3807,3.3807,3.3807,3.3568,3.2871,3.1494,3.0387,3.0137,2.9496,2.8973,2.8761,2.8644,2.8587,2.8543,0.0,0.0,2.6672,2.593,2.4985,2.3671,2.2852,2.2415,2.2497,2.2552,2.2297,2.1678,2.1713,2.1428,2.0846,2.1268,2.2117,2.3288,2.2535,2.2726,0.0,0.0,0.0,0.0,0.0,0.0,0.0,0.0,0.0,0.0,0.0,0.0,0.0,0.0,0.0,2.233,2.3901,2.5195,2.5541,2.6182,2.6604,2.6571,2.6788,2.7196,2.7844,2.8578,2.931,3.0119,3.0844,3.1236,3.1312,3.1389,0.0,3.1933,3.1933,3.1933,3.1933,3.2316,3.235,3.2092,0.0,0.0,3.335,3.4329,3.4752,3.4807,3.5514,3.5826,3.5826,3.5826,3.5899,3.6028,3.5881,3.5826,3.5844,3.5991,3.6156,3.6303,3.6303,3.6303,3.6266,3.6101,3.6046,3.5899,3.5037,3.4752,0.0,3.399,3.3807,3.3807,3.3807,3.3807,3.3807,3.3807,3.3807,3.3807,3.3807,3.3807,3.3807,3.3807,3.3807,3.3752,3.3587,3.2779,3.1696,3.0369,3.0039,2.9709,2.902,2.8651,2.8533,2.8737,2.8533,2.8018,2.7056,2.6936,2.6144,2.4337,2.346,2.3038,2.3038,2.3063,2.3112,2.324,2.3637,2.3721,2.3555,2.4581,2.4942,2.4622,2.3715,2.41,0.0,0.0,0.0,0.0,0.0,0.0,0.0,0.0,0.0,0.0,0.0,2.0808,0.0,0.0,2.3198,2.3952,2.4913,2.5744,2.6099,2.6471,2.6691,2.6691,2.6691,2.7148,2.8298,2.8755,2.9448,3.0565,3.0987,3.119,3.119,3.119,3.1291,3.1507,3.1507,3.1507,3.1507,3.1714,3.1842,3.1825,3.2264,3.2598,3.2876,3.3854,3.4449,3.475,3.5569,3.6072,3.6321,3.6431,3.6675,3.6927,3.7033,3.7022,3.689,3.689,3.7147,3.7496,3.7496,3.7496,3.7422,3.7019,3.689,3.6725,3.5899,3.5367,3.4917,3.4523,3.4119,3.3807,3.3807,3.3807,3.3807,3.3807,3.3807,3.3807,3.3807,3.3807,3.3807,3.3807,3.3807,3.3807,3.3807,3.3476,3.2651,3.1035,3.0467,2.9916,2.9085,2.8839,2.8749,2.8881,2.8791,2.8445,2.781,2.7312,2.6451,2.5088,2.424,2.3974,2.4389,2.401,2.4064,2.4622,2.4895,2.4992,2.4966,2.5721,2.6135,2.6145,2.584,2.5977,0.0,0.0,0.0,0.0,0.0,0.0,0.0,0.0,1.9981,2.0729,2.1445,2.2151,2.286,2.3482,2.4296,2.5501,2.5759,2.6031,2.6607,2.6691,2.6691,2.6691,2.6691,2.73,2.8839,2.9011,2.96,3.1089,3.119,3.119,3.119,3.119,3.119,3.119,3.119,3.119,3.119,3.119,3.1351,3.1696,3.1752,3.2074,3.2519,3.3421,3.4135,3.4645,3.5551,3.6227,3.6632,3.6852,3.7271,3.7741,3.7845,3.7816,3.7716,3.7716,3.8138,3.8707,3.8707,3.8707,3.8597,3.7936,3.7716,3.7569,3.678,3.5936,3.521,3.5045,3.4431,3.3807,3.3807,3.3807,3.3807,3.3807,3.3807,3.3807,3.3807,3.3807,3.3807,3.3807,3.3807,3.3807,3.3807,3.3807,3.3311,3.1843,3.0944,3.0136,2.9347,2.9085,2.8994,2.8994,2.8994,2.8863,2.854,2.7589,2.6675,2.5997,2.5229,2.5087,2.5668,2.514,2.5135,2.5761,2.5947,2.5986,2.5918,2.6411,2.6922,2.7439,2.7994,2.7973,1.7388,1.8161,1.8937,1.9648,1.9819,1.986,0.0,0.0,2.1576,2.2089,2.2968,2.377,2.4224,2.4879,2.5406,2.5575,2.615,2.6607,2.6674,2.6691,2.6691,2.6691,2.6691,2.73,2.8839,2.9011,2.96,3.1089,3.119,3.119,3.119,3.119,3.119,3.119,3.119,3.119,3.119,3.119,3.123,3.1252,3.164,3.2074,3.257,3.4004,3.492,3.5461,3.6991,3.7675,3.7727,3.7731,3.8089,3.853,3.8062,3.8162,3.8579,3.8579,3.8615,3.8707,3.8707,3.8707,3.8689,3.8597,3.8579,3.8414,3.7606,3.6798,3.5991,3.521,3.4431,3.3807,3.3807,3.3807,3.3807,3.3807,3.3807,3.3807,3.3807,3.3807,3.3807,3.3807,3.3807,3.3807,3.3807,3.3807,3.3495,3.2614,3.1788,3.098,3.0173,2.9457,2.8994,2.8994,2.8994,2.8994,2.8929,2.8155,2.7533,2.7133,2.6631,2.6271,2.6056,2.6249,2.6399,2.649,2.7185,2.7378,2.7018,2.813,2.8408,2.7857,2.9282,2.9886,1.8721,1.9326,1.9781,0.0,2.0781,2.09,2.1368,2.2095,2.2884,2.3493,2.4288,2.4948,2.5116,2.5744,2.6234,0.0,2.6488,2.6691,2.6691,2.6691,2.6539,2.6116,2.6437,2.7114,2.8197,2.8721,2.9414,3.048,3.0954,3.119,3.119,3.119,3.119,3.119,3.119,3.119,3.119,3.119,3.119,3.119,3.1389,3.1545,3.1765,3.3321,3.4735,3.6086,3.7075,3.7506,3.7506,3.7506,3.7773,3.8216,3.798,3.8216,3.8707,3.8707,3.8707,3.8707,3.8707,3.8707,3.8707,3.8707,3.8707,3.8634,3.8303,3.7312,3.6211,3.5862,3.4816,3.3807,3.3807,3.3807,3.3807,3.3807,3.3807,3.3807,3.3807,3.3807,3.3807,3.3807,3.3807,3.3807,3.3807,3.3807,3.3697,3.3348,3.2614,3.1641,3.0356,2.9916,2.9531,2.9049,2.8994,2.8994,2.8994,2.8705,2.8439,2.8304,2.7665,2.7449,2.7775,2.7464,2.753,2.8007,2.8338,2.8416,2.8239,2.8764,2.9077,2.9246,2.9905,3.0705,1.9815,0.0,0.0,2.1549,2.183,2.1938,2.2479,2.3021,2.3545,2.41,2.4611,2.5067,2.527,2.5727,2.615,2.6353,2.6387,2.6471,2.6657,2.6522,2.6268,2.5947,2.6201,2.6691,2.7435,2.8213,2.9076,3.004,3.0598,3.0987,3.119,3.119,3.119,3.119,3.119,3.119,3.119,3.119,3.119,3.119,3.119,3.1252,3.144,3.29,3.4528,3.6162,3.6855,3.7285,3.7396,3.7396,3.7703,3.8099,3.7946,3.8216,3.8707,3.8707,3.8707,3.8707,3.8707,3.8707,3.8707,3.8707,3.8707,3.8707,3.8707,3.7588,3.6303,3.6303,3.5092,3.3807,3.3807,3.3807,3.3807,3.3807,3.3807,3.3807,3.3807,3.3807,3.3807,3.3807,3.3807,3.3807,3.3807,3.3807,3.3807,3.3807,3.3311,3.243,3.1035,3.0467,2.9898,2.9085,2.8994,2.8994,2.8994,2.8994,2.8994,2.8994,2.8448,2.8393,2.8975,2.8448,2.8411,2.8975,2.8994,2.9104,2.9347,2.9347,2.9751,3.054,3.076,3.1494,0.0,0.0,2.1273,2.2924,2.3325,2.3325,2.3359,2.3376,2.341,2.3427,2.3444,2.368,2.4421,2.4557,2.478,2.5524,2.5642,2.5879,2.659,2.6082,2.5896,2.6573,2.6065,2.593,0.0,2.7402,2.8484,3.0006,3.0125,3.0446,3.1157,3.119,3.119,3.119,3.119,3.119,3.119,3.119,3.119,3.119,3.119,3.1411,3.1841,3.3377,3.454,3.5422,3.6664,3.747,3.7859,3.7859,3.8183,3.8627,3.8099,3.8216,3.8707,3.8707,3.8707,3.8707,3.8707,3.8707,3.8707,3.8707,3.8707,3.8707,3.8707,3.7588,3.6303,3.6303,3.5092,3.3807,3.3807,3.3807,3.3807,3.3807,3.3807,3.3807,3.3807,3.3807,3.3807,3.3807,3.3807,3.3807,3.3807,3.3807,3.3807,3.3807,3.377,3.3458,3.2632,3.1182,2.9898,2.9085,2.8994,2.8994,2.8994,2.8994,2.8994,2.8994,2.8975,2.8957,2.8994,2.8975,2.8975,2.8994,2.8994,2.936,3.0173,3.0173,3.0577,3.1366,3.2173,3.2559,2.0409,0.0,2.2242,2.2801,2.318,2.3528,2.4002,2.3748,2.3528,2.4019,2.412,2.4218,2.4472,2.4506,2.4729,2.549,2.5609,2.5862,2.659,2.6488,2.6234,2.5998,2.6184,0.0,0.0,0.0,0.0,2.9279,2.982,3.0429,3.1157,3.119,3.119,3.119,3.119,3.119,3.119,3.119,3.119,3.119,3.119,3.1545,3.2178,3.3162,3.4072,3.4848,3.611,3.6764,3.6943,3.7596,3.8032,3.8183,3.835,3.8546,3.8707,3.8707,3.8707,3.8707,3.8707,3.8707,3.8707,3.8707,3.8707,3.8707,3.8707,3.7955,3.6964,3.645,3.5477,3.4486,3.3935,3.3807,3.3807,3.3807,3.3807,3.3807,3.3807,3.3807,3.3807,3.3807,3.3807,3.3807,3.3807,3.3807,3.3807,3.3807,3.3348,3.2926,3.2632,3.1201,3.0099,2.9843,2.9305,2.8994,2.8994,2.8994,2.8994,2.8994,2.8994,2.8994,2.8994,2.8994,2.8994,2.8994,2.9531,2.9934,3.021,3.0742,3.1403,3.221,3.2485,3.2908,2.0762,2.1632,2.2411,2.2736,2.3062,2.34,2.3756,2.3469,2.3248,2.3604,2.3714,2.3714,2.3667,2.3714,2.4036,2.5033,2.5203,2.5558,2.6556,2.6471,2.6234,2.6031,2.6404,2.6623,0.0,0.0,0.0,2.8941,2.9685,3.0429,3.1157,3.119,3.119,3.119,3.119,3.119,3.119,3.119,3.119,3.119,3.119,3.1444,3.1918,3.2662,3.3515,3.4455,3.5525,3.6342,3.6981,3.7631,3.8013,3.8216,3.8578,3.8707,3.8707,3.8707,3.8707,3.8707,3.8707,3.8707,3.8707,3.8707,3.8707,3.8707,3.8707,3.8138,3.7342,3.6523,3.5679,3.4807,3.4009,3.3807,3.3807,3.3807,3.3807,3.3807,3.3807,3.3807,3.3807,3.3807,3.3807,3.3807,3.3807,3.3807,3.3807,3.3807,3.3366,3.2926,3.2651,3.1715,3.0852,3.0265,2.9989,2.9751,2.9457,2.9696,2.9861,2.9861,2.9861,2.9861,2.9861,2.9861,2.9861,2.9861,3.0375,3.0779,3.1072,3.1586,3.2247,3.3036,3.3036,3.3311,2.1476,2.1837,2.1992,2.2837,2.3067,2.3015,2.2752,2.265,2.2529,2.2195,2.2175,2.2203,0.0,0.0,2.2733,2.4188,2.4489,2.4983,2.6437,2.6116,2.5981,0.0,0.0,0.0,0.0,0.0,0.0,2.9042,0.0,3.0429,3.1157,3.119,3.119,3.119,3.119,3.119,3.119,3.119,3.119,3.119,3.119,3.123,3.1247,3.1975,3.3009,3.4206,3.5005,3.63,3.7839,3.7928,3.8234,3.8707,3.8707,3.8707,3.8707,3.8707,3.8707,3.8707,3.8707,3.8707,3.8707,3.8707,3.8707,3.8707,3.8707,3.8175,3.7386,3.6541,3.5716,3.4862,3.4027,3.3807,3.3807,3.3807,3.3807,3.3807,3.3807,3.3807,3.3807,3.3807,3.3807,3.3807,3.3807,3.3815,3.3815,3.3815,3.3842,3.3566,3.2761,3.2632,3.2027,3.0485,3.0962,3.1091,3.0338,3.0962,3.1384,3.1384,3.1384,3.1384,3.1384,3.1384,3.1384,3.1384,3.1439,3.1843,3.2614,3.2651,3.3054,3.3807,3.3807,3.3807,2.1295,2.2191,2.2892,2.2623,2.2853,2.2946,2.2376,2.1988,2.1559,2.0986,2.1026,2.1217,0.0,0.0,0.0,2.3384,2.4107,0.0,2.5744,2.6674,0.0,2.752,0.0,2.8484,2.867,2.9381,0.0,0.0,2.9989,3.0429,3.1157,3.119,3.119,3.119,3.119,3.119,3.119,3.119,3.119,3.119,3.119,3.1351,3.1694,3.2469,3.3164,3.3864,3.5598,3.6592,3.7081,3.8095,3.8596,3.8707,3.8707,3.8707,3.8707,3.8707,3.8707,3.8707,3.8707,3.8707,3.8707,3.8707,3.8707,3.8707,3.8707,3.856,3.8102,3.6688,3.6138,3.5624,3.4174,3.3807,3.3807,3.3807,3.3807,3.3807,3.3807,3.3807,3.3807,3.3807,3.3807,3.3807,3.3807,3.3961,3.4099,3.4099,3.4307,3.4232,3.3592,3.2981,3.2449,3.2045,3.1641,3.1311,3.1109,3.1274,3.1384,3.1384,3.1384,3.1384,3.1384,3.1384,3.1384,3.1384,3.199,3.2412,3.2614,3.3201,3.3605,3.3807,3.3807,3.3807,2.1736,2.2476,2.2928,2.2271,2.2293,2.2274,2.1571,2.099,2.0571,2.0424,2.0372,0.0,2.0377,0.0,0.0,0.0,0.0,0.0,2.5456,2.659,2.7452,0.0,2.8518,0.0,2.9448,3.0159,3.0581,0.0,3.0581,3.0768,3.1173,3.119,3.119,3.119,3.119,3.119,3.119,3.119,3.119,3.119,3.119,3.1312,3.1562,3.2182,3.2804,3.3423,0.0,3.6177,3.6793,3.7889,3.8496,3.8707,3.8707,3.8707,3.867,3.8303,3.8395,3.8652,3.8303,3.8395,3.8707,3.8707,3.8707,3.8707,3.8707,3.8707,3.8358,3.6743,3.6303,3.5899,3.4247,3.3807,3.3807,3.3807,3.3807,3.3807,3.3807,3.3807,3.3807,3.3807,3.3807,3.3842,3.3961,3.4099,3.4246,3.4401,3.4572,3.4591,3.4232,3.3817,3.339,3.2999,3.2887,3.2705,3.2315,3.2631,3.2785,3.2643,3.2619,3.2588,3.2449,3.2449,3.2449,3.2449,3.2908,3.3128,3.3128,3.3587,3.3807,3.3807,3.3807,3.3807,2.2244,2.2589,2.2413,2.1844,2.1635,2.137,2.057,1.995,1.9673,2.0084,0.0,1.9479,1.9419,1.9584,2.0233,2.1748,0.0,2.3691,2.5222,2.6167,2.7012,2.7875,2.8653,2.9431,3.0176,3.0818,3.119,3.119,3.119,3.119,3.119,3.119,3.119,3.119,3.119,3.119,3.119,3.119,3.119,3.119,3.119,3.123,3.1291,3.1623,3.2262,3.3103,0.0,0.0,3.657,3.7455,3.8136,3.856,3.867,3.8634,3.8469,3.7753,3.7863,3.8285,3.7569,3.779,3.8414,3.8634,3.8707,3.8707,3.8707,3.8634,3.823,3.6725,3.6211,3.5771,3.4211,3.3807,3.3807,3.3807,3.3807,3.3807,3.3807,3.3807,3.3807,3.3807,3.3807,3.3876,3.4152,3.4242,3.4379,3.4714,3.4774,3.4812,3.4812,3.4734,3.4411,3.3658,3.4261,3.4373,3.3658,3.428,3.4572,3.4269,3.4288,3.4147,3.3928,3.3902,3.3902,3.3902,3.3902,3.3902,3.3902,3.385,3.3868,3.3868,3.3815,3.3807,2.165,2.1859,2.1844,2.1724,2.1291,2.0715,2.0086,1.9648,0.0,0.0,1.8599,1.8388,1.8424,1.8649,1.9292,2.0739,0.0,0.0,0.0,0.0,2.7215,0.0,0.0,0.0,0.0,0.0,0.0,0.0,0.0,3.119,3.119,3.119,3.119,3.119,3.119,3.119,3.119,3.119,3.119,3.119,3.119,3.1372,3.1696,3.1789,3.23,3.3203,3.4087,0.0,3.5418,3.6948,3.7619,3.7753,3.8432,3.8285,3.7679,3.7562,3.7165,3.6688,3.656,3.6597,3.6945,3.8267,3.8707,3.8707,3.8707,3.823,3.7496,3.656,3.5789,3.5018,3.4045,3.3807,3.3807,3.3807,3.3807,3.3807,3.3807,3.3807,3.3807,3.3807,3.3807,3.3876,3.4152,3.4423,3.4714,3.4981,3.5223,3.5369,3.5369,3.4981,3.4637,3.4486,3.46,3.4637,3.4486,3.46,3.4674,3.4632,3.4593,3.4572,3.4548,3.4548,3.4548,3.4548,3.4548,3.4548,3.4548,3.4265,3.4123,3.4123,3.3902,3.3807,2.1436,2.1655,2.162,2.1276,2.0946,2.049,1.9562,0.0,0.0,0.0,1.7697,1.7458,1.7604,1.7798,0.0,0.0,0.0,0.0,0.0,0.0,0.0,0.0,0.0,0.0,0.0,0.0,0.0,0.0,0.0,3.119,3.119,3.119,3.119,3.119,3.119,3.119,3.119,3.119,3.119,3.119,3.119,3.1291,3.1507,3.1679,3.2196,3.2894,3.3921,0.0,3.5082,3.6358,3.6872,3.6909,3.7294,3.7221,3.6817,3.6376,3.6248,3.6229,3.5789,3.5917,3.6431,3.7202,3.7441,3.7441,3.7441,3.7184,3.6688,3.5862,3.5302,3.4807,3.4009,3.3807,3.3807,3.3807,3.3807,3.3807,3.3807,3.3807,3.3807,3.3807,3.3928,3.4117,3.4401,3.4695,3.4999,3.5273,3.5417,3.5493,3.5493,3.5273,3.5122,3.5122,3.5122,3.5122,3.5122,3.5122,3.507,3.4926,3.4908,3.4851,3.4713,3.4694,3.4694,3.4694,3.4694,3.4694,3.4694,3.4529,3.4445,3.4464,3.433,3.4279,2.1134,2.1208,2.1054,2.0774,2.0602,2.022,1.9209,1.852,0.0,0.0,1.697,1.6655,1.6959,0.0,1.7338,0.0,1.9644,0.0,0.0,0.0,0.0,0.0,0.0,0.0,0.0,0.0,0.0,0.0,0.0,0.0,3.119,3.119,3.119,3.119,3.119,3.119,3.119,3.119,3.119,3.119,3.119,3.119,3.123,3.1545,3.1933,3.2419,3.3405,0.0,0.0,3.5546,3.5952,3.6046,3.6229,3.6193,3.5936,3.5247,3.533,3.5661,3.5,3.5202,3.5752,3.5752,3.6009,3.6303,3.6303,3.6174,3.5881,3.5174,3.4862,3.4614,3.3972,3.3807,3.3807,3.3807,3.3807,3.3807,3.3807,3.3842,3.3876,3.3876,3.4117,3.4401,3.4734,3.4963,3.519,3.546,3.5493,3.5493,3.5493,3.5493,3.5493,3.5493,3.5493,3.5493,3.5493,3.5493,3.5417,3.5207,3.519,3.5088,3.4889,3.487,3.487,3.487,3.487,3.487,3.487,3.4813,3.4793,3.4774,3.4733,3.4694,2.0466,1.9979,1.94,2.0444,2.0243,1.9636,1.9137,0.0,0.0,1.7492,1.6501,1.593,1.67,1.6443,1.6548,1.7929,0.0,2.0262,0.0,0.0,0.0,0.0,0.0,0.0,0.0,0.0,0.0,0.0,0.0,0.0,3.119,3.119,3.119,3.119,3.119,3.119,3.119,3.119,3.119,3.119,3.119,3.119,3.119,3.123,3.1487,3.1861,3.2054,0.0,0.0,3.422,3.4793,3.5192,3.5991,3.5826,3.51,3.5027,3.4596,3.4027,3.3935,3.3954,3.4027,3.4027,3.5055,3.6303,3.6303,3.5752,3.5082,3.5009,3.4486,3.3899,3.3825,3.3807,3.3807,3.3807,3.3807,3.3807,3.3807,3.3986,3.4152,3.4152,3.4442,3.4734,3.5016,3.5088,3.519,3.546,3.5493,3.5493,3.5493,3.5493,3.5493,3.5493,3.5493,3.5493,3.5493,3.5493,3.5493,3.546,3.546,3.5446,3.5432,3.5432,3.5432,3.5432,3.5432,3.5432,3.5432,3.519,3.507,3.507,3.4813,3.4694,1.8602,1.8821,1.904,1.9505,1.9353,1.8961,1.8386,0.0,1.7167,1.6265,1.5785,1.5666,1.601,1.5967,1.6217,1.7326,1.816,1.9164,2.0494,0.0,0.0,0.0,0.0,0.0,0.0,0.0,0.0,0.0,0.0,0.0,2.9871,3.0717,3.119,3.119,3.119,3.119,3.119,3.119,3.119,3.119,3.119,3.119,3.119,3.119,3.1411,3.1789,3.1842,0.0,0.0,3.3557,3.3909,3.4321,3.4669,3.4578,3.4284,3.4284,3.4082,3.3807,3.3807,3.3807,3.3807,3.3807,3.4247,3.4798,3.4798,3.4559,3.4284,3.4284,3.4045,3.3807,3.3807,3.3807,3.3807,3.3807,3.3807,3.3807,3.3807,3.3993,3.42,3.42,3.4595,3.4981,3.5088,3.5223,3.5369,3.5493,3.5493,3.5493,3.5493,3.5493,3.5493,3.5493,3.5493,3.5493,3.5493,3.5493,3.5493,3.5493,3.5493,3.5493,3.5493,3.5493,3.5493,3.5493,3.5493,3.5493,3.5493,3.5383,3.5354,3.5354,3.5223,3.5439,1.7344,1.7918,1.855,1.8849,1.8796,1.8557,0.0,1.7212,1.6393,1.54,1.4999,1.4914,1.52,1.5352,1.5695,1.6531,1.7452,1.8426,1.9485,2.0623,0.0,0.0,0.0,0.0,0.0,0.0,0.0,0.0,0.0,0.0,0.0,2.9973,3.0649,3.0869,3.1089,3.119,3.119,3.119,3.119,3.119,3.119,3.119,3.119,3.119,3.1351,3.1623,0.0,0.0,0.0,3.2952,3.3225,3.3634,3.3734,3.3807,3.3807,3.3807,3.3807,3.3807,3.3807,3.3807,3.3807,3.3807,3.3807,3.3807,3.3807,3.3807,3.3807,3.3807,3.3807,3.3807,3.3807,3.3807,3.3807,3.3807,3.3807,3.3807,3.3807,3.3993,3.4223,3.4334,3.4755,3.5122,3.5207,3.5369,3.5493,3.5493,3.5493,3.5493,3.5493,3.5493,3.5493,3.5493,3.5493,3.5493,3.5493,3.5493,3.5493,3.5493,3.5493,3.5493,3.5493,3.5493,3.5493,3.5493,3.5493,3.5493,3.5493,3.5493,3.5493,3.5493,3.5493,3.6084,1.7117,1.7395,1.7646,1.8659,1.8796,1.8557,1.7932,1.6819,1.5775,1.5308,1.4144,1.3466,1.4257,1.4522,1.4837,1.551,1.6959,1.8275,1.9102,2.0538,0.0,0.0,0.0,0.0,0.0,0.0,0.0,0.0,0.0,0.0,0.0,2.8991,2.9347,3.0091,3.0818,3.119,3.119,3.119,3.119,3.119,3.119,3.119,3.119,3.119,3.119,0.0,0.0,0.0,0.0,3.2316,3.2777,3.3243,3.3634,3.3807,3.3807,3.3807,3.3807,3.3807,3.3807,3.3807,3.3807,3.3807,3.3807,3.3807,3.3807,3.3807,3.3807,3.3807,3.3807,3.3807,3.3807,3.3807,3.3807,3.3807,3.3807,3.3807,3.3807,3.3993,3.4311,3.4632,3.4926,3.519,3.5446,3.5493,3.5493,3.5493,3.5493,3.5493,3.5493,3.5493,3.5493,3.5493,3.5493,3.5493,3.5493,3.5493,3.5493,3.5493,3.5493,3.5493,3.5493,3.5493,3.5493,3.5493,3.5493,3.5493,3.5493,3.5493,3.5493,3.5493,3.5493,3.6392,1.4902,1.5782,1.6706,1.7155,1.7199,1.6984,1.6427,1.571,1.4863,1.3858,1.3413,1.3413,1.4132,1.4366,1.4837,1.6009,1.6639,1.7284,0.0,0.0,0.0,0.0,0.0,0.0,0.0,0.0,0.0,0.0,0.0,0.0,0.0,2.7715,2.8535,2.9313,2.9567,2.9939,3.0446,3.0446,3.07,3.119,3.119,3.119,3.119,3.119,0.0,0.0,0.0,0.0,0.0,3.1951,3.25,3.3214,3.3332,3.355,3.3807,3.3807,3.3807,3.3807,3.3807,3.3807,3.3807,3.3807,3.3807,3.3807,3.3807,3.3807,3.3807,3.3807,3.3807,3.3807,3.3807,3.3807,3.3807,3.3807,3.3807,3.3807,3.3807,3.3993,3.4223,3.4334,3.4755,3.5122,3.5207,3.5383,3.5493,3.5493,3.5493,3.5493,3.5493,3.5493,3.5493,3.5493,3.5493,3.5493,3.5493,3.5493,3.5493,3.5493,3.5493,3.5493,3.5493,3.5493,3.5493,3.5493,3.5493,3.5493,3.5493,3.5493,3.5493,3.5545,3.668,3.7488,1.3246,1.4453,1.5579,1.5682,1.5833,1.5842,1.5301,1.4542,1.3759,1.3004,1.2758,1.2878,1.3605,1.4053,1.4667,1.5806,1.6456,0.0,0.0,0.0,0.0,0.0,0.0,0.0,0.0,0.0,0.0,0.0,0.0,0.0,0.0,2.6889,2.7621,2.8112,2.8687,2.9211,2.9685,2.9685,2.9922,3.0362,3.0362,3.0514,3.0784,3.0784,0.0,0.0,0.0,0.0,0.0,3.1716,3.2264,3.2952,3.3154,3.3465,3.3807,3.3807,3.3807,3.3807,3.3807,3.3807,3.3807,3.3807,3.3807,3.3807,3.3807,3.3807,3.3807,3.3807,3.3807,3.3807,3.3807,3.3807,3.3807,3.3807,3.3807,3.3807,3.3807,3.391,3.4093,3.4176,3.4595,3.4981,3.5088,3.532,3.5493,3.5493,3.5493,3.5493,3.5493,3.5493,3.5493,3.5493,3.5493,3.5493,3.5493,3.5493,3.5493,3.5493,3.5493,3.5493,3.5493,3.5493,3.5493,3.5493,3.5493,3.5493,3.5493,3.5493,3.5493,3.5532,3.6892,3.77,0.0,1.3329,1.4345,1.4282,1.4718,1.4994,1.4466,1.3436,0.0,1.2709,1.2269,1.2118,1.2909,1.3648,1.4408,1.5149,0.0,0.0,0.0,0.0,0.0,0.0,0.0,0.0,0.0,0.0,0.0,0.0,0.0,0.0,0.0,2.6436,2.6691,2.6691,2.8078,2.8876,2.889,2.889,2.8924,2.9011,2.9011,2.9347,3.0023,3.0091,0.0,0.0,0.0,0.0,0.0,3.1603,3.2039,3.2484,3.2983,3.339,3.3762,3.3788,3.3807,3.3807,3.3807,3.3807,3.3807,3.3807,3.3807,3.3807,3.3807,3.3807,3.3807,3.3807,3.3807,3.3807,3.3807,3.3807,3.3807,3.3807,3.3807,3.3807,3.3807,3.3807,3.3876,3.4123,3.4464,3.4774,3.5016,3.5304,3.5493,3.5493,3.5493,3.5493,3.5493,3.5493,3.5493,3.5493,3.5493,3.5493,3.5493,3.5493,3.5493,3.5493,3.5493,3.5493,3.5493,3.5493,3.5493,3.5493,3.5493,3.5493,3.5493,3.5493,3.5532,3.5603,3.643,3.7257,0.9868,0.0,1.2786,1.3046,1.3276,1.3346,0.0,1.2578,1.2327,1.1946,1.2246,1.2771,1.3479,1.4263,1.5023,0.0,0.0,0.0,0.0,0.0,0.0,0.0,0.0,0.0,0.0,0.0,0.0,0.0,0.0,0.0,0.0,2.621,2.6691,2.6691,2.7046,2.7503,2.8095,2.8095,2.8399,2.9011,2.9011,2.9076,2.9262,2.9837,0.0,0.0,0.0,0.0,3.119,3.1291,3.1582,3.1986,3.2484,3.2934,3.3361,3.368,3.3807,3.3807,3.3807,3.3807,3.3807,3.3807,3.3807,3.3807,3.3807,3.3807,3.3807,3.3807,3.3807,3.3807,3.3807,3.3807,3.3807,3.3807,3.3807,3.3807,3.3807,3.3807,3.3815,3.3876,3.433,3.4714,3.4774,3.519,3.5493,3.5493,3.5493,3.5493,3.5493,3.5493,3.5493,3.5493,3.5493,3.5493,3.5493,3.5493,3.5493,3.5493,3.5493,3.5493,3.5493,3.5493,3.5493,3.5493,3.5493,3.5493,3.5493,3.5493,3.5834,3.6449,3.7296,3.8161,0.9072,1.0418,1.1719,1.171,1.2032,1.2233,1.1805,1.1784,1.1866,1.194,0.0,0.0,1.4023,0.0,0.0,0.0,0.0,0.0,0.0,0.0,0.0,0.0,0.0,0.0,0.0,0.0,0.0,0.0,0.0,0.0,0.0,2.5944,2.647,2.6691,2.6691,2.6894,2.73,2.73,2.752,2.7926,2.7926,2.8112,2.8467,2.8873,2.9262,0.0,0.0,0.0,3.0717,3.1055,3.1449,3.1825,3.2057,3.2598,3.3214,3.3447,3.3634,3.3807,3.3807,3.3807,3.3807,3.3807,3.3807,3.3807,3.3807,3.3807,3.3807,3.3807,3.3807,3.3807,3.3807,3.3807,3.3807,3.3807,3.3807,3.3807,3.3807,3.3807,3.3807,3.3807,3.4302,3.4694,3.4694,3.5138,3.5493,3.5493,3.5493,3.5493,3.5493,3.5493,3.5493,3.5493,3.5493,3.5493,3.5493,3.5493,3.5493,3.5493,3.5493,3.5493,3.5493,3.5493,3.5493,3.5493,3.5493,3.5493,3.5493,3.5493,3.5911,3.6719,3.7584,3.8469,0.8826,0.9969,1.0926,1.0568,1.1009,1.1484,1.1228,1.1249,0.0,0.0,0.0,0.0,0.0,1.4837,0.0,0.0,0.0,0.0,0.0,0.0,0.0,0.0,0.0,0.0,0.0,0.0,0.0,0.0,0.0,0.0,0.0,2.5689,2.6227,2.6691,2.6691,2.6691,2.6691,2.6691,2.6691,2.6691,2.6691,2.7029,2.762,2.7739,2.818,0.0,0.0,0.0,2.9989,3.0734,3.124,3.156,3.1737,3.2332,3.3105,3.3184,3.3447,3.3807,3.3807,3.3807,3.3807,3.3807,3.3807,3.3807,3.3807,3.3807,3.3807,3.3807,3.3807,3.3807,3.3807,3.3807,3.3807,3.3807,3.3807,3.3807,3.3807,3.3807,3.3807,3.3807,3.4302,3.4694,3.4694,3.5138,3.5493,3.5493,3.5493,3.5493,3.5493,3.5493,3.5493,3.5493,3.5493,3.5493,3.5493,3.5493,3.5493,3.5493,3.5493,3.5493,3.5493,3.5493,3.5493,3.5493,3.5493,3.5493,3.5493,3.5493,3.5988,3.693,3.7661,3.8527,0.8274,0.919,1.0135,1.03,1.054,1.0899,1.1421,1.1721,1.2066,0.0,0.0,0.0,0.0,1.5448,0.0,0.0,0.0,0.0,0.0,0.0,0.0,0.0,0.0,0.0,0.0,0.0,0.0,0.0,0.0,0.0,0.0,2.5689,2.6227,2.6691,2.6691,2.6691,2.6691,2.6691,2.6691,2.6691,2.6691,2.6759,2.6894,2.7537,2.7892,0.0,0.0,2.9161,2.9211,2.9956,3.0315,3.0462,3.1418,3.2127,3.2648,3.3045,3.3447,3.3807,3.3807,3.3807,3.3807,3.3807,3.3807,3.3807,3.3807,3.3807,3.3807,3.3807,3.3807,3.3807,3.3807,3.3807,3.3807,3.3807,3.3807,3.3807,3.3807,3.3807,3.3807,3.3807,3.4302,3.4694,3.4694,3.5138,3.5493,3.5493,3.5493,3.5493,3.5493,3.5493,3.5493,3.5493,3.5493,3.5493,3.5493,3.5493,3.5493,3.5493,3.5493,3.5493,3.5493,3.5493,3.5493,3.5493,3.5493,3.5493,3.5493,3.5493,3.6295,3.7796,3.793,3.8834,0.8078,0.8982,0.9994,1.0415,1.073,1.103,1.1454,1.1911,1.2458,0.0,0.0,0.0,0.0,0.0,0.0,0.0,0.0,0.0,0.0,0.0,0.0,0.0,0.0,0.0,0.0,0.0,0.0,0.0,0.0,0.0,0.0,0.0,2.5799,2.6297,2.659,2.6691,2.6691,2.6691,2.6691,2.6691,2.6691,2.6691,2.6708,2.7046,2.7215,2.7249,0.0,2.8349,2.8416,2.9178,2.9499,2.957,3.008,3.0802,3.1617,3.2488,3.3105,3.3494,3.3494,3.3606,3.3807,3.3807,3.3807,3.3807,3.3807,3.3807,3.3807,3.3807,3.3807,3.3807,3.3807,3.3807,3.3807,3.3807,3.3807,3.3807,3.3807,3.3807,3.3807,3.3807,3.4302,3.4694,3.4694,3.5138,3.5493,3.5493,3.5493,3.5493,3.5493,3.5493,3.5493,3.5493,3.5493,3.5493,3.5493,3.5493,3.5493,3.5493,3.5493,3.5493,3.5493,3.5493,3.5493,3.5493,3.5493,3.5493,3.5493,3.5949,3.6796,3.8007,3.8469,3.9354,0.798,0.8911,0.9979,1.0556,1.0915,1.1266,1.1708,1.2354,1.3047,0.0,0.0,0.0,0.0,0.0,0.0,0.0,0.0,0.0,0.0,0.0,0.0,0.0,0.0,0.0,0.0,0.0,0.0,0.0,0.0,0.0,0.0,0.0,2.5287,2.5961,2.647,2.6691,2.6691,2.6691,2.6691,2.6691,2.6691,2.6691,2.6691,2.6691,2.6691,2.6725,2.73,2.7554,2.7621,2.8383,2.8704,2.8738,2.8943,2.9588,3.0577,3.1608,3.238,3.2943,3.2943,3.3302,3.3807,3.3807,3.3807,3.3807,3.3807,3.3807,3.3807,3.3807,3.3807,3.3807,3.3807,3.3807,3.3807,3.3807,3.3807,3.3807,3.3807,3.3807,3.3807,3.3807,3.4302,3.4694,3.4694,3.5138,3.5493,3.5493,3.5493,3.5493,3.5493,3.5493,3.5493,3.5493,3.5493,3.5493,3.5493,3.5493,3.5493,3.5493,3.5493,3.5493,3.5493,3.5493,3.5493,3.5493,3.5493,3.5603,3.5795,3.6411,3.7257,3.8315,3.8988,3.9719,0.7946,0.8839,0.986,1.0528,1.086,1.1324,1.2459,1.3322,0.0,1.4666,0.0,0.0,0.0,0.0,0.0,0.0,0.0,0.0,0.0,0.0,0.0,0.0,0.0,0.0,0.0,0.0,0.0,0.0,0.0,0.0,0.0,0.0,0.0,2.5944,2.647,2.6691,2.6691,2.6691,2.6691,2.6691,2.6691,2.6691,2.6691,2.6691,2.6691,2.6691,2.6759,2.6776,2.6843,2.7588,2.7909,2.7977,2.8704,2.928,2.9742,3.0264,3.119,3.2177,3.2177,3.2875,3.3807,3.3807,3.3807,3.3807,3.3807,3.3807,3.3807,3.3807,3.3807,3.3807,3.3807,3.3807,3.3807,3.3807,3.3807,3.3807,3.3807,3.3807,3.3807,3.3807,3.4302,3.4694,3.4694,3.5138,3.5493,3.5493,3.5493,3.5493,3.5493,3.5493,3.5493,3.5493,3.5493,3.5493,3.5493,3.5493,3.5493,3.5493,3.5493,3.5493,3.5493,3.5493,3.5493,3.5493,3.5493,3.5872,3.6622,3.668,3.7565,3.92,3.9258,3.9719,0.7824,0.8742,0.9878,1.0875,1.1261,0.0,0.0,1.3804,1.448,1.5019,1.5551,0.0,0.0,0.0,0.0,0.0,0.0,0.0,0.0,0.0,0.0,0.0,0.0,0.0,0.0,0.0,0.0,0.0,0.0,0.0,0.0,0.0,0.0,2.3761,2.5227,2.5916,2.5664,2.6354,2.6691,2.6691,2.6691,2.6691,2.6691,2.6691,2.6691,2.6691,2.6691,2.6691,2.6708,2.6996,2.7114,2.7199,2.796,2.8353,2.8579,2.9231,2.9931,3.0547,3.0547,3.1003,3.1657,3.191,3.201,3.2038,3.225,3.2669,3.3054,3.3054,3.3421,3.3807,3.3807,3.3807,3.3807,3.3807,3.3807,3.3807,3.3807,3.3807,3.3807,3.3807,3.4117,3.4379,3.4379,3.487,3.5239,3.5239,3.5383,3.5493,3.5493,3.5493,3.5493,3.5493,3.5493,3.5493,3.5493,3.5493,3.5493,3.5493,3.5493,3.5493,3.5493,3.5493,3.5493,3.5493,3.5493,3.5911,3.6699,3.7238,3.8123,3.9296,3.9796,4.02,0.7757,0.8814,1.0092,1.1124,0.0,0.0,1.3649,1.4315,1.4824,1.5389,1.5828,0.0,0.0,0.0,0.0,0.0,0.0,0.0,0.0,0.0,0.0,0.0,0.0,0.0,0.0,0.0,0.0,0.0,0.0,0.0,0.0,0.0,0.0,0.0,2.4128,2.4946,2.4679,2.5563,2.6116,2.6353,2.6353,2.6471,2.6691,2.6691,2.6691,2.6691,2.6691,2.6691,2.6691,2.6691,2.6691,2.6742,2.7266,2.7469,2.7537,2.8061,2.8682,2.9242,2.9242,2.9706,3.0368,3.0754,3.0884,3.0966,3.1309,3.177,3.2228,3.2228,3.2797,3.3421,3.3421,3.3605,3.3807,3.3807,3.3807,3.3807,3.3807,3.3807,3.3807,3.3807,3.4018,3.42,3.42,3.4696,3.5105,3.5105,3.5339,3.5493,3.5493,3.5493,3.5493,3.5493,3.5493,3.5493,3.5493,3.5493,3.5493,3.5493,3.5493,3.5493,3.5493,3.5493,3.5493,3.5493,3.5493,3.5911,3.6699,3.7565,3.845,3.9315,4.0123,4.0489,0.7757,0.9079,1.0541,0.0,0.0,0.0,1.4664,1.5018,1.526,1.578,1.6615,1.7282,1.7475,0.0,0.0,0.0,0.0,0.0,0.0,0.0,0.0,0.0,0.0,0.0,0.0,0.0,0.0,0.0,0.0,0.0,0.0,0.0,0.0,0.0,2.3381,2.3902,2.3902,2.4288,2.4864,2.5592,2.5592,2.5981,2.6691,2.6691,2.6691,2.6691,2.6691,2.6691,2.6691,2.6691,2.6691,2.6691,2.6691,2.6691,2.6691,2.6691,2.745,2.8462,2.8462,2.9267,3.035,3.0736,3.0866,3.0921,3.1265,3.1366,3.1384,3.1384,3.1971,3.2596,3.2614,3.3201,3.3788,3.3807,3.3807,3.3807,3.3807,3.3807,3.3807,3.3807,3.4018,3.42,3.42,3.4696,3.5105,3.5105,3.5339,3.5493,3.5493,3.5493,3.5493,3.5493,3.5493,3.5493,3.5493,3.5493,3.5493,3.5493,3.5493,3.5493,3.5493,3.5493,3.5493,3.5493,3.5493,3.5911,3.6699,3.7565,3.845,3.9315,4.0123,4.0489,0.8157,0.9329,0.0,1.1696,0.0,0.0,0.0,1.5495,0.0,0.0,1.6718,1.7044,0.0,0.0,0.0,0.0,0.0,0.0,0.0,0.0,0.0,0.0,0.0,0.0,0.0,0.0,0.0,0.0,0.0,0.0,0.0,0.0,0.0,0.0,2.2179,2.2916,2.262,2.3861,2.4625,2.4814,2.4814,2.5473,2.6691,2.6691,2.6691,2.6691,2.6691,2.6691,2.6691,2.6691,2.6691,2.6691,2.6691,2.6691,2.6691,2.6691,2.6927,2.723,2.723,2.7483,2.7833,2.8242,2.8558,2.8844,2.9194,2.9892,3.0558,3.0558,3.1146,3.188,3.2467,3.2797,3.3109,3.3678,3.3807,3.3807,3.3807,3.3807,3.3807,3.3807,3.385,3.3928,3.3928,3.442,3.4832,3.4832,3.5207,3.5493,3.5493,3.5493,3.5493,3.5493,3.5493,3.5493,3.5493,3.5493,3.5493,3.5493,3.5493,3.5493,3.5493,3.5493,3.5493,3.5493,3.5493,3.5911,3.6699,3.7565,3.845,3.9315,4.0123,4.0489,0.832,0.9605,0.0,1.1974,1.3029,1.4262,1.5693,0.0,0.0,0.0,0.0,0.0,0.0,0.0,0.0,0.0,0.0,0.0,0.0,0.0,0.0,0.0,0.0,0.0,0.0,0.0,0.0,0.0,0.0,0.0,0.0,0.0,0.0,0.0,2.1043,2.173,2.1681,2.2762,2.358,2.4052,2.4052,2.4661,2.5828,2.6133,2.642,2.6691,2.6691,2.6691,2.6691,2.6691,2.6691,2.6691,2.6691,2.6691,2.6691,2.6691,2.6691,2.6691,2.6691,2.6691,2.6758,2.7178,2.747,2.7765,2.8246,2.8916,2.9509,2.9667,3.0301,3.1035,3.1531,3.188,3.2412,3.3532,3.3807,3.3807,3.3807,3.3807,3.3807,3.3807,3.3807,3.3807,3.3807,3.4189,3.4551,3.4674,3.5174,3.5493,3.5493,3.5493,3.5493,3.5493,3.5493,3.5493,3.5493,3.5493,3.5493,3.5493,3.5493,3.5493,3.5493,3.5493,3.5493,3.5493,3.5493,3.5738,3.6238,3.743,3.8277,3.8815,3.995,4.0489,0.8309,0.986,0.0,1.211,1.3675,0.0,1.6283,1.6522,1.6522,0.0,0.0,0.0,0.0,0.0,0.0,0.0,0.0,0.0,0.0,0.0,0.0,0.0,0.0,0.0,0.0,0.0,0.0,0.0,0.0,0.0,0.0,0.0,0.0,1.969,2.0089,2.0516,2.0926,2.1337,2.2096,0.0,2.3186,2.3573,2.4298,2.5137,2.5879,2.6488,2.6573,2.659,2.6607,2.6657,2.6691,2.6691,2.6691,2.6691,2.6691,2.6691,2.6691,2.6691,2.6691,2.6691,2.6758,2.7115,2.7272,2.7439,2.8139,2.8394,2.8471,2.8905,2.9549,3.0118,3.0173,3.0742,3.1678,3.322,3.3587,3.3587,3.3587,3.3642,3.3697,3.3697,3.3752,3.3807,3.3807,3.4018,3.4292,3.4653,3.5105,3.5432,3.5432,3.5432,3.5432,3.5432,3.5432,3.5432,3.546,3.546,3.546,3.5493,3.5493,3.5493,3.5493,3.5493,3.5493,3.5493,3.5493,3.5493,3.5493,3.718,3.8007,3.8046,3.9719,4.0489,0.8333,0.9912,0.0,0.0,1.4499,1.6233,1.6459,1.6522,1.6522,0.0,0.0,0.0,0.0,0.0,0.0,0.0,0.0,0.0,0.0,0.0,0.0,0.0,0.0,0.0,0.0,0.0,0.0,0.0,0.0,0.0,0.0,0.0,0.0,1.969,2.0089,2.0348,2.0449,2.0894,2.1262,0.0,2.1518,2.1907,2.2671,2.4091,2.4814,2.5031,2.5592,2.5845,2.5879,2.6454,2.6691,2.6691,2.6691,2.6691,2.6691,2.6691,2.6691,2.6691,2.6691,2.6691,2.6725,2.6808,2.7051,2.7378,2.7851,2.8183,2.8471,2.8905,2.9104,2.9402,3.0044,3.0338,3.0705,3.1678,3.1916,3.1916,3.1916,3.2412,3.2871,3.2871,3.3366,3.3807,3.3807,3.4018,3.4292,3.4653,3.4812,3.487,3.487,3.487,3.487,3.487,3.487,3.4963,3.5174,3.519,3.5273,3.5493,3.5493,3.5493,3.5493,3.5493,3.5493,3.5493,3.5493,3.5493,3.5493,3.718,3.8007,3.8046,3.9719,4.0489,0.8356,0.0,0.0,1.349,0.0,1.6195,1.6459,1.6522,0.0,0.0,0.0,0.0,0.0,0.0,0.0,0.0,0.0,0.0,0.0,0.0,0.0,0.0,0.0,0.0,0.0,0.0,0.0,0.0,0.0,0.0,0.0,1.969,1.969,1.969,1.9894,2.0089,2.0314,2.055,2.0797,2.0991,2.0991,2.1183,2.1632,2.3422,2.4225,2.4242,2.4835,2.5067,2.5118,2.5862,2.6167,2.6201,2.6556,2.6691,2.6691,2.6691,2.6691,2.6691,2.6691,2.6691,2.6691,2.6691,2.6841,2.7083,2.747,2.788,2.8237,2.8608,2.8839,2.9085,2.9531,2.9641,2.9732,3.0155,3.0834,3.1384,3.1384,3.1733,3.2027,3.2027,3.2687,3.3238,3.3238,3.3778,3.4246,3.4423,3.4612,3.4694,3.4694,3.4694,3.4694,3.4694,3.4694,3.4773,3.4908,3.4908,3.4963,3.5105,3.5122,3.5122,3.5122,3.5122,3.5239,3.5493,3.5493,3.5493,3.5493,3.6631,3.7389,3.7795,3.9114,3.9955,0.8263,0.0,1.1974,1.4062,1.5141,0.0,1.6271,1.6446,0.0,0.0,0.0,0.0,0.0,0.0,0.0,0.0,0.0,0.0,0.0,0.0,0.0,0.0,0.0,0.0,0.0,0.0,0.0,0.0,0.0,0.0,1.969,1.969,1.969,1.969,1.969,1.9874,2.0177,2.0193,2.0382,2.0764,2.0764,2.0764,2.0844,2.2524,2.3342,2.3538,2.4005,2.4259,2.4388,2.5101,2.5423,2.5473,2.6082,2.6387,2.6505,2.6505,2.659,2.6691,2.6691,2.6691,2.6691,2.6691,2.6691,2.6791,2.7178,2.753,2.7851,2.8237,2.8608,2.8905,2.8905,2.8952,2.8994,2.8994,3.0026,3.098,3.098,3.1091,3.1182,3.1182,3.1953,3.2614,3.2614,3.3451,3.4123,3.4123,3.4375,3.4548,3.4548,3.4548,3.4548,3.4548,3.4548,3.4569,3.4612,3.4593,3.4632,3.4694,3.4694,3.4694,3.4694,3.4694,3.4908,3.5354,3.5369,3.5369,3.5369,3.594,3.6652,3.7452,3.8385,3.9242,0.7737,0.0,1.2291,0.0,1.4588,1.5718,0.0,0.0,0.0,0.0,0.0,0.0,0.0,0.0,0.0,0.0,0.0,0.0,0.0,0.0,0.0,0.0,0.0,0.0,0.0,0.0,0.0,0.0,0.0,0.0,1.969,1.969,1.969,1.969,1.969,1.9726,1.9782,1.9782,1.9818,1.9889,1.9889,1.9889,1.9889,2.0516,2.1182,2.1958,2.2661,2.3176,2.3596,2.4323,2.4659,2.4675,2.4777,2.5169,2.5761,2.5761,2.615,2.6691,2.6691,2.6691,2.6691,2.6691,2.6691,2.6791,2.7178,2.7317,2.747,2.7869,2.821,2.8471,2.8471,2.8749,2.8994,2.8994,2.914,2.9305,2.9305,2.9879,3.0356,3.0356,3.1568,3.2614,3.2614,3.3283,3.3868,3.3868,3.3895,3.3902,3.3902,3.3902,3.3902,3.3902,3.3902,3.4012,3.4265,3.4288,3.4379,3.4674,3.4694,3.4694,3.4694,3.4694,3.4734,3.4812,3.4812,3.4812,3.4812,3.5568,3.6381,3.7173,3.8064,3.8893,0.8309,0.9915,1.1554,0.0,1.3736,1.4563,1.548,0.0,0.0,0.0,0.0,0.0,0.0,0.0,0.0,0.0,0.0,0.0,0.0,0.0,0.0,0.0,0.0,0.0,0.0,0.0,0.0,0.0,0.0,1.969,1.969,1.969,1.969,1.969,1.969,1.969,1.969,1.969,1.969,1.969,1.969,1.969,1.9726,1.9874,2.0431,2.1291,2.1849,2.2365,2.2852,2.3579,2.3866,2.3917,2.4354,2.4678,2.5033,2.5456,2.5812,2.615,2.6556,2.6691,2.6691,2.6691,2.6691,2.6725,2.6906,2.7115,2.7334,2.75,2.7823,2.8156,2.8368,2.854,2.8725,2.8952,2.8994,2.8994,2.8994,2.9292,2.9659,3.0118,3.0779,3.1403,3.1843,3.2596,3.3128,3.3128,3.3513,3.3807,3.3807,3.3807,3.3807,3.3807,3.3807,3.3842,3.3961,3.3986,3.4037,3.4184,3.4208,3.4208,3.4208,3.4208,3.4208,3.4208,3.4526,3.4694,3.4694,3.4867,3.5604,3.6892,3.7253,3.8139,0.0,0.0,1.0575,1.2036,1.2771,1.344,0.0,0.0,0.0,0.0,0.0,0.0,0.0,0.0,0.0,0.0,0.0,0.0,0.0,0.0,0.0,0.0,0.0,0.0,0.0,0.0,0.0,0.0,0.0,1.969,1.969,1.969,1.969,1.969,1.969,1.969,1.969,1.969,1.969,1.969,1.969,1.969,1.969,1.969,2.012,2.0862,2.1275,2.1705,2.2168,2.2827,2.3122,2.3173,2.3714,2.4052,2.4272,2.4847,2.5287,2.5693,2.6234,2.6539,2.6691,2.6691,2.6691,2.6691,2.6691,2.6906,2.7147,2.7147,2.7457,2.7794,2.8057,2.8192,2.8368,2.8749,2.8839,2.8881,2.8994,2.8994,2.9177,2.9787,3.0063,3.0467,3.1256,3.2063,3.2687,3.2871,3.3421,3.3807,3.3807,3.3807,3.3807,3.3807,3.3807,3.3807,3.3807,3.3807,3.3807,3.3807,3.3807,3.3807,3.3807,3.3807,3.3807,3.3807,3.4255,3.4464,3.4464,3.4237,3.4946,3.6597,3.6604,3.7458,0.0,0.8947,0.0,1.0355,1.1736,0.0,0.0,0.0,0.0,0.0,0.0,0.0,0.0,0.0,0.0,0.0,0.0,0.0,0.0,0.0,0.0,0.0,0.0,0.0,0.0,0.0,0.0,0.0,0.0,1.969,1.969,1.969,1.969,1.969,1.969,1.969,1.969,1.969,1.969,1.969,1.969,1.969,1.969,1.969,1.9929,2.0348,2.0829,2.1244,2.1658,2.2157,2.2361,2.2361,2.2412,2.2852,2.346,2.3494,2.4408,2.5609,2.5642,2.6116,2.6691,2.6691,2.6691,2.6691,2.6691,2.6725,2.6725,2.6725,2.7019,2.7334,2.7348,2.7648,2.7992,2.8342,2.842,2.854,2.8929,2.8994,2.8994,2.9049,2.9696,3.0467,3.1256,3.2063,3.2871,3.3623,3.377,3.3807,3.3807,3.3807,3.3807,3.3807,3.3807,3.3807,3.3807,3.3807,3.3807,3.3807,3.3807,3.3807,3.3807,3.3807,3.3807,3.3807,3.3815,3.3842,3.3842,3.3815,3.4679,3.6313,3.6313,3.7177,0.0,0.0,0.0,0.9952,1.0732,0.0,0.0,0.0,0.0,0.0,0.0,0.0,0.0,0.0,0.0,0.0,0.0,0.0,0.0,0.0,0.0,0.0,0.0,0.0,0.0,0.0,0.0,0.0,0.0,0.0,1.969,1.969,1.969,1.969,1.969,1.969,1.969,1.969,1.969,1.969,1.969,1.969,1.969,1.969,1.9782,1.9929,2.0364,2.0781,2.1213,2.1385,2.1615,2.1853,2.1853,2.2199,2.275,2.3224,2.3731,2.4255,2.4729,2.5372,2.5998,2.5998,2.6302,2.6691,2.6691,2.6691,2.6691,2.6691,2.6808,2.6954,2.7224,2.7426,2.7678,2.8246,2.8394,2.8515,2.8929,2.8994,2.8994,2.8994,2.9214,2.9696,3.0485,3.1292,3.21,3.2926,3.3476,3.3807,3.3807,3.3807,3.3807,3.3807,3.3807,3.3807,3.3807,3.3807,3.3807,3.3807,3.3807,3.3807,3.3807,3.3807,3.3807,3.3807,3.3807,3.3807,3.3807,3.3807,3.4376,3.5495,3.6046,3.689,0.6804,0.0,0.0,0.0,0.0,0.0,0.0,0.0,0.0,0.0,0.0,0.0,0.0,0.0,0.0,0.0,0.0,0.0,0.0,0.0,0.0,0.0,0.0,0.0,0.0,0.0,0.0,0.0,0.0,0.0,1.969,1.969,1.969,1.969,1.969,1.969,1.969,1.969,1.969,1.969,1.969,1.969,1.969,1.969,1.969,1.9711,1.9965,2.0364,2.0797,2.0926,2.1244,2.1582,2.1582,2.1899,2.2361,2.2852,2.319,2.346,2.3951,2.4594,2.5236,2.5236,2.5727,2.6336,2.6336,2.6488,2.6691,2.6691,2.6691,2.6758,2.7019,2.721,2.7439,2.7901,2.8139,2.8342,2.8725,2.8887,2.8994,2.8994,2.8994,2.9347,3.0411,3.1035,3.1751,3.2852,3.3458,3.3807,3.3807,3.3807,3.3807,3.3807,3.3807,3.3807,3.3807,3.3807,3.3807,3.3807,3.3807,3.3807,3.3807,3.3807,3.3807,3.3807,3.3807,3.3807,3.3807,3.3807,3.4211,3.5009,3.5899,3.6872,0.0,0.0,0.0,0.0,0.0,0.0,0.0,0.0,0.0,0.0,0.0,0.0,0.0,0.0,0.0,0.0,0.0,0.0,0.0,0.0,0.0,0.0,0.0,0.0,0.0,0.0,0.0,0.0,0.0,1.969,1.969,1.969,1.969,1.969,1.969,1.969,1.969,1.969,1.969,1.969,1.969,1.969,1.969,1.969,1.969,1.969,1.969,1.9909,2.0314,2.0748,2.1213,2.1552,2.1552,2.1869,2.2282,2.2282,2.275,2.3359,2.3359,2.3849,2.4472,2.4472,2.4966,2.5575,2.5609,2.6099,2.6657,2.6691,2.6691,2.6691,2.6691,2.7004,2.7303,2.7303,2.7589,2.7964,2.8316,2.8682,2.8952,2.8994,2.8994,2.9512,3.1109,3.1384,3.1935,3.355,3.3807,3.3807,3.3807,3.3807,3.3807,3.3807,3.3807,3.3807,3.3807,3.3807,3.3807,3.3807,3.3807,3.3807,3.3807,3.3807,3.3807,3.3807,3.3807,3.3807,3.3807,3.3807,3.4211,3.4972,3.5881,3.7165,0.6997,0.0,0.0,0.0,0.0,0.0,0.0,0.0,0.0,0.0,0.0,0.0,0.0,0.0,0.0,0.0,0.0,0.0,0.0,0.0,0.0,0.0,0.0,0.0,0.0,0.0,0.0,0.0,1.9479,1.969,1.969,1.969,1.969,1.969,1.969,1.969,1.969,1.969,1.969,1.969,1.969,1.969,1.969,1.969,1.969,1.969,1.969,1.9747,1.9874,2.0015,2.0296,2.0667,2.0667,2.1134,2.1794,2.1794,2.2137,2.2615,2.2615,2.3088,2.3697,2.3697,2.4188,2.4898,2.5439,2.5744,2.6031,2.6539,2.6691,2.6691,2.6691,2.6774,2.6939,2.7241,2.7396,2.756,2.7964,2.812,2.836,2.8905,2.8994,2.9512,3.1109,3.1384,3.1935,3.355,3.3807,3.3807,3.3807,3.3807,3.3807,3.3807,3.3807,3.3807,3.3807,3.3807,3.3807,3.3807,3.3807,3.3807,3.3807,3.3807,3.3807,3.3807,3.3807,3.3807,3.3807,3.3807,3.3917,3.4174,3.5624,3.7165,0.6966,0.0,0.0,0.0,0.0,0.0,0.0,0.0,0.0,0.0,0.0,0.0,0.0,0.0,0.0,0.0,0.0,0.0,0.0,0.0,0.0,0.0,0.0,0.0,0.0,0.0,0.0,1.8535,1.9281,1.969,1.969,1.969,1.969,1.969,1.969,1.969,1.969,1.969,1.969,1.969,1.969,1.969,1.969,1.969,1.969,1.969,1.969,1.969,1.969,1.969,1.9929,2.0314,2.0314,2.0748,2.1368,2.1521,2.1764,2.2032,2.2237,2.2581,2.2936,2.2936,2.3427,2.4103,2.4543,2.5118,2.5693,2.6116,2.6454,2.6691,2.6691,2.6691,2.6758,2.6987,2.7051,2.7147,2.756,2.7648,2.788,2.8608,2.8749,2.9199,3.0644,3.0889,3.1439,3.3054,3.3311,3.3421,3.3752,3.3807,3.3807,3.3807,3.3807,3.3807,3.3807,3.3807,3.3807,3.3807,3.3807,3.3807,3.3807,3.3807,3.3807,3.3807,3.3807,3.3807,3.3807,3.3807,3.3972,3.4339,3.5679,3.6982,0.6647,0.7087,0.0,0.0,0.0,0.0,0.8678,0.9012,0.0,0.0,0.0,0.0,0.0,0.0,0.0,0.0,0.0,0.0,0.0,0.0,0.0,0.0,0.0,0.0,0.0,1.7583,1.7926,1.7995,1.9014,1.9639,1.969,1.969,1.969,1.969,1.969,1.969,1.969,1.969,1.969,1.969,1.969,1.969,1.969,1.969,1.969,1.969,1.969,1.969,1.969,1.969,1.9909,2.0212,2.0212,2.0516,2.0959,2.1337,2.1521,2.1658,2.2077,2.2254,2.231,2.231,2.275,2.3291,2.3376,2.4323,2.5406,2.5558,2.6133,2.6691,2.6691,2.6691,2.6691,2.6691,2.6691,2.6808,2.7147,2.7224,2.7422,2.8139,2.8298,2.8699,2.988,3.0094,3.0643,3.2279,3.2543,3.2837,3.3697,3.3807,3.3807,3.3807,3.3807,3.3807,3.3807,3.3807,3.3807,3.3807,3.3807,3.3807,3.3807,3.3807,3.3807,3.3807,3.3807,3.3807,3.3807,3.3807,3.4266,3.5155,3.5936,3.678,0.7517,0.7633,0.7788,0.8024,0.0,0.0,0.0,0.8635,0.0,0.0,0.0,0.0,0.0,0.0,0.0,0.0,0.0,0.0,0.0,0.0,0.0,0.0,0.0,0.0,0.0,1.6325,1.6812,1.727,1.8403,1.9244,1.969,1.969,1.969,1.969,1.969,1.969,1.969,1.969,1.969,1.969,1.969,1.969,1.969,1.969,1.969,1.969,1.969,1.969,1.969,1.969,1.9747,1.9818,1.9818,2.007,2.0449,2.0501,2.0991,2.1612,2.1688,2.1974,2.231,2.231,2.2412,2.2632,2.3224,2.3596,2.4086,2.527,2.6133,2.6691,2.6691,2.6691,2.6691,2.6691,2.6691,2.6725,2.6808,2.6825,2.6971,2.7422,2.7794,2.8269,2.9165,2.9319,2.9958,3.1908,3.22,3.2574,3.367,3.3807,3.3807,3.3807,3.3807,3.3807,3.3807,3.3807,3.3807,3.3807,3.3807,3.3807,3.3807,3.3807,3.3807,3.3807,3.3807,3.3807,3.3807,3.3807,3.4578,3.6046,3.6211,3.7074,0.7676,0.7715,0.7802,0.7994,0.0,0.0,0.0,0.0,0.8935,0.0,0.0,0.0,0.0,0.0,0.0,0.0,0.0,0.0,0.0,0.0,0.0,0.0,0.0,0.0,0.0,1.5694,1.6313,1.705,1.7396,1.805,1.9146,1.9196,1.9346,1.9675,1.969,1.969,1.969,1.969,1.969,1.969,1.969,1.969,1.969,1.969,1.969,1.969,1.969,1.969,1.969,1.969,1.969,1.969,1.969,1.9818,2.0035,2.0212,2.0583,2.1007,2.1213,2.1598,2.1957,2.1957,2.2106,2.2378,2.275,2.3105,2.3714,2.5186,2.5879,2.6234,2.659,2.6691,2.6691,2.6691,2.6691,2.6691,2.6691,2.6691,2.6758,2.6971,2.7178,2.7561,2.8364,2.8493,2.8987,3.0395,3.0915,3.1512,3.2491,3.2913,3.3148,3.3148,3.3148,3.3148,3.3148,3.3148,3.3148,3.3148,3.3361,3.3494,3.3494,3.3494,3.3494,3.3494,3.3707,3.3807,3.3807,3.3807,3.4449,3.5661,3.6101,3.6945,0.0,0.0,0.0,0.0,0.0,0.8215,0.0,0.0,0.0,0.9166,0.0,0.0,0.0,0.0,0.0,0.0,0.0,0.0,0.0,0.0,0.0,0.0,0.0,0.0,0.0,1.5147,1.5883,1.68,1.6522,1.6944,1.8376,1.8608,1.8957,1.948,1.9615,1.969,1.969,1.969,1.969,1.969,1.969,1.969,1.969,1.969,1.969,1.969,1.969,1.969,1.969,1.969,1.969,1.969,1.969,1.969,1.9747,2.0054,2.0212,2.0348,2.0715,2.115,2.1491,2.1491,2.1794,2.218,2.2282,2.2818,2.3646,2.4847,2.5389,2.5744,2.6336,2.659,2.6691,2.6691,2.6691,2.6691,2.6691,2.6691,2.6691,2.6691,2.6691,2.6906,2.7577,2.7648,2.7971,2.8865,2.9611,3.0419,3.1274,3.2022,3.2484,3.2484,3.2484,3.2484,3.2484,3.2484,3.2484,3.2484,3.2858,3.3075,3.3075,3.3075,3.3075,3.3075,3.339,3.355,3.355,3.355,3.4054,3.5009,3.5899,3.6677,0.0,0.0,0.0,0.0,0.7909,0.0,0.0,0.0,0.8784,0.8983,0.0,0.0,0.0,0.0,0.0,0.0,0.0,0.0,0.0,0.0,0.0,0.0,0.0,0.0,0.0,0.0,1.5215,1.5986,1.6263,1.676,1.7589,1.8321,1.8732,1.8807,1.9375,1.969,1.969,1.969,1.969,1.969,1.969,1.969,1.969,1.969,1.969,1.969,1.969,1.969,1.969,1.969,1.969,1.969,1.969,1.969,1.9726,1.9747,2.0,2.0314,2.0348,2.0682,2.1055,2.1055,2.1354,2.1764,2.2163,2.2818,2.3427,2.3596,2.4594,2.5625,2.571,2.6201,2.6691,2.6691,2.6691,2.6691,2.6691,2.6691,2.6691,2.6691,2.6691,2.6725,2.6808,2.6858,2.7228,2.8389,2.9201,3.0082,3.1243,3.2022,3.2484,3.2484,3.2484,3.2484,3.2484,3.2484,3.2484,3.2484,3.255,3.2583,3.2583,3.2583,3.2583,3.2583,3.2616,3.2648,3.2648,3.2648,3.344,3.5009,3.5899,3.648,0.0,0.0,0.0,0.0,0.0,0.0,0.0,0.0,0.8645,0.0,0.0,0.0,0.0,0.0,0.0,0.0,0.0,0.0,0.0,0.0,0.0,0.0,0.0,0.0,0.0,0.0,0.0,0.0,0.0,1.5538,1.6848,1.7305,1.7891,1.8687,1.8972,1.9301,1.969,1.969,1.969,1.969,1.969,1.969,1.969,1.969,1.969,1.969,1.969,1.969,1.969,1.969,1.969,1.969,1.969,1.969,1.969,1.969,1.9818,1.9929,1.9929,2.0227,2.0649,2.0926,2.1118,2.1275,2.1493,2.1919,2.2432,2.2879,2.395,2.505,2.549,2.615,2.6691,2.6691,2.6691,2.6691,2.6691,2.6691,2.6691,2.6691,2.6691,2.6691,2.6691,2.6691,2.686,2.7366,2.8476,2.9419,2.9938,3.1008,3.1768,3.1768,3.1768,3.1768,3.1768,3.1768,3.1768,3.1768,3.1968,3.2092,3.2092,3.235,3.2384,3.2092,3.235,3.2484,3.2484,3.2484,3.2841,3.3597,3.4839,3.5747,0.8201,0.0,0.0,0.0,0.0,0.0,0.0,0.0,0.0,0.0,0.0,0.0,0.0,0.0,0.0,0.0,0.0,0.0,0.0,0.0,0.0,0.0,0.0,0.0,0.0,0.0,0.0,0.0,0.0,0.0,1.5799,1.6288,1.7092,1.8369,1.8495,1.8912,1.9675,1.969,1.969,1.969,1.969,1.969,1.969,1.969,1.969,1.969,1.969,1.969,1.969,1.969,1.969,1.969,1.969,1.969,1.969,1.969,1.969,1.969,1.969,1.9909,2.0227,2.0649,2.0797,2.0829,2.0959,2.1213,2.1544,2.2082,2.3125,2.4261,2.496,2.5816,2.6556,2.6657,2.6691,2.6691,2.6691,2.6691,2.6691,2.6691,2.6691,2.6691,2.6691,2.6691,2.6759,2.6962,2.8129,2.9059,2.9262,3.0395,3.119,3.119,3.119,3.119,3.119,3.119,3.119,3.119,3.147,3.164,3.164,3.195,3.1986,3.1623,3.1986,3.2162,3.2162,3.2162,3.2162,3.2197,3.397,3.503,0.0,0.0,0.0,0.8825,0.0,0.0,0.0,0.0,0.8914,0.0,0.0,0.0,0.0,0.0,0.0,0.9684,0.0,0.0,0.0,0.0,0.0,0.0,0.0,0.0,0.0,0.0,0.0,0.0,0.0,0.0,1.4256,1.5377,1.6503,1.7599,1.7969,1.8634,1.9675,1.969,1.969,1.969,1.969,1.969,1.969,1.969,1.969,1.969,1.969,1.969,1.969,1.969,1.969,1.969,1.969,1.969,1.969,1.969,1.969,1.969,1.969,1.9726,1.9782,2.0193,2.0314,2.0416,2.0862,2.1007,2.1023,2.1055,2.2064,2.3259,2.3819,2.4992,2.6156,2.659,2.6691,2.6691,2.6691,2.6691,2.6691,2.6691,2.6691,2.6691,2.6691,2.6691,2.6945,2.7637,2.8467,2.9245,2.9973,3.0734,3.119,3.119,3.119,3.119,3.119,3.119,3.119,3.119,3.123,3.123,3.123,3.123,3.123,3.123,3.123,3.123,3.123,3.123,3.123,3.1303,3.3701,3.4584,0.0,0.0,0.8811,0.8765,0.0,0.0,0.0,0.0,0.0,0.0,0.0,0.0,0.0,0.0,0.992,0.9625,0.971,0.0,0.0,0.0,0.0,0.0,0.0,0.0,0.0,0.0,0.0,0.0,0.0,0.0,0.0,1.4514,1.5399,1.6948,1.729,1.7954,1.9031,1.9465,1.969,1.969,1.969,1.969,1.969,1.969,1.969,1.969,1.969,1.969,1.969,1.969,1.969,1.969,1.969,1.969,1.969,1.969,1.969,1.969,1.969,1.969,1.9711,1.9874,1.9909,1.9945,2.007,2.033,2.0644,2.1064,2.2125,2.325,2.3874,2.4754,2.5486,2.5672,2.598,2.6227,2.6227,2.647,2.6691,2.6691,2.6691,2.6691,2.6691,2.7114,2.752,2.7755,2.8484,2.9262,3.0023,3.0734,3.119,3.119,3.119,3.119,3.119,3.119,3.119,3.119,3.119,3.119,3.119,3.119,3.119,3.119,3.119,3.119,3.119,3.119,3.119,3.1224,3.2535,3.3311,0.8005,0.8582,0.0,0.931,0.9802,0.0,0.9607,0.0,0.0,0.0,0.0,0.0,0.0,0.0,0.0,0.9833,0.9739,0.0,0.0,0.0,0.0,0.0,0.0,0.0,0.0,0.0,1.0234,1.1055,0.0,0.0,0.0,0.0,1.4512,1.6066,1.6688,1.751,1.8614,1.9304,1.9705,1.969,1.969,1.969,1.969,1.969,1.969,1.969,1.969,1.969,1.969,1.969,1.969,1.969,1.969,1.969,1.969,1.969,1.969,1.969,1.969,1.969,1.969,1.969,1.969,1.969,1.969,1.9874,2.0181,2.0625,2.1626,2.276,2.3333,2.4198,2.495,2.5128,2.5449,2.5726,2.5726,2.5944,2.6158,2.6158,2.6315,2.6436,2.6436,2.6977,2.7604,2.8146,2.889,2.9651,3.0395,3.0903,3.119,3.119,3.119,3.119,3.119,3.119,3.119,3.119,3.119,3.119,3.119,3.119,3.119,3.119,3.119,3.119,3.119,3.119,3.119,3.1207,3.1935,3.2679]},{"header":{"parameterUnit":"m.s-1","parameterCategory":1,"la1":30.6,"la2":29.2853,"lo1":-89.7004,"lo2":-87.6739,"dy":0.0162,"dx":0.0183,"nx":112,"ny":82,"refTime":"2024-06-10T00:00:00:Z","depth":0,"parameterNumber":3,"parameterNumberName":"V-component_of_WINDS"},"data":[0.0,0.0,0.0,0.0,0.0,0.0,0.0,0.0,0.0,0.0,0.0,0.0,0.0,0.0,0.0,0.0,0.0,0.0,0.0,0.0,0.0,0.0,0.0,0.0,0.0,0.0,0.0,0.0,0.0,0.0,0.0,0.0,0.0,0.0,0.0,0.0,0.0,0.0,0.0,0.0,0.0,0.0,0.0,0.0,0.0,0.0,0.0,0.0,0.0,0.0,0.0,0.0,0.0,0.0,0.0,0.0,0.0,0.0,0.0,0.0,0.0,0.0,0.0,0.0,0.0,0.0,0.0,0.0,0.0,0.0,0.0,0.0,0.0,0.0,0.0,0.0,0.0,0.0,0.0,0.0,0.0,0.0,0.0,0.0,0.0,0.0,0.0,0.0,0.0,0.0,0.0,0.8096,0.9077,0.9805,1.0177,0.9931,0.9706,0.9477,0.0,0.0,0.0,0.0,0.0,0.0,0.0,0.0,0.0,0.0,0.0,0.0,0.0,0.0,0.0,0.0,0.0,0.0,0.0,0.0,0.0,0.0,0.0,0.0,0.0,0.0,0.0,0.0,0.0,0.0,0.0,0.0,0.0,0.0,0.0,0.0,0.0,0.0,0.0,0.0,0.0,0.0,0.0,0.0,0.0,0.0,0.0,0.0,0.0,0.0,0.0,0.0,0.0,0.0,0.0,0.0,0.0,0.0,0.0,0.0,0.0,0.0,0.0,0.0,0.0,0.0,0.0,0.0,0.0,0.0,0.0,0.0,0.0,0.0,0.0,0.0,0.0,0.0,0.0,0.0,0.0,0.0,0.0,0.0,0.0,0.0,0.0,0.0,0.0,0.0,0.0,0.0,0.0,0.0,0.0,0.0,0.0,0.0,0.0,0.0,0.0,0.0,0.0,0.0,0.7916,0.9425,1.0094,1.0457,1.0514,1.0606,1.0419,0.9709,0.0,0.0,0.0,0.0,0.0,0.0,0.0,0.0,0.0,0.0,0.0,0.0,0.0,0.0,0.0,0.0,0.0,0.0,0.0,0.0,0.0,0.0,0.0,0.0,0.0,0.0,0.0,0.0,0.0,0.0,0.0,0.0,0.0,0.0,0.0,0.0,0.0,0.0,0.0,0.0,0.0,0.0,0.0,0.0,0.0,0.0,0.0,0.0,0.0,0.0,0.0,0.0,0.0,0.0,0.0,0.0,0.0,0.0,0.0,0.0,0.0,0.0,0.0,0.0,0.0,0.0,0.0,0.0,0.0,0.0,0.0,0.0,0.0,0.0,0.0,0.0,0.0,0.0,0.0,0.0,0.0,0.0,0.0,0.0,0.0,0.0,0.0,0.0,0.0,0.0,0.0,0.0,0.0,0.0,0.0,0.0,0.0,0.0,0.0,0.0,0.0,0.0,0.0,0.7544,0.8553,1.0094,1.0433,1.0684,1.1043,1.0902,1.0529,0.9969,0.8954,0.0,0.0,0.0,0.0,0.0,0.0,0.0,0.0,0.0,0.0,0.0,0.0,0.0,0.0,0.0,0.0,0.0,0.0,0.0,0.0,0.0,0.0,0.0,0.0,0.0,0.0,0.0,0.0,0.0,0.0,0.0,0.0,0.0,0.0,0.0,0.0,0.0,0.0,0.0,0.0,0.0,0.0,0.0,0.0,0.0,0.0,0.0,0.0,0.0,0.0,0.0,0.0,0.0,0.0,0.0,0.0,0.0,0.0,0.0,0.0,0.0,0.0,0.0,0.0,0.0,0.0,0.0,0.0,0.0,0.0,0.0,0.0,0.0,0.0,0.0,0.0,0.0,0.0,0.0,0.0,0.0,0.0,0.0,0.0,0.0,0.0,0.0,0.0,0.0,0.0,0.0,0.0,0.0,0.0,0.0,0.0,0.0,0.0,0.0,0.0,0.0,0.0,0.8108,0.8962,1.0512,1.0642,1.0911,1.1543,1.106,1.0564,1.0226,0.9231,0.0,0.0,0.0,0.0,0.0,0.0,0.0,0.0,0.0,0.0,0.0,0.0,0.0,0.0,0.0,0.0,0.0,0.0,0.0,0.0,0.0,0.0,0.0,0.0,0.0,0.0,0.0,0.0,0.0,0.0,0.0,0.0,0.0,0.0,0.0,0.0,0.0,0.0,0.0,0.0,0.0,0.0,0.0,0.0,0.0,0.0,0.0,0.0,0.0,0.0,0.0,0.0,0.0,0.0,0.0,0.0,0.0,0.0,0.0,0.0,0.0,0.0,0.0,0.0,0.0,0.0,0.0,0.0,0.0,0.0,0.0,0.0,0.0,0.0,0.0,0.0,0.0,0.0,0.0,0.0,0.0,0.0,0.0,0.0,0.0,0.0,0.0,0.0,0.0,0.0,0.0,0.0,0.0,0.0,0.0,0.0,0.0,0.0,0.0,0.0,0.0,0.0,0.8327,0.9111,1.0681,1.1036,1.1347,1.1847,1.1217,1.0716,1.048,0.9169,0.0,0.0,0.0,0.0,0.0,0.0,0.0,0.0,0.0,0.0,0.0,0.0,0.0,0.0,0.0,0.0,0.0,0.0,0.0,0.0,0.0,0.0,0.0,0.0,0.0,0.0,0.0,0.0,0.0,0.0,0.0,0.0,0.0,0.0,0.0,0.0,0.0,0.0,0.0,0.0,0.0,0.0,0.0,0.0,0.0,0.0,0.0,0.0,0.0,0.0,0.0,0.0,0.0,0.0,0.0,0.0,0.0,0.0,0.0,0.0,0.0,0.0,0.0,0.0,0.0,0.0,0.0,0.0,0.0,0.0,0.0,0.0,0.0,0.0,0.0,0.0,0.0,0.0,0.0,0.0,0.0,0.0,0.0,0.0,0.0,0.0,0.0,0.0,0.0,0.0,0.0,0.0,0.0,0.0,0.0,0.0,0.0,0.0,0.0,0.0,0.0,0.0,0.8529,0.9415,0.0,1.121,1.152,1.2393,1.1437,1.0795,1.0812,0.0,0.0,0.0,0.0,0.0,0.0,0.0,0.0,0.0,0.0,0.0,0.0,0.0,0.0,0.0,0.0,0.0,0.0,0.0,0.0,0.0,0.0,0.0,0.0,0.0,0.0,0.0,0.0,0.0,0.0,0.0,0.0,0.0,0.0,0.0,0.0,0.0,0.0,0.0,0.0,0.0,0.0,0.0,0.0,0.0,0.0,0.0,0.0,0.0,0.0,0.0,0.0,0.0,0.0,0.0,0.0,0.0,0.0,0.0,0.0,0.0,0.0,0.0,0.0,0.0,0.0,0.0,0.0,0.0,0.0,0.0,0.0,0.0,0.0,0.0,0.0,0.0,0.0,0.0,0.0,0.0,0.0,0.0,0.0,0.0,0.0,0.0,0.0,0.0,0.0,0.0,0.0,0.0,0.0,0.0,0.0,0.0,0.0,0.0,0.0,0.0,0.0,0.8226,0.8717,0.966,0.0,1.1458,1.1731,1.2823,1.1695,1.0955,1.106,0.0,0.0,0.0,0.0,0.0,0.0,0.0,0.0,0.0,0.0,0.0,0.0,0.0,0.0,0.0,0.0,0.0,0.0,0.0,0.0,0.0,0.0,0.0,0.0,0.0,0.0,0.0,0.0,0.0,0.0,0.0,0.0,0.0,0.0,0.0,0.0,0.0,0.0,0.0,0.0,0.0,0.0,0.0,0.0,0.0,0.0,0.0,0.0,0.0,0.0,0.0,0.0,0.0,0.0,0.0,0.0,0.0,0.0,0.0,0.0,0.0,0.0,0.0,0.0,0.0,0.0,0.0,0.0,0.0,0.0,0.0,0.0,0.0,0.0,0.0,0.0,0.0,0.0,0.0,0.0,0.0,0.0,0.0,0.0,0.0,0.0,0.0,0.0,0.0,0.0,0.0,0.0,0.0,0.0,0.0,0.0,0.0,0.0,0.0,0.0,0.0,0.0,0.8487,0.895,0.9856,1.1787,1.1817,1.2091,1.3086,1.1966,1.1202,0.0,0.0,0.0,0.0,0.0,0.0,0.0,0.0,0.0,0.0,0.0,0.0,0.0,0.0,0.0,0.0,0.0,0.0,0.0,0.0,0.0,0.0,0.0,0.0,0.0,0.0,0.0,0.0,0.0,0.0,0.0,0.0,0.0,0.0,0.0,0.0,0.0,0.0,0.0,0.0,0.0,0.0,0.0,0.0,0.0,0.0,0.0,0.0,0.0,0.0,0.0,0.0,0.0,0.0,0.0,0.0,0.0,0.0,0.0,0.0,0.0,0.0,0.0,0.0,0.0,0.0,0.0,0.0,0.0,0.0,0.0,0.0,0.0,0.0,0.0,0.0,0.0,0.0,0.0,0.0,0.0,0.0,0.0,0.0,0.0,0.0,0.0,0.0,0.0,0.0,0.0,0.0,0.0,0.0,0.0,0.0,0.0,0.0,0.0,0.0,0.0,0.0,0.0,0.8487,0.9036,0.9907,1.1592,1.1765,1.2076,1.3062,1.2016,1.1397,1.1465,0.0,0.0,0.0,0.0,0.0,0.0,0.0,0.0,0.0,0.0,0.0,0.0,0.0,0.0,0.0,0.0,0.0,0.0,0.0,0.0,0.0,0.0,0.0,0.0,0.0,0.0,0.0,0.0,0.0,0.0,0.0,0.0,0.0,0.0,0.0,0.0,0.0,0.0,0.0,0.0,0.0,0.0,0.0,0.0,0.0,0.0,0.0,0.0,0.0,0.0,0.0,0.0,0.0,0.0,0.0,0.0,0.0,0.0,0.0,0.0,0.0,0.0,0.0,0.0,0.0,0.0,0.0,0.0,0.0,0.0,0.0,0.0,0.0,0.0,0.0,0.0,0.0,0.0,0.0,0.0,0.0,0.0,0.0,0.0,0.0,0.0,0.0,0.0,0.0,0.0,0.0,0.0,0.0,0.0,0.0,0.0,0.0,0.0,0.0,0.0,0.0,0.0,0.8723,0.9267,1.0146,1.1704,1.1908,1.2232,1.3048,1.2081,1.1485,1.1606,0.0,0.0,0.0,0.0,0.0,0.0,0.0,0.0,0.0,0.0,0.0,0.0,0.0,0.0,0.0,0.0,0.0,0.0,0.0,0.0,0.0,0.0,0.0,0.0,0.0,0.0,0.0,0.0,0.0,0.0,0.0,0.0,0.0,0.0,0.0,0.0,0.0,0.0,0.0,0.0,0.0,0.0,0.0,0.0,0.0,0.0,0.0,0.0,0.0,0.0,0.0,0.0,0.0,0.0,0.0,0.0,0.0,0.0,0.0,0.0,0.0,0.0,0.0,0.0,0.0,0.0,0.0,0.0,0.0,0.0,0.0,0.0,0.0,0.0,0.0,0.0,0.0,0.0,0.0,0.0,0.0,0.0,0.0,0.0,0.0,0.0,0.0,0.0,0.0,0.0,0.0,0.0,0.0,0.0,0.0,0.0,0.0,0.0,0.0,0.0,0.0,0.0,0.9111,0.9701,1.0539,1.1921,1.2222,1.257,1.3001,1.2184,1.1645,1.1606,0.0,0.0,0.0,0.0,0.0,0.0,0.0,0.0,0.0,0.0,0.0,0.0,0.0,0.0,0.0,0.0,0.0,0.0,0.0,0.0,0.0,0.0,0.0,0.0,0.0,0.0,0.0,0.0,0.0,0.0,0.0,0.0,0.0,0.0,0.0,0.0,0.0,0.0,0.0,0.0,0.0,0.0,0.0,0.0,0.0,0.0,0.0,0.0,0.0,0.0,0.0,0.0,0.0,0.0,0.0,0.0,0.0,0.0,0.0,0.0,0.6807,0.0,0.0,0.0,0.0,0.0,0.0,0.0,0.0,0.0,0.0,0.0,0.0,0.0,0.0,0.0,0.0,0.0,0.0,0.0,0.0,0.0,0.0,0.0,0.0,0.0,0.0,0.0,0.0,0.0,0.0,0.0,0.0,0.0,0.0,0.0,0.0,0.0,0.0,0.0,0.0,0.0,0.9302,1.022,1.1014,1.1716,1.2406,1.2757,1.278,1.2347,1.1934,1.1626,0.0,0.0,0.0,0.0,0.0,0.0,0.0,0.0,0.0,0.0,0.0,0.0,0.0,0.0,0.0,0.0,0.0,0.0,0.0,0.0,0.0,0.0,0.0,0.0,0.0,0.0,0.0,0.0,0.0,0.0,0.0,0.0,0.0,0.0,0.0,0.0,0.0,0.0,0.0,0.0,0.0,0.0,0.0,0.0,0.0,0.0,0.0,0.0,0.0,0.0,0.0,0.0,0.0,0.0,0.0,0.0,0.0,0.0,0.0,0.0,0.0,0.7315,0.0,0.0,0.0,0.0,0.0,0.0,0.0,0.0,0.0,0.0,0.0,0.0,0.0,0.0,0.0,0.0,0.0,0.0,0.0,0.0,0.0,0.0,0.0,0.0,0.0,0.0,0.0,0.0,0.0,0.0,0.0,0.0,0.0,0.0,0.0,0.0,0.0,0.0,0.0,0.0,0.9546,1.0691,1.151,1.1877,1.2637,1.2976,1.2715,1.2386,1.2129,1.1895,1.0879,0.0,0.0,0.0,0.0,0.0,0.0,0.0,0.0,0.0,0.0,0.0,0.0,0.0,0.0,0.0,0.0,0.0,0.0,0.0,0.0,0.0,0.0,0.0,0.0,0.0,0.0,0.0,0.0,0.0,0.0,0.0,0.0,0.0,0.0,0.0,0.0,0.0,0.0,0.0,0.0,0.0,0.0,0.0,0.0,0.0,0.0,0.0,0.0,0.0,0.0,0.0,0.0,0.0,0.8577,0.8731,0.8958,0.8958,0.9118,0.9296,0.8572,0.8363,0.839,0.0,0.0,0.0,0.0,0.0,0.0,0.0,0.0,0.0,0.0,0.0,0.0,0.0,0.0,0.0,0.0,0.0,0.0,0.0,0.0,0.0,0.0,0.0,0.0,0.0,0.8147,0.8083,0.0,0.0,0.0,0.0,0.0,0.0,0.0,0.0,0.0,0.0,0.0,0.0,0.9964,1.123,1.2049,1.2236,1.2944,1.3205,1.2773,1.2501,1.2314,1.219,1.1221,1.0518,0.0,0.0,0.0,0.0,0.0,0.0,0.0,0.0,0.0,0.0,0.0,0.0,0.0,0.0,0.0,0.0,0.0,0.0,0.0,0.0,0.0,0.0,0.0,0.0,0.0,0.0,0.0,0.0,0.0,0.0,0.0,0.0,0.6736,0.7198,0.0,0.0,0.0,0.0,0.0,0.0,0.0,0.0,0.0,0.0,0.0,0.0,0.0,0.0,0.8624,0.8884,0.8991,0.907,0.9385,0.9532,0.9566,0.9566,0.9726,0.9993,0.988,0.0,0.8744,0.8624,0.0,0.0,0.0,0.0,0.0,0.0,0.0,0.0,0.0,0.0,0.0,0.0,0.0,0.0,0.0,0.0,0.0,0.0,0.0,0.0,0.0,0.0,0.9017,0.9017,0.9265,0.9359,0.0,0.8267,0.7696,0.7702,0.7268,0.0,0.0,0.0,0.0,0.0,0.0,0.0,1.078,1.2,1.2779,1.2781,1.3423,1.3574,1.2949,1.2832,1.2627,1.2209,1.2025,1.1465,1.0371,1.0068,0.0,0.0,0.0,0.0,0.0,0.0,0.0,0.0,0.0,0.0,0.0,0.0,0.0,0.0,0.0,0.0,0.0,0.0,0.0,0.0,0.0,0.0,0.0,0.0,0.0,0.0,0.0,0.0,0.0,0.6781,0.7259,0.7316,0.7355,0.7325,0.0,0.0,0.0,0.0,0.0,0.0,0.0,0.0,0.0,0.8605,0.8951,0.9172,0.9299,0.9586,0.982,0.9987,1.0281,1.0508,1.0661,1.0661,1.0735,1.0848,1.0848,1.0541,1.0,0.9506,0.9051,0.8599,0.0,0.0,0.0,0.0,0.8424,0.8424,0.8424,0.8437,0.0,0.0,0.0,0.0,0.0,0.0,0.0,0.0,0.0,0.0,0.0,0.0,0.0,0.9486,0.9586,0.9646,0.9519,0.9185,0.8771,0.0,0.7963,0.7862,0.8052,0.0,0.0,0.0,0.0,0.0,1.1124,1.2547,1.3405,1.3368,1.3748,1.3782,1.3281,1.3018,1.2803,1.2607,1.2363,1.1973,1.1396,1.0674,0.9982,0.0,0.0,0.0,0.0,0.0,0.0,0.0,0.0,0.0,0.0,0.0,0.0,0.0,0.0,0.0,0.0,0.0,0.0,0.0,0.0,0.0,0.0,0.0,0.0,0.0,0.0,0.0,0.0,0.7388,0.7688,0.7644,0.7861,0.7923,0.0,0.0,0.0,0.0,0.0,0.0,0.8577,0.8871,0.9198,0.9566,0.9793,0.998,1.0127,1.0341,1.0561,1.0782,1.1002,1.1216,1.1423,1.1423,1.147,1.1543,1.1543,1.1416,1.1156,1.0347,0.9846,0.9552,0.9339,0.9259,0.9259,0.9259,0.9259,0.9259,0.9259,0.9399,0.9519,0.9158,0.0,0.9593,0.9085,0.0,0.0,0.0,0.0,0.974,0.996,1.0074,1.0127,1.0127,1.0127,1.0127,1.0127,1.0127,0.9846,0.0,0.8644,0.8626,0.8637,0.0,0.0,0.0,0.0,1.0897,1.1626,1.2994,1.3876,1.3846,1.3984,1.3965,1.3545,1.3125,1.2881,1.2881,1.2578,1.2353,1.219,1.1182,1.0508,1.0225,0.0,0.0,0.0,0.0,0.0,0.0,0.0,0.0,0.0,0.0,0.0,0.0,0.0,0.0,0.0,0.0,0.0,0.0,0.0,0.0,0.0,0.0,0.0,0.0,0.0,0.0,0.0,0.0,0.0,0.8752,0.8539,0.0,0.0,0.0,0.0,0.831,0.8597,0.8891,0.9123,0.9479,0.99,1.0537,1.0571,1.0782,1.1329,1.1356,1.1369,1.1383,1.1396,1.141,1.1423,1.1423,1.1583,1.1844,1.1844,1.1837,1.1777,1.1176,1.0755,1.0557,1.0537,1.0537,1.0537,1.0537,1.0537,1.0537,1.0537,1.0544,1.0598,1.0782,1.0882,1.0848,1.0541,1.0524,0.0,0.0,1.0474,1.0909,1.0922,1.1129,1.1336,1.1336,1.1336,1.1336,1.1336,1.1336,1.0995,0.0,0.9392,0.9247,0.9555,0.0,0.947,1.0363,1.0754,1.1459,1.2743,1.3504,1.3987,1.4251,1.4167,1.3965,1.3545,1.3125,1.2881,1.2881,1.2861,1.2656,1.22,1.1758,1.1155,1.0303,0.9271,0.0,0.0,0.0,0.0,0.0,0.0,0.0,0.0,0.0,0.0,0.0,0.0,0.0,0.0,0.0,0.0,0.0,0.0,0.0,0.0,0.0,0.0,0.0,0.0,0.0,0.0,0.0,0.0,0.8948,0.8954,0.0,0.0,0.9058,0.9105,0.9212,0.9312,0.9579,1.0067,1.0187,1.0514,1.1096,1.1116,1.1216,1.1423,1.1617,1.171,1.171,1.1904,1.1991,1.1991,1.1991,1.2044,1.2144,1.2144,1.2144,1.2131,1.1924,1.155,1.1116,1.1116,1.1116,1.1116,1.1116,1.1116,1.1116,1.1116,1.1116,1.1136,1.1236,1.1269,1.1249,1.1149,1.1116,1.1096,1.0989,1.1109,1.1269,1.1269,1.1349,1.1423,1.1423,1.1423,1.1423,1.1423,1.1423,1.1303,1.0882,1.0414,1.0026,0.9873,0.982,0.9953,1.0509,1.1099,1.1791,1.258,1.3412,1.4092,1.4384,1.4164,1.3912,1.3758,1.3221,1.2881,1.2881,1.2881,1.2812,1.2656,1.2227,1.1709,1.1165,1.0118,0.929,0.0,0.0,0.0,0.0,0.0,0.0,0.0,0.0,0.0,0.0,0.0,0.0,0.0,0.0,0.0,0.0,0.0,0.0,0.0,0.0,0.0,0.0,0.0,0.0,0.0,0.0,0.9445,0.9392,0.9364,0.9538,0.991,0.9792,0.9935,1.0422,1.0152,1.0418,1.1332,1.1043,1.1076,1.1557,1.1577,1.1623,1.1724,1.1917,1.2011,1.2017,1.2211,1.2305,1.2305,1.2305,1.2305,1.2305,1.2305,1.2305,1.2305,1.2305,1.2071,1.1724,1.1724,1.1724,1.1724,1.1724,1.1724,1.1724,1.1724,1.1724,1.1724,1.1724,1.1724,1.1703,1.1603,1.1643,1.1697,1.1603,1.1643,1.1724,1.1724,1.1724,1.1724,1.1724,1.1724,1.1724,1.1724,1.1724,1.169,1.1597,1.1109,1.0645,1.037,1.0334,1.0443,1.0857,1.1458,1.2022,1.2508,1.3305,1.3941,1.43,1.4034,1.3853,1.3774,1.3231,1.2919,1.2842,1.2881,1.2881,1.2832,1.2367,1.1998,1.1653,1.0473,0.9466,0.8703,0.0,0.0,0.0,0.0,0.0,0.0,0.0,0.0,0.0,0.0,0.0,0.0,0.0,0.0,0.0,0.0,0.0,0.0,0.0,0.0,0.0,0.0,0.0,0.989,1.0039,1.0146,1.0265,0.9993,0.9973,1.0546,1.0109,1.0415,1.192,1.1192,1.1353,1.2893,1.2051,1.1639,1.1942,1.1955,1.2089,1.2372,1.2298,1.2298,1.2372,1.2298,1.2305,1.2305,1.2305,1.2305,1.2305,1.2305,1.2305,1.2305,1.2305,1.2305,1.2305,1.2305,1.2305,1.2305,1.2305,1.2305,1.2305,1.2305,1.2305,1.2305,1.2305,1.2305,1.2245,1.1964,1.2078,1.2245,1.1964,1.2084,1.2305,1.2305,1.2305,1.2305,1.2305,1.2305,1.2305,1.2305,1.2305,1.2218,1.1937,1.1416,1.1081,1.1186,1.1006,1.1003,1.1498,1.1685,0.0,1.2683,1.3216,1.3631,1.395,1.3879,1.3708,1.3496,1.3165,1.2897,1.2705,1.2832,1.2832,1.2725,1.2234,1.1902,1.1799,1.0288,0.903,0.7971,0.0,0.0,0.0,0.0,0.0,0.0,0.0,0.0,0.0,0.0,0.0,0.0,0.0,0.0,0.0,0.0,0.0,0.0,0.0,0.0,0.0,0.0,1.1504,1.112,1.084,1.0995,1.1848,1.1856,1.1924,1.2311,1.2461,1.2679,1.3121,1.3252,1.3531,1.4174,1.3926,1.36,1.3244,1.3187,1.3223,1.331,1.2659,1.2659,1.331,1.2666,1.2305,1.2305,1.2305,1.2305,1.2305,1.2305,1.2305,1.2305,1.2305,1.2305,1.2305,1.2305,1.2305,1.2305,1.2305,1.2305,1.2305,1.2305,1.2305,1.2305,1.2305,1.2305,1.2285,1.2204,1.2238,1.2285,1.2204,1.2238,1.2305,1.2305,1.2305,1.2305,1.2305,1.2305,1.2305,1.2305,1.2305,1.2278,1.2198,1.1884,1.1559,1.1128,1.1053,1.1053,1.1024,1.124,0.0,1.1872,1.2781,1.3329,1.3139,1.3327,1.3408,1.3314,1.2795,1.2591,1.2852,1.2881,1.2881,1.2832,1.2192,1.1631,1.1255,1.0971,1.0374,0.0,0.0,0.0,0.0,0.0,0.0,0.0,0.0,0.0,0.0,0.0,0.0,0.0,0.0,0.0,0.0,0.0,0.0,0.0,0.0,0.0,0.0,1.1732,1.2314,1.2831,1.2403,1.2321,1.3001,1.2898,1.3015,1.3752,1.3672,1.3916,1.4608,1.4512,1.4799,1.5446,1.5118,1.473,1.4378,1.4314,1.4314,1.4314,1.381,1.3593,1.3673,1.3171,1.2666,1.2305,1.2305,1.2305,0.0,1.2305,1.2305,1.2305,1.2305,1.2378,0.0,0.0,0.0,0.0,0.0,1.2572,1.2685,1.2685,1.2685,1.2665,1.2532,1.2485,1.2465,1.2338,1.2305,1.2305,1.2305,1.2305,1.2305,1.2305,1.2305,1.2305,1.2305,1.2305,1.2305,1.2305,1.2305,1.2305,1.2305,1.2164,0.0,1.1436,1.1216,1.1059,1.0955,1.1009,1.1178,1.1428,1.2112,1.2536,1.2405,1.2639,1.2839,1.304,1.2652,0.0,0.0,0.0,1.2881,1.2832,1.2353,0.0,0.0,0.0,0.0,0.0,0.0,0.0,0.0,0.9501,0.9505,0.0,0.0,0.0,0.0,0.0,0.0,0.0,0.0,0.0,0.0,0.0,0.0,0.0,0.0,0.0,0.0,1.2168,1.2669,1.4564,1.4242,1.3871,1.3985,1.3584,1.3761,1.4896,1.4399,1.4594,1.6117,1.5536,1.5575,1.6688,0.0,0.0,0.0,0.0,1.5376,1.5376,1.5234,1.4807,1.4027,1.381,1.3237,1.2452,1.2412,1.2351,1.2351,1.2392,1.2405,1.2405,1.2405,1.2559,1.2849,1.2505,1.2405,1.2438,1.2775,1.2973,1.3213,1.3213,0.0,0.0,1.2886,1.2876,1.2746,1.2445,1.2351,1.2345,1.2311,1.2305,1.2305,1.2305,1.2305,1.2305,1.2305,1.2305,1.2305,1.2305,1.2305,1.2305,1.2305,1.2305,1.2218,1.1964,1.1463,1.1135,1.1193,1.0955,1.0905,1.1185,1.1428,1.1622,1.1677,0.0,0.0,1.2722,1.2507,1.2525,1.3053,1.2798,1.2618,1.2471,1.2372,1.2106,1.1648,1.1667,1.1453,1.0967,1.0259,1.0431,1.1421,1.0688,1.0417,0.0,0.0,0.0,0.0,0.0,0.0,0.0,0.0,0.0,0.0,0.0,0.0,0.0,0.0,0.0,1.257,1.3522,1.4328,1.4746,1.4964,1.5052,1.511,1.5002,1.5153,1.5834,1.6004,1.6415,1.7127,1.7273,1.7493,1.7716,1.7579,0.0,1.6358,1.6358,1.6358,1.6358,1.5587,1.5517,1.6,0.0,0.0,1.339,1.292,1.2735,1.2755,1.2926,1.3039,1.3039,1.3039,1.3066,1.3113,1.306,1.3039,1.3046,1.31,1.316,1.3213,1.3213,1.3213,1.32,1.314,1.312,1.3066,1.2752,1.2735,0.0,1.2371,1.2305,1.2305,1.2305,1.2305,1.2305,1.2305,1.2305,1.2305,1.2305,1.2305,1.2305,1.2305,1.2305,1.2285,1.2225,1.1931,1.1536,1.1128,1.1008,1.0887,1.0778,1.1358,1.16,1.1247,1.16,1.1821,1.1835,1.1572,1.1435,1.1674,1.1379,1.1174,1.1174,1.1124,1.0839,1.0226,1.096,1.1378,1.1362,1.0816,1.1301,1.2681,1.0933,1.0354,0.0,0.0,0.0,0.0,0.0,0.0,0.0,0.0,0.0,0.0,0.0,1.0659,0.0,0.0,1.3058,1.3551,1.4311,1.4863,1.5068,1.5283,1.541,1.541,1.541,1.5674,1.6338,1.6602,1.7002,1.7646,1.7891,1.8008,1.8008,1.8008,1.7794,1.7285,1.7285,1.7285,1.7285,1.6862,1.6576,1.6567,1.5649,1.4942,1.4466,1.437,1.4006,1.3514,1.3832,1.3666,1.322,1.3985,1.3895,1.344,1.4216,1.4026,1.3427,1.3427,1.352,1.3647,1.3647,1.3647,1.3621,1.3474,1.3427,1.3367,1.3066,1.2872,1.2795,1.2565,1.2418,1.2305,1.2305,1.2305,1.2305,1.2305,1.2305,1.2305,1.2305,1.2305,1.2305,1.2305,1.2305,1.2305,1.2305,1.2184,1.1884,1.1296,1.1089,1.0889,1.0658,1.0926,1.1108,1.087,1.1052,1.1348,1.1662,1.1734,1.1707,1.1499,1.1239,1.1116,1.1243,1.1132,1.0967,1.077,1.1215,1.1521,1.1576,1.0984,1.1161,1.2053,1.0703,1.0627,0.0,0.0,0.0,0.0,0.0,0.0,0.0,0.0,1.0513,1.1022,1.1463,1.1965,1.2541,1.3151,1.3816,1.4501,1.4797,1.5029,1.5361,1.541,1.541,1.541,1.541,1.5762,1.665,1.6665,1.709,1.7949,1.8008,1.8008,1.8008,1.8008,1.8008,1.8008,1.8008,1.8008,1.8008,1.8008,1.7647,1.6853,1.6706,1.6079,1.5251,1.5673,1.5287,1.4351,1.4817,1.4453,1.3787,1.4889,1.4681,1.383,1.5194,1.4896,1.3728,1.3728,1.3881,1.4088,1.4088,1.4088,1.4048,1.3808,1.3728,1.3674,1.3387,1.308,1.2903,1.2842,1.2532,1.2305,1.2305,1.2305,1.2305,1.2305,1.2305,1.2305,1.2305,1.2305,1.2305,1.2305,1.2305,1.2305,1.2305,1.2305,1.2124,1.159,1.1263,1.0969,1.0681,1.0658,1.0624,1.0624,1.0624,1.0863,1.1531,1.1782,1.1876,1.1574,1.1233,1.1169,1.1495,1.1193,1.106,1.1335,1.1349,1.1502,1.1607,1.1007,1.0946,1.1436,1.0676,1.0948,1.0039,1.038,1.0714,1.1003,1.1099,1.1065,0.0,0.0,1.1172,1.2119,1.2341,1.2706,1.3705,1.4291,1.4668,1.4766,1.5098,1.5361,1.54,1.541,1.541,1.541,1.541,1.5762,1.665,1.6665,1.709,1.7949,1.8008,1.8008,1.8008,1.8008,1.8008,1.8008,1.8008,1.8008,1.8008,1.8008,1.794,1.7862,1.7001,1.6079,1.5188,1.5856,1.5639,1.4779,1.5322,1.5509,1.5434,1.5629,1.5004,1.4119,1.5282,1.5032,1.4041,1.4041,1.4055,1.4088,1.4088,1.4088,1.4082,1.4048,1.4041,1.3981,1.3687,1.3394,1.31,1.2903,1.2532,1.2305,1.2305,1.2305,1.2305,1.2305,1.2305,1.2305,1.2305,1.2305,1.2305,1.2305,1.2305,1.2305,1.2305,1.2305,1.2191,1.187,1.157,1.1276,1.0982,1.0722,1.0624,1.0624,1.0624,1.0624,1.0744,1.0527,1.0569,1.1101,1.0356,1.015,1.0793,1.0208,0.987,0.9904,1.0164,1.0647,1.1329,1.0868,1.1334,1.2769,1.1461,1.1026,1.0972,1.1214,1.1363,0.0,1.1817,1.1885,1.2089,1.231,1.262,1.3292,1.3671,1.3971,1.4428,1.4863,1.5146,0.0,1.5293,1.541,1.541,1.541,1.5322,1.5078,1.5264,1.5654,1.6279,1.6582,1.6982,1.7598,1.7871,1.8008,1.8008,1.8008,1.8008,1.8008,1.8008,1.8008,1.8008,1.8008,1.8008,1.8008,1.7579,1.7217,1.689,1.7624,1.7698,1.7212,1.6798,1.6601,1.6601,1.6601,1.6034,1.5054,1.5538,1.5054,1.4088,1.4088,1.4088,1.4088,1.4088,1.4088,1.4088,1.4088,1.4088,1.4062,1.3941,1.3581,1.318,1.3053,1.2672,1.2305,1.2305,1.2305,1.2305,1.2305,1.2305,1.2305,1.2305,1.2305,1.2305,1.2305,1.2305,1.2305,1.2305,1.2305,1.2265,1.2138,1.187,1.1516,1.1049,1.0889,1.0748,1.0645,1.0624,1.0624,1.0624,1.0448,1.0492,1.0794,1.0275,1.0127,1.0592,1.02,1.002,1.0194,1.0314,1.0554,1.0911,1.0683,1.1016,1.1816,1.1255,1.1176,1.173,0.0,0.0,1.2441,1.254,1.2666,1.2978,1.3291,1.3594,1.3844,1.4209,1.4473,1.459,1.4853,1.5098,1.5215,1.5234,1.5283,1.5391,1.5312,1.5166,1.498,1.5127,1.541,1.584,1.6289,1.6787,1.7344,1.7666,1.7891,1.8008,1.8008,1.8008,1.8008,1.8008,1.8008,1.8008,1.8008,1.8008,1.8008,1.8008,1.7862,1.7608,1.8519,1.8845,1.8725,1.7777,1.709,1.6846,1.6846,1.6198,1.5296,1.5621,1.5054,1.4088,1.4088,1.4088,1.4088,1.4088,1.4088,1.4088,1.4088,1.4088,1.4088,1.4088,1.3681,1.3213,1.3213,1.2772,1.2305,1.2305,1.2305,1.2305,1.2305,1.2305,1.2305,1.2305,1.2305,1.2305,1.2305,1.2305,1.2305,1.2305,1.2305,1.2305,1.2305,1.2124,1.1804,1.1296,1.1089,1.0882,1.0658,1.0624,1.0624,1.0624,1.0624,1.0624,1.0624,1.0354,1.0334,1.0618,1.0354,1.0341,1.0618,1.0624,1.0665,1.0681,1.0681,1.0828,1.1116,1.1196,1.1463,0.0,0.0,1.2719,1.3302,1.3467,1.3467,1.3486,1.3496,1.3516,1.3525,1.3535,1.3672,1.4029,1.4107,1.4307,1.4736,1.4805,1.4941,1.5352,1.5059,1.4951,1.5342,1.5049,1.4971,0.0,1.582,1.6445,1.7324,1.7393,1.7578,1.7988,1.8008,1.8008,1.8008,1.8008,1.8008,1.8008,1.8008,1.8008,1.8008,1.8008,1.7501,1.6664,1.7561,1.8076,1.8243,1.7586,1.6683,1.5779,1.5779,1.5137,1.425,1.5296,1.5054,1.4088,1.4088,1.4088,1.4088,1.4088,1.4088,1.4088,1.4088,1.4088,1.4088,1.4088,1.3681,1.3213,1.3213,1.2772,1.2305,1.2305,1.2305,1.2305,1.2305,1.2305,1.2305,1.2305,1.2305,1.2305,1.2305,1.2305,1.2305,1.2305,1.2305,1.2305,1.2305,1.2291,1.2178,1.1877,1.1349,1.0882,1.0658,1.0624,1.0624,1.0624,1.0624,1.0624,1.0624,1.0618,1.0611,1.0624,1.0618,1.0618,1.0624,1.0624,1.0759,1.0982,1.0982,1.1129,1.1416,1.171,1.185,1.3002,0.0,1.3831,1.4041,1.3791,1.3584,1.3857,1.3711,1.3584,1.3867,1.3926,1.3912,1.4058,1.4077,1.4277,1.4717,1.4785,1.4932,1.5352,1.5293,1.5146,1.501,1.5117,0.0,0.0,0.0,0.0,1.6904,1.7217,1.7568,1.7988,1.8008,1.8008,1.8008,1.8008,1.8008,1.8008,1.8008,1.8008,1.8008,1.8008,1.7938,1.7929,1.8571,1.8984,1.9317,1.8698,1.823,1.7819,1.6347,1.5462,1.5137,1.4817,1.4412,1.4088,1.4088,1.4088,1.4088,1.4088,1.4088,1.4088,1.4088,1.4088,1.4088,1.4088,1.3814,1.3454,1.3267,1.2913,1.2552,1.2351,1.2305,1.2305,1.2305,1.2305,1.2305,1.2305,1.2305,1.2305,1.2305,1.2305,1.2305,1.2305,1.2305,1.2305,1.2305,1.2138,1.1984,1.1877,1.1356,1.0955,1.0862,1.0739,1.0624,1.0624,1.0624,1.0624,1.0624,1.0624,1.0624,1.0624,1.0624,1.0624,1.0624,1.0748,1.0895,1.0995,1.1189,1.143,1.1724,1.1824,1.1977,1.4136,1.4522,1.4974,1.5049,1.4763,1.441,1.4274,1.4032,1.3831,1.3765,1.3691,1.3691,1.3733,1.3691,1.3877,1.4453,1.4551,1.4756,1.5332,1.5283,1.5146,1.5029,1.5244,1.5371,0.0,0.0,0.0,1.6709,1.7139,1.7568,1.7988,1.8008,1.8008,1.8008,1.8008,1.8008,1.8008,1.8008,1.8008,1.8008,1.8008,1.8154,1.8428,1.8857,1.9058,1.9099,1.8889,1.8417,1.7738,1.6265,1.5455,1.5054,1.4328,1.4088,1.4088,1.4088,1.4088,1.4088,1.4088,1.4088,1.4088,1.4088,1.4088,1.4088,1.4088,1.3881,1.3499,1.3293,1.2986,1.2755,1.2378,1.2305,1.2305,1.2305,1.2305,1.2305,1.2305,1.2305,1.2305,1.2305,1.2305,1.2305,1.2305,1.2305,1.2305,1.2305,1.2144,1.1984,1.1884,1.1543,1.1229,1.1015,1.0915,1.0828,1.0722,1.0808,1.0868,1.0868,1.0868,1.0868,1.0868,1.0868,1.0868,1.0868,1.1056,1.1202,1.1309,1.1496,1.1737,1.2024,1.2024,1.2124,1.5532,1.5866,1.6051,1.6214,1.6227,1.5892,1.4705,1.4429,1.4146,1.327,1.2997,1.2949,0.0,0.0,1.3125,1.3965,1.4068,1.4424,1.5264,1.5078,1.5,0.0,0.0,0.0,0.0,0.0,0.0,1.6768,0.0,1.7568,1.7988,1.8008,1.8008,1.8008,1.8008,1.8008,1.8008,1.8008,1.8008,1.8008,1.8008,1.794,1.7949,1.8368,1.8203,1.7617,1.8029,1.7217,1.5674,1.5613,1.5061,1.4088,1.4088,1.4088,1.4088,1.4088,1.4088,1.4088,1.4088,1.4088,1.4088,1.4088,1.4088,1.4088,1.4088,1.3895,1.3607,1.33,1.2999,1.2775,1.2385,1.2305,1.2305,1.2305,1.2305,1.2305,1.2305,1.2305,1.2305,1.2305,1.2305,1.2305,1.2305,1.2224,1.2224,1.2224,1.215,1.2051,1.1924,1.1877,1.1657,1.1096,1.1269,1.1316,1.1042,1.1269,1.1423,1.1423,1.1423,1.1423,1.1423,1.1423,1.1423,1.1423,1.1443,1.159,1.187,1.1884,1.2031,1.2305,1.2305,1.2305,1.6266,1.6798,1.7329,1.6971,1.6528,1.5992,1.5235,1.4623,1.4067,1.3369,1.3011,1.2812,0.0,0.0,0.0,1.3637,1.3988,0.0,1.4863,1.54,0.0,1.5889,0.0,1.6445,1.6553,1.6963,0.0,0.0,1.7314,1.7568,1.7988,1.8008,1.8008,1.8008,1.8008,1.8008,1.8008,1.8008,1.8008,1.8008,1.8008,1.7647,1.6941,1.7355,1.7081,1.6243,1.6129,1.5816,1.536,1.4719,1.4334,1.4088,1.4088,1.4088,1.4088,1.4088,1.4088,1.4088,1.4088,1.4088,1.4088,1.4088,1.4088,1.4088,1.4088,1.4035,1.3868,1.3353,1.3153,1.2966,1.2438,1.2305,1.2305,1.2305,1.2305,1.2305,1.2305,1.2305,1.2305,1.2305,1.2305,1.2305,1.2305,1.1694,1.1162,1.1162,1.0571,1.0548,1.1978,1.2004,1.181,1.1663,1.1516,1.1396,1.1323,1.1383,1.1423,1.1423,1.1423,1.1423,1.1423,1.1423,1.1423,1.1423,1.1643,1.1797,1.187,1.2084,1.2231,1.2305,1.2305,1.2305,1.7445,1.7958,1.8238,1.7715,1.7339,1.6785,1.56,1.4834,1.4138,1.3518,1.2916,0.0,1.2426,0.0,0.0,0.0,0.0,0.0,1.4697,1.5352,1.585,0.0,1.6465,0.0,1.7002,1.7412,1.7656,0.0,1.7656,1.7764,1.7998,1.8008,1.8008,1.8008,1.8008,1.8008,1.8008,1.8008,1.8008,1.8008,1.8008,1.7716,1.7226,1.7021,1.6714,1.6392,0.0,1.5543,1.524,1.4925,1.4489,1.4088,1.4088,1.4088,1.4075,1.3941,1.3975,1.4068,1.3941,1.3975,1.4088,1.4088,1.4088,1.4088,1.4088,1.4088,1.3961,1.3373,1.3213,1.3066,1.2465,1.2305,1.2305,1.2305,1.2305,1.2305,1.2305,1.2305,1.2305,1.2305,1.2305,1.215,1.1694,1.1162,1.0634,1.019,0.9669,0.9674,1.0875,1.0825,1.0688,1.0563,1.0527,1.039,1.0266,1.0367,1.0653,1.1081,1.1152,1.1301,1.181,1.181,1.181,1.181,1.1977,1.2058,1.2058,1.2225,1.2305,1.2305,1.2305,1.2305,1.8582,1.887,1.8807,1.8329,1.8154,1.7616,1.5927,1.5034,1.4359,1.3674,0.0,1.2172,1.2193,1.2001,1.2097,1.2875,0.0,1.3886,1.4635,1.5107,1.5596,1.6094,1.6543,1.6992,1.7422,1.7793,1.8008,1.8008,1.8008,1.8008,1.8008,1.8008,1.8008,1.8008,1.8008,1.8008,1.8008,1.8008,1.8008,1.8008,1.8008,1.794,1.7794,1.6991,1.6616,1.6685,0.0,0.0,1.4961,1.5323,1.483,1.4035,1.4075,1.4062,1.4001,1.3741,1.3781,1.3935,1.3674,1.3754,1.3981,1.4062,1.4088,1.4088,1.4088,1.4062,1.3915,1.3367,1.318,1.3019,1.2452,1.2305,1.2305,1.2305,1.2305,1.2305,1.2305,1.2305,1.2305,1.2305,1.2305,1.1996,1.0932,1.0714,1.0265,0.9221,0.8993,0.8922,0.8922,0.9145,0.922,0.8861,0.91,0.921,0.8861,0.9105,0.9669,1.0559,1.0565,1.1013,1.1848,1.1922,1.1922,1.1922,1.1922,1.1922,1.1922,1.207,1.2077,1.2077,1.2224,1.2305,1.8166,1.8342,1.8329,1.8229,1.7865,1.7305,1.6411,1.5489,0.0,0.0,1.2903,1.2171,1.208,1.1767,1.188,1.2771,0.0,0.0,0.0,0.0,1.5713,0.0,0.0,0.0,0.0,0.0,0.0,0.0,0.0,1.8008,1.8008,1.8008,1.8008,1.8008,1.8008,1.8008,1.8008,1.8008,1.8008,1.8008,1.8008,1.7569,1.6853,1.6636,1.5754,1.4351,1.4469,0.0,1.3242,1.3722,1.3878,1.3741,1.3988,1.3935,1.3714,1.3579,1.3527,1.3353,1.3307,1.332,1.3447,1.3928,1.4088,1.4088,1.4088,1.3915,1.3647,1.3307,1.3026,1.2746,1.2392,1.2305,1.2305,1.2305,1.2305,1.2305,1.2305,1.2305,1.2305,1.2305,1.2305,1.1996,1.0932,1.0115,0.9221,0.8237,0.7326,0.6795,0.6795,0.8237,0.9281,0.9241,0.9271,0.9281,0.9241,0.9271,0.9372,0.9523,0.9593,0.9669,0.9825,0.9825,0.9825,0.9825,0.9825,0.9825,0.9825,1.064,1.1087,1.1087,1.1922,1.2305,1.8147,1.8251,1.8141,1.7852,1.7576,1.7117,1.6126,0.0,0.0,0.0,1.2623,1.1943,1.1762,1.1503,0.0,0.0,0.0,0.0,0.0,0.0,0.0,0.0,0.0,0.0,0.0,0.0,0.0,0.0,0.0,1.8008,1.8008,1.8008,1.8008,1.8008,1.8008,1.8008,1.8008,1.8008,1.8008,1.8008,1.8008,1.7794,1.7285,1.6844,1.579,1.4474,1.4311,0.0,1.2856,1.3233,1.342,1.3434,1.3574,1.3547,1.34,1.324,1.3193,1.3186,1.3026,1.3073,1.326,1.354,1.3627,1.3627,1.3627,1.3534,1.3353,1.3053,1.2936,1.2755,1.2378,1.2305,1.2305,1.2305,1.2305,1.2305,1.2305,1.2305,1.2305,1.2305,1.1848,1.1168,1.019,0.9216,0.8161,0.7176,0.6644,0.6338,0.6338,0.7176,0.7706,0.7706,0.7706,0.7706,0.7706,0.7706,0.7936,0.8466,0.8542,0.877,0.9301,0.9296,0.9296,0.9296,0.9296,0.9296,0.9296,0.982,1.004,1.0045,1.0496,1.0726,1.805,1.8113,1.7903,1.7509,1.7287,1.6892,1.5694,1.4931,0.0,0.0,1.233,1.1662,1.1601,0.0,1.1206,0.0,1.2275,0.0,0.0,0.0,0.0,0.0,0.0,0.0,0.0,0.0,0.0,0.0,0.0,0.0,1.8008,1.8008,1.8008,1.8008,1.8008,1.8008,1.8008,1.8008,1.8008,1.8008,1.8008,1.8008,1.794,1.7217,1.6358,1.5463,1.496,0.0,0.0,1.329,1.3263,1.312,1.3186,1.3173,1.308,1.2916,1.2859,1.2979,1.2739,1.2812,1.3013,1.3013,1.3106,1.3213,1.3213,1.3166,1.306,1.2889,1.2775,1.2599,1.2365,1.2305,1.2305,1.2305,1.2305,1.2305,1.2305,1.215,1.1996,1.1996,1.1168,1.019,0.9145,0.8313,0.748,0.6412,0.6338,0.6338,0.6338,0.6338,0.6338,0.6338,0.6338,0.6338,0.6338,0.6338,0.6644,0.7403,0.748,0.7859,0.8618,0.8694,0.8694,0.8694,0.8694,0.8694,0.8694,0.8841,0.8998,0.8993,0.9226,0.9296,1.7479,1.7445,1.7392,1.7384,1.6986,1.6403,1.5566,0.0,0.0,1.3362,1.221,1.1468,1.1802,1.1248,1.1057,1.1979,0.0,1.2539,0.0,0.0,0.0,0.0,0.0,0.0,0.0,0.0,0.0,0.0,0.0,0.0,1.8008,1.8008,1.8008,1.8008,1.8008,1.8008,1.8008,1.8008,1.8008,1.8008,1.8008,1.8008,1.8008,1.794,1.7364,1.6498,1.6421,0.0,0.0,1.4,1.3618,1.2896,1.31,1.3039,1.2862,1.2835,1.2592,1.2385,1.2351,1.2358,1.2385,1.2385,1.2759,1.3213,1.3213,1.3013,1.2856,1.2829,1.2552,1.2338,1.2311,1.2305,1.2305,1.2305,1.2305,1.2305,1.2305,1.162,1.0932,1.0932,1.0121,0.9145,0.8084,0.7859,0.748,0.6412,0.6338,0.6338,0.6338,0.6338,0.6338,0.6338,0.6338,0.6338,0.6338,0.6338,0.6338,0.6412,0.6412,0.649,0.6567,0.6567,0.6567,0.6567,0.6567,0.6567,0.6567,0.748,0.7936,0.7936,0.8841,0.9296,1.7195,1.7246,1.7295,1.7333,1.6676,1.584,1.5157,0.0,1.3778,1.2651,1.1895,1.1434,1.1525,1.118,1.1094,1.1686,1.202,1.2267,1.2497,0.0,0.0,0.0,0.0,0.0,0.0,0.0,0.0,0.0,0.0,0.0,1.7246,1.7734,1.8008,1.8008,1.8008,1.8008,1.8008,1.8008,1.8008,1.8008,1.8008,1.8008,1.8008,1.8008,1.7501,1.6636,1.6576,0.0,0.0,1.3814,1.3357,1.2492,1.2619,1.2585,1.2478,1.2478,1.2405,1.2305,1.2305,1.2305,1.2305,1.2305,1.2465,1.2665,1.2665,1.2579,1.2478,1.2478,1.2392,1.2305,1.2305,1.2305,1.2305,1.2305,1.2305,1.2305,1.2305,1.1539,1.0783,1.0783,0.9513,0.8237,0.7859,0.7326,0.6795,0.6338,0.6338,0.6338,0.6338,0.6338,0.6338,0.6338,0.6338,0.6338,0.6338,0.6338,0.6338,0.6338,0.6338,0.6338,0.6338,0.6338,0.6338,0.6338,0.6338,0.6338,0.6338,0.6718,0.6872,0.6872,0.7326,0.7533,1.7044,1.7153,1.7223,1.7272,1.6484,1.5502,0.0,1.4125,1.3275,1.214,1.1509,1.1137,1.1145,1.1001,1.099,1.1361,1.1883,1.2254,1.2235,1.3393,0.0,0.0,0.0,0.0,0.0,0.0,0.0,0.0,0.0,0.0,0.0,1.7305,1.7695,1.7822,1.7949,1.8008,1.8008,1.8008,1.8008,1.8008,1.8008,1.8008,1.8008,1.8008,1.7647,1.6991,0.0,0.0,0.0,1.4243,1.3593,1.2659,1.2445,1.2305,1.2305,1.2305,1.2305,1.2305,1.2305,1.2305,1.2305,1.2305,1.2305,1.2305,1.2305,1.2305,1.2305,1.2305,1.2305,1.2305,1.2305,1.2305,1.2305,1.2305,1.2305,1.2305,1.2305,1.1539,1.0708,1.0415,0.8988,0.7706,0.7403,0.6795,0.6338,0.6338,0.6338,0.6338,0.6338,0.6338,0.6338,0.6338,0.6338,0.6338,0.6338,0.6338,0.6338,0.6338,0.6338,0.6338,0.6338,0.6338,0.6338,0.6338,0.6338,0.6338,0.6338,0.6338,0.6338,0.6338,0.6338,0.6363,1.6968,1.7019,1.7041,1.7248,1.6484,1.5502,1.4848,1.3864,1.2889,1.2067,1.1051,1.0427,1.0743,1.0648,1.0681,1.1217,1.1875,1.2443,1.2824,1.3594,0.0,0.0,0.0,0.0,0.0,0.0,0.0,0.0,0.0,0.0,0.0,1.6738,1.6943,1.7373,1.7793,1.8008,1.8008,1.8008,1.8008,1.8008,1.8008,1.8008,1.8008,1.8008,1.8008,0.0,0.0,0.0,0.0,1.5587,1.4593,1.36,1.2659,1.2305,1.2305,1.2305,1.2305,1.2305,1.2305,1.2305,1.2305,1.2305,1.2305,1.2305,1.2305,1.2305,1.2305,1.2305,1.2305,1.2305,1.2305,1.2305,1.2305,1.2305,1.2305,1.2305,1.2305,1.1539,1.049,0.9523,0.8466,0.748,0.649,0.6338,0.6338,0.6338,0.6338,0.6338,0.6338,0.6338,0.6338,0.6338,0.6338,0.6338,0.6338,0.6338,0.6338,0.6338,0.6338,0.6338,0.6338,0.6338,0.6338,0.6338,0.6338,0.6338,0.6338,0.6338,0.6338,0.6338,0.6338,0.6417,1.5773,1.6201,1.6633,1.6566,1.5691,1.4699,1.3968,1.3182,1.2307,1.1222,1.0622,1.0432,1.0844,1.0826,1.0979,1.1792,1.2089,1.2329,0.0,0.0,0.0,0.0,0.0,0.0,0.0,0.0,0.0,0.0,0.0,0.0,0.0,1.6407,1.6475,1.6924,1.707,1.7285,1.7578,1.7578,1.7725,1.8008,1.8008,1.8008,1.8008,1.8008,0.0,0.0,0.0,0.0,0.0,1.628,1.5155,1.3673,1.3382,1.2879,1.2305,1.2305,1.2305,1.2305,1.2305,1.2305,1.2305,1.2305,1.2305,1.2305,1.2305,1.2305,1.2305,1.2305,1.2305,1.2305,1.2305,1.2305,1.2305,1.2305,1.2305,1.2305,1.2305,1.1539,1.0708,1.0415,0.8988,0.7706,0.7403,0.6718,0.6338,0.6338,0.6338,0.6338,0.6338,0.6338,0.6338,0.6338,0.6338,0.6338,0.6338,0.6338,0.6338,0.6338,0.6338,0.6338,0.6338,0.6338,0.6338,0.6338,0.6338,0.6338,0.6338,0.6338,0.6338,0.6268,0.6468,0.661,1.4776,1.5364,1.5716,1.5613,1.4895,1.4016,1.3301,1.2475,1.1648,1.0815,1.0377,1.029,1.0725,1.0881,1.1204,1.1965,1.2401,0.0,0.0,0.0,0.0,0.0,0.0,0.0,0.0,0.0,0.0,0.0,0.0,0.0,0.0,1.6077,1.5947,1.623,1.6562,1.6865,1.7139,1.7139,1.7275,1.7529,1.7529,1.7617,1.7773,1.7773,0.0,0.0,0.0,0.0,0.0,1.6775,1.5649,1.4243,1.3818,1.3098,1.2305,1.2305,1.2305,1.2305,1.2305,1.2305,1.2305,1.2305,1.2305,1.2305,1.2305,1.2305,1.2305,1.2305,1.2305,1.2305,1.2305,1.2305,1.2305,1.2305,1.2305,1.2305,1.2305,1.1842,1.1242,1.0858,0.9513,0.8237,0.7859,0.6945,0.6338,0.6338,0.6338,0.6338,0.6338,0.6338,0.6338,0.6338,0.6338,0.6338,0.6338,0.6338,0.6338,0.6338,0.6338,0.6338,0.6338,0.6338,0.6338,0.6338,0.6338,0.6338,0.6338,0.6338,0.6338,0.6345,0.6505,0.6647,0.0,1.4356,1.4408,1.4471,1.4028,1.3441,1.2742,1.1783,0.0,1.0712,1.0295,1.0079,1.05,1.0954,1.141,1.1889,0.0,0.0,0.0,0.0,0.0,0.0,0.0,0.0,0.0,0.0,0.0,0.0,0.0,0.0,0.0,1.5806,1.541,1.541,1.6211,1.6587,1.668,1.668,1.6699,1.6665,1.6665,1.6943,1.7334,1.7373,0.0,0.0,0.0,0.0,0.0,1.707,1.6149,1.5234,1.4171,1.3237,1.2372,1.2298,1.2305,1.2305,1.2305,1.2305,1.2305,1.2305,1.2305,1.2305,1.2305,1.2305,1.2305,1.2305,1.2305,1.2305,1.2305,1.2305,1.2305,1.2305,1.2305,1.2305,1.2305,1.2305,1.1996,1.1087,1.0045,0.8993,0.8084,0.7022,0.6338,0.6338,0.6338,0.6338,0.6338,0.6338,0.6338,0.6338,0.6338,0.6338,0.6338,0.6338,0.6338,0.6338,0.6338,0.6338,0.6338,0.6338,0.6338,0.6338,0.6338,0.6338,0.6338,0.6338,0.6345,0.6278,0.6424,0.6569,1.1503,0.0,1.3473,1.3276,1.3046,1.2665,0.0,1.1425,1.1003,1.0431,1.0413,1.0669,1.1161,1.1653,1.2111,0.0,0.0,0.0,0.0,0.0,0.0,0.0,0.0,0.0,0.0,0.0,0.0,0.0,0.0,0.0,0.0,1.614,1.541,1.541,1.5615,1.5879,1.6221,1.6221,1.6396,1.6665,1.6665,1.6787,1.6894,1.7227,0.0,0.0,0.0,0.0,1.8008,1.7794,1.7148,1.621,1.5234,1.4235,1.331,1.2592,1.2305,1.2305,1.2305,1.2305,1.2305,1.2305,1.2305,1.2305,1.2305,1.2305,1.2305,1.2305,1.2305,1.2305,1.2305,1.2305,1.2305,1.2305,1.2305,1.2305,1.2305,1.2305,1.2224,1.1996,1.0496,0.9221,0.8993,0.748,0.6338,0.6338,0.6338,0.6338,0.6338,0.6338,0.6338,0.6338,0.6338,0.6338,0.6338,0.6338,0.6338,0.6338,0.6338,0.6338,0.6338,0.6338,0.6338,0.6338,0.6338,0.6338,0.6338,0.6338,0.6318,0.6427,0.6576,0.6729,1.0668,1.1776,1.2733,1.2232,1.2191,1.2074,1.1252,1.0989,1.0873,1.0704,0.0,0.0,1.1819,0.0,0.0,0.0,0.0,0.0,0.0,0.0,0.0,0.0,0.0,0.0,0.0,0.0,0.0,0.0,0.0,0.0,0.0,1.6528,1.5748,1.541,1.541,1.5527,1.5762,1.5762,1.5889,1.6123,1.6123,1.623,1.6436,1.667,1.6894,0.0,0.0,0.0,1.7734,1.793,1.7432,1.6567,1.607,1.4942,1.3673,1.3091,1.2659,1.2305,1.2305,1.2305,1.2305,1.2305,1.2305,1.2305,1.2305,1.2305,1.2305,1.2305,1.2305,1.2305,1.2305,1.2305,1.2305,1.2305,1.2305,1.2305,1.2305,1.2305,1.2305,1.2305,1.0651,0.9296,0.9296,0.7629,0.6338,0.6338,0.6338,0.6338,0.6338,0.6338,0.6338,0.6338,0.6338,0.6338,0.6338,0.6338,0.6338,0.6338,0.6338,0.6338,0.6338,0.6338,0.6338,0.6338,0.6338,0.6338,0.6338,0.6338,0.6332,0.6474,0.6627,0.6783,1.0518,1.1468,1.2134,1.1483,1.1551,1.1635,1.1034,1.0816,0.0,0.0,0.0,0.0,0.0,1.2672,0.0,0.0,0.0,0.0,0.0,0.0,0.0,0.0,0.0,0.0,0.0,0.0,0.0,0.0,0.0,0.0,0.0,1.6922,1.6151,1.541,1.541,1.541,1.541,1.541,1.541,1.541,1.541,1.5605,1.6027,1.6096,1.6269,0.0,0.0,0.0,1.7314,1.7744,1.7406,1.6693,1.6609,1.5508,1.3882,1.3745,1.3091,1.2305,1.2305,1.2305,1.2305,1.2305,1.2305,1.2305,1.2305,1.2305,1.2305,1.2305,1.2305,1.2305,1.2305,1.2305,1.2305,1.2305,1.2305,1.2305,1.2305,1.2305,1.2305,1.2305,1.0651,0.9296,0.9296,0.7629,0.6338,0.6338,0.6338,0.6338,0.6338,0.6338,0.6338,0.6338,0.6338,0.6338,0.6338,0.6338,0.6338,0.6338,0.6338,0.6338,0.6338,0.6338,0.6338,0.6338,0.6338,0.6338,0.6338,0.6338,0.6346,0.6512,0.6641,0.6793,1.0037,1.0952,1.1815,1.1541,1.1402,1.1386,1.1724,1.1619,1.1601,0.0,0.0,0.0,0.0,1.3429,0.0,0.0,0.0,0.0,0.0,0.0,0.0,0.0,0.0,0.0,0.0,0.0,0.0,0.0,0.0,0.0,0.0,1.6922,1.6151,1.541,1.541,1.541,1.541,1.541,1.541,1.541,1.541,1.5449,1.5527,1.5898,1.6103,0.0,0.0,1.6836,1.6865,1.7295,1.7414,1.7235,1.6793,1.593,1.4879,1.4027,1.3091,1.2305,1.2305,1.2305,1.2305,1.2305,1.2305,1.2305,1.2305,1.2305,1.2305,1.2305,1.2305,1.2305,1.2305,1.2305,1.2305,1.2305,1.2305,1.2305,1.2305,1.2305,1.2305,1.2305,1.0651,0.9296,0.9296,0.7629,0.6338,0.6338,0.6338,0.6338,0.6338,0.6338,0.6338,0.6338,0.6338,0.6338,0.6338,0.6338,0.6338,0.6338,0.6338,0.6338,0.6338,0.6338,0.6338,0.6338,0.6338,0.6338,0.6338,0.6338,0.64,0.6664,0.6688,0.6848,1.002,1.0896,1.1858,1.2141,1.2021,1.188,1.2017,1.2227,1.2512,0.0,0.0,0.0,0.0,0.0,0.0,0.0,0.0,0.0,0.0,0.0,0.0,0.0,0.0,0.0,0.0,0.0,0.0,0.0,0.0,0.0,0.0,0.0,1.6754,1.6036,1.5584,1.541,1.541,1.541,1.541,1.541,1.541,1.541,1.542,1.5615,1.5713,1.5732,0.0,1.6367,1.6406,1.6846,1.7031,1.6986,1.6759,1.6206,1.5506,1.4806,1.3882,1.3025,1.3025,1.2732,1.2305,1.2305,1.2305,1.2305,1.2305,1.2305,1.2305,1.2305,1.2305,1.2305,1.2305,1.2305,1.2305,1.2305,1.2305,1.2305,1.2305,1.2305,1.2305,1.2305,1.0651,0.9296,0.9296,0.7629,0.6338,0.6338,0.6338,0.6338,0.6338,0.6338,0.6338,0.6338,0.6338,0.6338,0.6338,0.6338,0.6338,0.6338,0.6338,0.6338,0.6338,0.6338,0.6338,0.6338,0.6338,0.6338,0.6338,0.6339,0.6488,0.6702,0.6783,0.6939,1.0123,1.0955,1.1998,1.2636,1.2612,1.2458,1.261,1.3075,1.3629,0.0,0.0,0.0,0.0,0.0,0.0,0.0,0.0,0.0,0.0,0.0,0.0,0.0,0.0,0.0,0.0,0.0,0.0,0.0,0.0,0.0,0.0,0.0,1.7137,1.6539,1.5748,1.541,1.541,1.541,1.541,1.541,1.541,1.541,1.541,1.541,1.541,1.543,1.5762,1.5908,1.5947,1.6387,1.6572,1.6592,1.6626,1.6317,1.5664,1.5076,1.4332,1.3561,1.3561,1.3034,1.2305,1.2305,1.2305,1.2305,1.2305,1.2305,1.2305,1.2305,1.2305,1.2305,1.2305,1.2305,1.2305,1.2305,1.2305,1.2305,1.2305,1.2305,1.2305,1.2305,1.0651,0.9296,0.9296,0.7629,0.6338,0.6338,0.6338,0.6338,0.6338,0.6338,0.6338,0.6338,0.6338,0.6338,0.6338,0.6338,0.6338,0.6338,0.6338,0.6338,0.6338,0.6338,0.6338,0.6338,0.6338,0.6278,0.6312,0.642,0.6569,0.6756,0.6875,0.7004,1.0125,1.1013,1.2121,1.2659,1.266,1.28,1.3959,1.4602,0.0,1.5727,0.0,0.0,0.0,0.0,0.0,0.0,0.0,0.0,0.0,0.0,0.0,0.0,0.0,0.0,0.0,0.0,0.0,0.0,0.0,0.0,0.0,0.0,0.0,1.6528,1.5748,1.541,1.541,1.541,1.541,1.541,1.541,1.541,1.541,1.541,1.541,1.541,1.5449,1.5459,1.5498,1.5928,1.6113,1.6152,1.6572,1.6147,1.5236,1.4354,1.3643,1.3164,1.3164,1.2784,1.2305,1.2305,1.2305,1.2305,1.2305,1.2305,1.2305,1.2305,1.2305,1.2305,1.2305,1.2305,1.2305,1.2305,1.2305,1.2305,1.2305,1.2305,1.2305,1.2305,1.0651,0.9296,0.9296,0.7629,0.6338,0.6338,0.6338,0.6338,0.6338,0.6338,0.6338,0.6338,0.6338,0.6338,0.6338,0.6338,0.6338,0.6338,0.6338,0.6338,0.6338,0.6338,0.6338,0.6338,0.6338,0.6325,0.6458,0.6468,0.6624,0.6912,0.6922,0.7004,1.0196,1.109,1.2308,1.331,1.3421,0.0,0.0,1.5534,1.6082,1.6754,1.6823,0.0,0.0,0.0,0.0,0.0,0.0,0.0,0.0,0.0,0.0,0.0,0.0,0.0,0.0,0.0,0.0,0.0,0.0,0.0,0.0,0.0,0.0,1.687,1.5687,1.5189,1.5573,1.5446,1.541,1.541,1.541,1.541,1.541,1.541,1.541,1.541,1.541,1.541,1.542,1.5586,1.5654,1.5703,1.6143,1.6123,1.576,1.5706,1.5168,1.4488,1.4488,1.3966,1.3194,1.2731,1.2529,1.2459,1.1898,1.1891,1.2031,1.2031,1.2164,1.2305,1.2305,1.2305,1.2305,1.2305,1.2305,1.2305,1.2305,1.2305,1.2305,1.2305,1.1168,1.0265,1.0265,0.8533,0.7249,0.7249,0.6718,0.6338,0.6338,0.6338,0.6338,0.6338,0.6338,0.6338,0.6338,0.6338,0.6338,0.6338,0.6338,0.6338,0.6338,0.6338,0.6338,0.6338,0.6338,0.6332,0.6471,0.6566,0.6722,0.6929,0.7017,0.7088,1.0247,1.1281,1.2687,1.3737,0.0,0.0,1.598,1.6541,1.6978,1.7625,1.7733,0.0,0.0,0.0,0.0,0.0,0.0,0.0,0.0,0.0,0.0,0.0,0.0,0.0,0.0,0.0,0.0,0.0,0.0,0.0,0.0,0.0,0.0,0.0,1.5669,1.5063,1.5496,1.5133,1.5078,1.5215,1.5215,1.5283,1.541,1.541,1.541,1.541,1.541,1.541,1.541,1.541,1.541,1.5439,1.5742,1.5859,1.5898,1.6201,1.5817,1.5141,1.5141,1.4569,1.376,1.2975,1.2714,1.2511,1.1628,1.1563,1.173,1.173,1.1937,1.2164,1.2164,1.2231,1.2305,1.2305,1.2305,1.2305,1.2305,1.2305,1.2305,1.2305,1.1465,1.0783,1.0783,0.9135,0.7783,0.7783,0.6949,0.6338,0.6338,0.6338,0.6338,0.6338,0.6338,0.6338,0.6338,0.6338,0.6338,0.6338,0.6338,0.6338,0.6338,0.6338,0.6338,0.6338,0.6338,0.6332,0.6471,0.6624,0.678,0.6932,0.7075,0.7139,1.0247,1.162,1.3252,0.0,0.0,0.0,1.7399,1.7662,1.7789,1.8475,1.8863,1.9026,1.8822,0.0,0.0,0.0,0.0,0.0,0.0,0.0,0.0,0.0,0.0,0.0,0.0,0.0,0.0,0.0,0.0,0.0,0.0,0.0,0.0,0.0,1.5771,1.5081,1.5081,1.445,1.4355,1.4775,1.4775,1.5,1.541,1.541,1.541,1.541,1.541,1.541,1.541,1.541,1.541,1.541,1.541,1.541,1.541,1.541,1.5138,1.4737,1.4737,1.4354,1.3751,1.2967,1.2706,1.2571,1.169,1.1416,1.1423,1.1423,1.1637,1.1864,1.187,1.2084,1.2298,1.2305,1.2305,1.2305,1.2305,1.2305,1.2305,1.2305,1.1465,1.0783,1.0783,0.9135,0.7783,0.7783,0.6949,0.6338,0.6338,0.6338,0.6338,0.6338,0.6338,0.6338,0.6338,0.6338,0.6338,0.6338,0.6338,0.6338,0.6338,0.6338,0.6338,0.6338,0.6338,0.6332,0.6471,0.6624,0.678,0.6932,0.7075,0.7139,1.0874,1.1994,0.0,1.4379,0.0,0.0,0.0,1.8384,0.0,0.0,1.9317,1.9265,0.0,0.0,0.0,0.0,0.0,0.0,0.0,0.0,0.0,0.0,0.0,0.0,0.0,0.0,0.0,0.0,0.0,0.0,0.0,0.0,0.0,0.0,1.5315,1.4811,1.5258,1.4479,1.4145,1.4326,1.4326,1.4707,1.541,1.541,1.541,1.541,1.541,1.541,1.541,1.541,1.541,1.541,1.541,1.541,1.541,1.541,1.5312,1.5172,1.5172,1.5078,1.4799,1.4004,1.3393,1.2767,1.1944,1.14,1.1122,1.1122,1.1336,1.1603,1.1817,1.1937,1.2051,1.2258,1.2305,1.2305,1.2305,1.2305,1.2305,1.2305,1.207,1.1848,1.1848,1.0196,0.8846,0.8846,0.7403,0.6338,0.6338,0.6338,0.6338,0.6338,0.6338,0.6338,0.6338,0.6338,0.6338,0.6338,0.6338,0.6338,0.6338,0.6338,0.6338,0.6338,0.6338,0.6332,0.6471,0.6624,0.678,0.6932,0.7075,0.7139,1.1142,1.2349,0.0,1.4656,1.5736,1.6997,1.8702,0.0,0.0,0.0,0.0,0.0,0.0,0.0,0.0,0.0,0.0,0.0,0.0,0.0,0.0,0.0,0.0,0.0,0.0,0.0,0.0,0.0,0.0,0.0,0.0,0.0,0.0,0.0,1.5429,1.4935,1.504,1.4362,1.3959,1.3887,1.3887,1.4238,1.4912,1.5088,1.5254,1.541,1.541,1.541,1.541,1.541,1.541,1.541,1.541,1.541,1.541,1.541,1.541,1.541,1.541,1.541,1.5294,1.4451,1.3846,1.3243,1.2135,1.1536,1.1254,1.0945,1.1029,1.1296,1.1476,1.1603,1.1797,1.2204,1.2305,1.2305,1.2305,1.2305,1.2305,1.2305,1.2305,1.2305,1.2305,1.0944,0.9744,0.9372,0.7557,0.6338,0.6338,0.6338,0.6338,0.6338,0.6338,0.6338,0.6338,0.6338,0.6338,0.6338,0.6338,0.6338,0.6338,0.6338,0.6338,0.6338,0.6338,0.6302,0.639,0.66,0.6749,0.6844,0.7044,0.7139,1.1127,1.262,0.0,1.4822,1.6443,0.0,1.9405,1.969,1.969,0.0,0.0,0.0,0.0,0.0,0.0,0.0,0.0,0.0,0.0,0.0,0.0,0.0,0.0,0.0,0.0,0.0,0.0,0.0,0.0,0.0,0.0,0.0,0.0,1.6522,1.5908,1.532,1.4789,1.419,1.3807,0.0,1.359,1.3817,1.4241,1.4586,1.4941,1.5293,1.5342,1.5352,1.5361,1.5391,1.541,1.541,1.541,1.541,1.541,1.541,1.541,1.541,1.541,1.541,1.5294,1.4569,1.4273,1.3906,1.2381,1.1834,1.1648,1.0807,1.0755,1.0962,1.0982,1.1189,1.153,1.2091,1.2225,1.2225,1.2225,1.2245,1.2265,1.2265,1.2285,1.2305,1.2305,1.1465,1.0484,0.9448,0.7783,0.6567,0.6567,0.6567,0.6567,0.6567,0.6567,0.6567,0.6412,0.6412,0.6412,0.6338,0.6338,0.6338,0.6338,0.6338,0.6338,0.6338,0.6338,0.6338,0.6338,0.6556,0.6702,0.6709,0.7004,0.7139,1.1109,1.263,0.0,0.0,1.7511,1.9346,1.9615,1.969,1.969,0.0,0.0,0.0,0.0,0.0,0.0,0.0,0.0,0.0,0.0,0.0,0.0,0.0,0.0,0.0,0.0,0.0,0.0,0.0,0.0,0.0,0.0,0.0,0.0,1.6522,1.5908,1.5543,1.541,1.4835,1.4477,0.0,1.4446,1.4638,1.5006,1.4475,1.4326,1.4379,1.4775,1.4922,1.4941,1.5273,1.541,1.541,1.541,1.541,1.541,1.541,1.541,1.541,1.541,1.541,1.5352,1.5167,1.4688,1.4025,1.3061,1.2328,1.1648,1.0807,1.0665,1.0701,1.0935,1.1042,1.1176,1.153,1.1617,1.1617,1.1617,1.1797,1.1964,1.1964,1.2144,1.2305,1.2305,1.1465,1.0484,0.9448,0.8922,0.8694,0.8694,0.8694,0.8694,0.8694,0.8694,0.8313,0.7557,0.748,0.7176,0.6338,0.6338,0.6338,0.6338,0.6338,0.6338,0.6338,0.6338,0.6338,0.6338,0.6556,0.6702,0.6709,0.7004,0.7139,1.114,0.0,0.0,1.6292,0.0,1.9301,1.9615,1.969,0.0,0.0,0.0,0.0,0.0,0.0,0.0,0.0,0.0,0.0,0.0,0.0,0.0,0.0,0.0,0.0,0.0,0.0,0.0,0.0,0.0,0.0,0.0,1.6522,1.6522,1.6522,1.6182,1.5908,1.5588,1.5276,1.4971,1.4698,1.4698,1.4832,1.5007,1.4707,1.4556,1.4566,1.4483,1.4473,1.4502,1.4932,1.5107,1.5127,1.5332,1.541,1.541,1.541,1.541,1.541,1.541,1.541,1.541,1.541,1.5108,1.4628,1.3846,1.3,1.2205,1.1413,1.0926,1.0658,1.0748,1.0788,1.0822,1.0975,1.1223,1.1423,1.1423,1.155,1.1657,1.1657,1.1897,1.2098,1.2098,1.1384,1.0634,1.0115,0.9599,0.9296,0.9296,0.9296,0.9296,0.9296,0.9296,0.9074,0.8542,0.8542,0.8313,0.7783,0.7706,0.7706,0.7706,0.7706,0.7249,0.6338,0.6338,0.6338,0.6338,0.6955,0.7352,0.7518,0.7692,0.7767,1.1015,0.0,1.4656,1.6833,1.8044,0.0,1.939,1.96,0.0,0.0,0.0,0.0,0.0,0.0,0.0,0.0,0.0,0.0,0.0,0.0,0.0,0.0,0.0,0.0,0.0,0.0,0.0,0.0,0.0,0.0,1.6522,1.6522,1.6522,1.6522,1.6522,1.6238,1.5764,1.5776,1.5499,1.5017,1.5017,1.5017,1.5006,1.5121,1.5086,1.4852,1.4353,1.4076,1.4009,1.4492,1.4678,1.4707,1.5059,1.5234,1.5303,1.5303,1.5352,1.541,1.541,1.541,1.541,1.541,1.541,1.5235,1.4451,1.3726,1.3061,1.2205,1.1413,1.0807,1.0807,1.0681,1.0624,1.0624,1.0929,1.1276,1.1276,1.1316,1.1349,1.1349,1.163,1.187,1.187,1.1436,1.1087,1.1087,1.0346,0.9825,0.9825,0.9825,0.9825,0.9825,0.9825,0.975,0.9599,0.9593,0.9523,0.9296,0.9296,0.9296,0.9296,0.9296,0.8542,0.6872,0.6795,0.6795,0.6795,0.7803,0.8378,0.8647,0.8686,0.888,1.0456,0.0,1.4977,0.0,1.7386,1.8732,0.0,0.0,0.0,0.0,0.0,0.0,0.0,0.0,0.0,0.0,0.0,0.0,0.0,0.0,0.0,0.0,0.0,0.0,0.0,0.0,0.0,0.0,0.0,0.0,1.6522,1.6522,1.6522,1.6522,1.6522,1.6479,1.638,1.638,1.6337,1.625,1.625,1.625,1.625,1.5742,1.497,1.3989,1.4229,1.4064,1.3623,1.4043,1.4165,1.4175,1.4233,1.4531,1.4873,1.4873,1.5098,1.541,1.541,1.541,1.541,1.541,1.541,1.5235,1.4451,1.4145,1.3846,1.307,1.2266,1.1648,1.1648,1.1108,1.0624,1.0624,1.0678,1.0739,1.0739,1.0875,1.1049,1.1049,1.149,1.187,1.187,1.2032,1.2077,1.2077,1.2003,1.1922,1.1922,1.1922,1.1922,1.1922,1.1922,1.1545,1.064,1.0565,1.0265,0.9372,0.9296,0.9296,0.9296,0.9296,0.9145,0.8922,0.8922,0.8922,0.8922,0.9199,0.9409,0.97,0.9844,1.0149,1.1127,1.2577,1.4142,0.0,1.6443,1.7356,1.8448,0.0,0.0,0.0,0.0,0.0,0.0,0.0,0.0,0.0,0.0,0.0,0.0,0.0,0.0,0.0,0.0,0.0,0.0,0.0,0.0,0.0,0.0,1.6522,1.6522,1.6522,1.6522,1.6522,1.6522,1.6522,1.6522,1.6522,1.6522,1.6522,1.6522,1.6522,1.6479,1.6238,1.5466,1.4294,1.4121,1.3705,1.3193,1.3613,1.3779,1.3809,1.399,1.4248,1.4453,1.4697,1.4902,1.5098,1.5332,1.541,1.541,1.541,1.541,1.5352,1.4991,1.4569,1.4154,1.3786,1.3122,1.2389,1.1896,1.1531,1.117,1.0681,1.0624,1.0624,1.0624,1.0661,1.0795,1.0962,1.1202,1.143,1.159,1.1864,1.2058,1.2058,1.2198,1.2305,1.2305,1.2305,1.2305,1.2305,1.2305,1.215,1.1694,1.162,1.1471,1.1025,1.095,1.095,1.095,1.095,1.095,1.095,0.99,0.9296,0.9296,0.9916,1.0462,1.0928,1.0947,1.1117,0.0,0.0,1.3176,1.4732,1.5493,1.6232,0.0,0.0,0.0,0.0,0.0,0.0,0.0,0.0,0.0,0.0,0.0,0.0,0.0,0.0,0.0,0.0,0.0,0.0,0.0,0.0,0.0,0.0,0.0,1.6522,1.6522,1.6522,1.6522,1.6522,1.6522,1.6522,1.6522,1.6522,1.6522,1.6522,1.6522,1.6522,1.6522,1.6522,1.5932,1.488,1.4283,1.3695,1.3123,1.3313,1.335,1.3379,1.3691,1.3887,1.4014,1.4346,1.46,1.4834,1.5146,1.5322,1.541,1.541,1.541,1.541,1.541,1.4991,1.451,1.451,1.3914,1.3183,1.2565,1.2258,1.1896,1.1108,1.0926,1.087,1.0624,1.0624,1.0692,1.0842,1.0942,1.1089,1.1376,1.167,1.1897,1.1964,1.2164,1.2305,1.2305,1.2305,1.2305,1.2305,1.2305,1.2305,1.2305,1.2305,1.2305,1.2305,1.2305,1.2305,1.2305,1.2305,1.2305,1.2305,1.0801,1.0045,1.0045,1.0795,1.1523,1.2068,1.1982,1.2261,0.0,1.182,0.0,1.3076,1.4623,0.0,0.0,0.0,0.0,0.0,0.0,0.0,0.0,0.0,0.0,0.0,0.0,0.0,0.0,0.0,0.0,0.0,0.0,0.0,0.0,0.0,0.0,0.0,0.0,1.6522,1.6522,1.6522,1.6522,1.6522,1.6522,1.6522,1.6522,1.6522,1.6522,1.6522,1.6522,1.6522,1.6522,1.6522,1.6139,1.5543,1.4926,1.4329,1.3732,1.3182,1.291,1.291,1.2939,1.3193,1.3545,1.3564,1.4092,1.4785,1.4805,1.5078,1.541,1.541,1.541,1.541,1.541,1.5352,1.5352,1.5352,1.4746,1.4154,1.4085,1.3485,1.2757,1.1958,1.1772,1.1531,1.0744,1.0624,1.0624,1.0645,1.0808,1.1089,1.1376,1.167,1.1964,1.2238,1.2291,1.2305,1.2305,1.2305,1.2305,1.2305,1.2305,1.2305,1.2305,1.2305,1.2305,1.2305,1.2305,1.2305,1.2305,1.2305,1.2305,1.2305,1.2224,1.215,1.215,1.2224,1.2536,1.3127,1.3127,1.3439,0.0,0.0,0.0,1.2969,1.3674,0.0,0.0,0.0,0.0,0.0,0.0,0.0,0.0,0.0,0.0,0.0,0.0,0.0,0.0,0.0,0.0,0.0,0.0,0.0,0.0,0.0,0.0,0.0,0.0,0.0,1.6522,1.6522,1.6522,1.6522,1.6522,1.6522,1.6522,1.6522,1.6522,1.6522,1.6522,1.6522,1.6522,1.6522,1.638,1.6139,1.5555,1.496,1.4376,1.4154,1.3836,1.3457,1.3457,1.3339,1.3135,1.3408,1.3701,1.4004,1.4277,1.4648,1.501,1.501,1.5186,1.541,1.541,1.541,1.541,1.541,1.5167,1.4864,1.4323,1.3974,1.3425,1.2135,1.1834,1.1593,1.0744,1.0624,1.0624,1.0624,1.0705,1.0808,1.1096,1.139,1.1683,1.1984,1.2184,1.2305,1.2305,1.2305,1.2305,1.2305,1.2305,1.2305,1.2305,1.2305,1.2305,1.2305,1.2305,1.2305,1.2305,1.2305,1.2305,1.2305,1.2305,1.2305,1.2305,1.2305,1.2512,1.2919,1.312,1.3427,1.0135,0.0,0.0,0.0,0.0,0.0,0.0,0.0,0.0,0.0,0.0,0.0,0.0,0.0,0.0,0.0,0.0,0.0,0.0,0.0,0.0,0.0,0.0,0.0,0.0,0.0,0.0,0.0,0.0,0.0,1.6522,1.6522,1.6522,1.6522,1.6522,1.6522,1.6522,1.6522,1.6522,1.6522,1.6522,1.6522,1.6522,1.6522,1.6522,1.6466,1.6095,1.5555,1.4971,1.4789,1.4329,1.3815,1.3815,1.342,1.291,1.3193,1.3389,1.3545,1.3828,1.4199,1.457,1.457,1.4853,1.5205,1.5205,1.5293,1.541,1.541,1.541,1.5294,1.4746,1.4392,1.3906,1.2862,1.2381,1.1958,1.117,1.08,1.0624,1.0624,1.0624,1.0681,1.1069,1.1296,1.1557,1.1957,1.2178,1.2305,1.2305,1.2305,1.2305,1.2305,1.2305,1.2305,1.2305,1.2305,1.2305,1.2305,1.2305,1.2305,1.2305,1.2305,1.2305,1.2305,1.2305,1.2305,1.2305,1.2305,1.2452,1.2829,1.3066,1.342,0.0,0.0,0.0,0.0,0.0,0.0,0.0,0.0,0.0,0.0,0.0,0.0,0.0,0.0,0.0,0.0,0.0,0.0,0.0,0.0,0.0,0.0,0.0,0.0,0.0,0.0,0.0,0.0,0.0,1.6522,1.6522,1.6522,1.6522,1.6522,1.6522,1.6522,1.6522,1.6522,1.6522,1.6522,1.6522,1.6522,1.6522,1.6522,1.6522,1.6522,1.6522,1.6194,1.5588,1.5005,1.4376,1.3862,1.3862,1.3467,1.2929,1.2929,1.3135,1.3486,1.3486,1.3769,1.4058,1.4058,1.4414,1.4766,1.4785,1.5068,1.5391,1.541,1.541,1.541,1.541,1.4815,1.4213,1.4213,1.3606,1.2818,1.202,1.1226,1.0681,1.0624,1.0624,1.0742,1.1323,1.1423,1.1623,1.2211,1.2305,1.2305,1.2305,1.2305,1.2305,1.2305,1.2305,1.2305,1.2305,1.2305,1.2305,1.2305,1.2305,1.2305,1.2305,1.2305,1.2305,1.2305,1.2305,1.2305,1.2305,1.2305,1.2452,1.2815,1.306,1.3527,1.1197,0.0,0.0,0.0,0.0,0.0,0.0,0.0,0.0,0.0,0.0,0.0,0.0,0.0,0.0,0.0,0.0,0.0,0.0,0.0,0.0,0.0,0.0,0.0,0.0,0.0,0.0,0.0,1.671,1.6522,1.6522,1.6522,1.6522,1.6522,1.6522,1.6522,1.6522,1.6522,1.6522,1.6522,1.6522,1.6522,1.6522,1.6522,1.6522,1.6522,1.6522,1.6423,1.6238,1.6064,1.5644,1.5084,1.5084,1.4457,1.3552,1.3552,1.3367,1.3057,1.3057,1.333,1.3682,1.3682,1.3965,1.4375,1.4687,1.4863,1.5029,1.5322,1.541,1.541,1.541,1.5225,1.4932,1.4332,1.4034,1.3666,1.2818,1.252,1.1965,1.0807,1.0624,1.0742,1.1323,1.1423,1.1623,1.2211,1.2305,1.2305,1.2305,1.2305,1.2305,1.2305,1.2305,1.2305,1.2305,1.2305,1.2305,1.2305,1.2305,1.2305,1.2305,1.2305,1.2305,1.2305,1.2305,1.2305,1.2305,1.2305,1.2345,1.2438,1.2966,1.3527,1.1536,0.0,0.0,0.0,0.0,0.0,0.0,0.0,0.0,0.0,0.0,0.0,0.0,0.0,0.0,0.0,0.0,0.0,0.0,0.0,0.0,0.0,0.0,0.0,0.0,0.0,0.0,1.7666,1.6909,1.6522,1.6522,1.6522,1.6522,1.6522,1.6522,1.6522,1.6522,1.6522,1.6522,1.6522,1.6522,1.6522,1.6522,1.6522,1.6522,1.6522,1.6522,1.6522,1.6522,1.6522,1.6139,1.5588,1.5588,1.5005,1.4143,1.3909,1.36,1.3238,1.2968,1.3037,1.3242,1.3242,1.3525,1.3916,1.417,1.4502,1.4834,1.5078,1.5273,1.541,1.541,1.541,1.5294,1.4805,1.4688,1.451,1.3666,1.3485,1.3,1.1413,1.1108,1.1135,1.1229,1.1243,1.1443,1.2031,1.2124,1.2164,1.2285,1.2305,1.2305,1.2305,1.2305,1.2305,1.2305,1.2305,1.2305,1.2305,1.2305,1.2305,1.2305,1.2305,1.2305,1.2305,1.2305,1.2305,1.2305,1.2305,1.2365,1.2498,1.2986,1.346,1.134,1.1737,0.0,0.0,0.0,0.0,1.2568,1.2404,0.0,0.0,0.0,0.0,0.0,0.0,0.0,0.0,0.0,0.0,0.0,0.0,0.0,0.0,0.0,0.0,0.0,1.8208,1.7926,1.7995,1.712,1.6552,1.6522,1.6522,1.6522,1.6522,1.6522,1.6522,1.6522,1.6522,1.6522,1.6522,1.6522,1.6522,1.6522,1.6522,1.6522,1.6522,1.6522,1.6522,1.6522,1.6522,1.6194,1.572,1.572,1.532,1.4744,1.419,1.3909,1.3732,1.32,1.2978,1.2881,1.2881,1.3135,1.3447,1.3496,1.4043,1.4668,1.4756,1.5088,1.541,1.541,1.541,1.541,1.541,1.541,1.5167,1.451,1.4323,1.3897,1.2381,1.2012,1.1814,1.1321,1.1252,1.1457,1.1988,1.2006,1.2114,1.2265,1.2305,1.2305,1.2305,1.2305,1.2305,1.2305,1.2305,1.2305,1.2305,1.2305,1.2305,1.2305,1.2305,1.2305,1.2305,1.2305,1.2305,1.2305,1.2305,1.2472,1.2882,1.308,1.3387,1.289,1.2958,1.3025,1.2904,0.0,0.0,0.0,1.2218,0.0,0.0,0.0,0.0,0.0,0.0,0.0,0.0,0.0,0.0,0.0,0.0,0.0,0.0,0.0,0.0,0.0,1.6979,1.6886,1.7422,1.7237,1.6951,1.6522,1.6522,1.6522,1.6522,1.6522,1.6522,1.6522,1.6522,1.6522,1.6522,1.6522,1.6522,1.6522,1.6522,1.6522,1.6522,1.6522,1.6522,1.6522,1.6522,1.6423,1.6337,1.6337,1.5964,1.541,1.5309,1.463,1.3768,1.3684,1.3334,1.2881,1.2881,1.2939,1.3066,1.3408,1.3623,1.3906,1.459,1.5088,1.541,1.541,1.541,1.541,1.541,1.541,1.5352,1.5167,1.5177,1.4874,1.3897,1.3183,1.2808,1.2909,1.29,1.2949,1.2892,1.2846,1.2749,1.2338,1.2305,1.2305,1.2305,1.2305,1.2305,1.2305,1.2305,1.2305,1.2305,1.2305,1.2305,1.2305,1.2305,1.2305,1.2305,1.2305,1.2305,1.2305,1.2305,1.2585,1.312,1.318,1.3494,1.3362,1.3362,1.3312,1.3174,0.0,0.0,0.0,0.0,1.2411,0.0,0.0,0.0,0.0,0.0,0.0,0.0,0.0,0.0,0.0,0.0,0.0,0.0,0.0,0.0,0.0,1.6904,1.6528,1.6393,1.6653,1.6612,1.6137,1.6107,1.6233,1.6509,1.6522,1.6522,1.6522,1.6522,1.6522,1.6522,1.6522,1.6522,1.6522,1.6522,1.6522,1.6522,1.6522,1.6522,1.6522,1.6522,1.6522,1.6522,1.6522,1.6337,1.6008,1.572,1.5231,1.4641,1.4376,1.3826,1.3324,1.3324,1.3152,1.292,1.3135,1.334,1.3691,1.4541,1.4941,1.5146,1.5352,1.541,1.541,1.541,1.541,1.541,1.541,1.541,1.5294,1.4874,1.4451,1.3967,1.3302,1.3211,1.321,1.3216,1.3442,1.3538,1.3375,1.3633,1.373,1.373,1.373,1.373,1.373,1.373,1.373,1.373,1.331,1.3025,1.3025,1.3025,1.3025,1.3025,1.2519,1.2305,1.2305,1.2305,1.2538,1.2979,1.314,1.3447,0.0,0.0,0.0,0.0,0.0,1.3084,0.0,0.0,0.0,1.2388,0.0,0.0,0.0,0.0,0.0,0.0,0.0,0.0,0.0,0.0,0.0,0.0,0.0,0.0,0.0,1.6822,1.6375,1.5462,1.5955,1.6079,1.5625,1.5683,1.5906,1.6346,1.6459,1.6522,1.6522,1.6522,1.6522,1.6522,1.6522,1.6522,1.6522,1.6522,1.6522,1.6522,1.6522,1.6522,1.6522,1.6522,1.6522,1.6522,1.6522,1.6522,1.6423,1.5952,1.572,1.5543,1.505,1.4468,1.3956,1.3956,1.3552,1.3065,1.2929,1.3174,1.3652,1.4346,1.4658,1.4863,1.5205,1.5352,1.541,1.541,1.541,1.541,1.541,1.541,1.541,1.541,1.541,1.4991,1.3674,1.3485,1.3492,1.3614,1.4045,1.4347,1.4501,1.4932,1.5234,1.5234,1.5234,1.5234,1.5234,1.5234,1.5234,1.5234,1.4458,1.3954,1.3954,1.3954,1.3954,1.3954,1.3237,1.2879,1.2879,1.2879,1.2817,1.2829,1.3066,1.344,0.0,0.0,0.0,0.0,1.3294,0.0,0.0,0.0,1.2662,1.2593,0.0,0.0,0.0,0.0,0.0,0.0,0.0,0.0,0.0,0.0,0.0,0.0,0.0,0.0,0.0,0.0,1.5825,1.5104,1.5774,1.5905,1.5223,1.5509,1.5718,1.5781,1.6258,1.6522,1.6522,1.6522,1.6522,1.6522,1.6522,1.6522,1.6522,1.6522,1.6522,1.6522,1.6522,1.6522,1.6522,1.6522,1.6522,1.6522,1.6522,1.6522,1.6479,1.6423,1.6051,1.5588,1.5543,1.5096,1.4606,1.4606,1.4201,1.36,1.3055,1.3174,1.3525,1.3623,1.4199,1.4795,1.4844,1.5127,1.541,1.541,1.541,1.541,1.541,1.541,1.541,1.541,1.541,1.5352,1.5167,1.5118,1.5015,1.4622,1.4879,1.4998,1.4569,1.4932,1.5234,1.5234,1.5234,1.5234,1.5234,1.5234,1.5234,1.5234,1.5092,1.5021,1.5021,1.5021,1.5021,1.5021,1.495,1.4879,1.4879,1.4879,1.4194,1.2829,1.3066,1.3912,0.0,0.0,0.0,0.0,0.0,0.0,0.0,0.0,1.2757,0.0,0.0,0.0,0.0,0.0,0.0,0.0,0.0,0.0,0.0,0.0,0.0,0.0,0.0,0.0,0.0,0.0,0.0,0.0,0.0,1.4553,1.4646,1.4714,1.5079,1.568,1.5919,1.6195,1.6522,1.6522,1.6522,1.6522,1.6522,1.6522,1.6522,1.6522,1.6522,1.6522,1.6522,1.6522,1.6522,1.6522,1.6522,1.6522,1.6522,1.6522,1.6522,1.6522,1.6337,1.6139,1.6139,1.5732,1.5141,1.4789,1.4514,1.4283,1.4025,1.383,1.3746,1.3951,1.4178,1.4463,1.4717,1.5098,1.541,1.541,1.541,1.541,1.541,1.541,1.541,1.541,1.541,1.541,1.541,1.541,1.5352,1.5169,1.5704,1.6056,1.5834,1.6401,1.6802,1.6802,1.6802,1.6802,1.6802,1.6802,1.6802,1.6802,1.6289,1.6,1.6,1.5517,1.5446,1.6,1.5517,1.5234,1.5234,1.5234,1.488,1.4175,1.4699,1.5358,1.6448,0.0,0.0,0.0,0.0,0.0,0.0,0.0,0.0,0.0,0.0,0.0,0.0,0.0,0.0,0.0,0.0,0.0,0.0,0.0,0.0,0.0,0.0,0.0,0.0,0.0,0.0,0.0,0.0,0.0,1.3917,1.4159,1.4663,1.5482,1.5727,1.6081,1.6509,1.6522,1.6522,1.6522,1.6522,1.6522,1.6522,1.6522,1.6522,1.6522,1.6522,1.6522,1.6522,1.6522,1.6522,1.6522,1.6522,1.6522,1.6522,1.6522,1.6522,1.6522,1.6522,1.6194,1.5732,1.5141,1.4971,1.4926,1.4744,1.4376,1.4125,1.4409,1.4591,1.4722,1.4849,1.5282,1.5642,1.5468,1.541,1.541,1.541,1.541,1.541,1.541,1.541,1.541,1.541,1.541,1.5449,1.5566,1.624,1.6777,1.6894,1.7549,1.8008,1.8008,1.8008,1.8008,1.8008,1.8008,1.8008,1.8008,1.7354,1.7001,1.7001,1.6367,1.6298,1.6991,1.6298,1.5948,1.5948,1.5948,1.5948,1.5965,1.6112,1.6521,0.0,0.0,0.0,1.5921,0.0,0.0,0.0,0.0,1.3727,0.0,0.0,0.0,0.0,0.0,0.0,1.2012,0.0,0.0,0.0,0.0,0.0,0.0,0.0,0.0,0.0,0.0,0.0,0.0,0.0,0.0,1.3063,1.4152,1.4859,1.5031,1.5827,1.6342,1.6509,1.6522,1.6522,1.6522,1.6522,1.6522,1.6522,1.6522,1.6522,1.6522,1.6522,1.6522,1.6522,1.6522,1.6522,1.6522,1.6522,1.6522,1.6522,1.6522,1.6522,1.6522,1.6522,1.6479,1.638,1.5776,1.5588,1.5454,1.488,1.4709,1.4652,1.4674,1.5378,1.5985,1.5247,1.5769,1.6265,1.5584,1.541,1.541,1.541,1.541,1.541,1.541,1.541,1.541,1.541,1.541,1.5557,1.6037,1.6436,1.6885,1.7305,1.7744,1.8008,1.8008,1.8008,1.8008,1.8008,1.8008,1.8008,1.8008,1.794,1.794,1.794,1.794,1.794,1.794,1.794,1.794,1.794,1.794,1.794,1.7891,1.6711,1.6774,0.0,0.0,1.7867,1.6928,0.0,0.0,0.0,0.0,0.0,0.0,0.0,0.0,0.0,0.0,1.2697,1.2209,1.1991,0.0,0.0,0.0,0.0,0.0,0.0,0.0,0.0,0.0,0.0,0.0,0.0,0.0,0.0,1.3475,1.3926,1.4411,1.5297,1.5815,1.5969,1.6333,1.6522,1.6522,1.6522,1.6522,1.6522,1.6522,1.6522,1.6522,1.6522,1.6522,1.6522,1.6522,1.6522,1.6522,1.6522,1.6522,1.6522,1.6522,1.6522,1.6522,1.6522,1.6522,1.6466,1.6238,1.6194,1.6151,1.5964,1.5599,1.5345,1.5729,1.6001,1.6204,1.6332,1.6775,1.7191,1.6912,1.6472,1.6151,1.6151,1.5748,1.541,1.541,1.541,1.541,1.541,1.5654,1.5889,1.6105,1.6445,1.6894,1.7334,1.7744,1.8008,1.8008,1.8008,1.8008,1.8008,1.8008,1.8008,1.8008,1.8008,1.8008,1.8008,1.8008,1.8008,1.8008,1.8008,1.8008,1.8008,1.8008,1.8008,1.8027,1.7849,1.818,1.9326,1.9162,0.0,1.847,1.8147,0.0,1.6147,0.0,0.0,0.0,0.0,0.0,0.0,0.0,0.0,1.2642,1.2244,0.0,0.0,0.0,0.0,0.0,0.0,0.0,0.0,0.0,1.1416,1.1803,0.0,0.0,0.0,0.0,1.3592,1.4028,1.5092,1.5697,1.5828,1.6342,1.6534,1.6522,1.6522,1.6522,1.6522,1.6522,1.6522,1.6522,1.6522,1.6522,1.6522,1.6522,1.6522,1.6522,1.6522,1.6522,1.6522,1.6522,1.6522,1.6522,1.6522,1.6522,1.6522,1.6522,1.6522,1.6522,1.6522,1.6238,1.5981,1.6332,1.6669,1.6918,1.703,1.75,1.7961,1.7677,1.7246,1.6866,1.6866,1.6528,1.6187,1.6187,1.5968,1.5806,1.5806,1.5812,1.5937,1.625,1.668,1.7119,1.7549,1.7842,1.8008,1.8008,1.8008,1.8008,1.8008,1.8008,1.8008,1.8008,1.8008,1.8008,1.8008,1.8008,1.8008,1.8008,1.8008,1.8008,1.8008,1.8008,1.8008,1.8018,1.8437,1.8867]}]]